<?xml version="1.0" encoding="UTF-8" standalone="no" ?>
<gpx xmlns="http://www.topografix.com/GPX/1/1" xmlns:xsi="http://www.w3.org/2001/XMLSchema-instance" xsi:schemaLocation="http://www.topografix.com/GPX/1/1 http://www.topografix.com/GPX/1/1/gpx.xsd" version="1.1" creator="VisuGPX - https://www.visugpx.com">
  <metadata>
    <name>sortie du 09/02/2020</name>
    <desc><![CDATA[reprise en douceur sous le soleil béarnais]]></desc>
  </metadata>
  <trk>
    <name><![CDATA[Tracé actuel: 09 FEV 2020 09:10]]></name>
    <trkseg>
      <trkpt lat="43.4043" lon="-0.56757">
        <ele>134.24</ele>
        <time>2020-02-09T08:10:57Z</time>
      </trkpt>
      <trkpt lat="43.40428" lon="-0.56759">
        <ele>133.76</ele>
        <time>2020-02-09T08:11:16Z</time>
      </trkpt>
      <trkpt lat="43.40428" lon="-0.56759">
        <ele>134.24</ele>
        <time>2020-02-09T08:11:21Z</time>
      </trkpt>
      <trkpt lat="43.40432" lon="-0.56776">
        <ele>133.28</ele>
        <time>2020-02-09T08:11:31Z</time>
      </trkpt>
      <trkpt lat="43.40437" lon="-0.56771">
        <ele>133.28</ele>
        <time>2020-02-09T08:11:37Z</time>
      </trkpt>
      <trkpt lat="43.40436" lon="-0.56756">
        <ele>132.8</ele>
        <time>2020-02-09T08:11:42Z</time>
      </trkpt>
      <trkpt lat="43.40427" lon="-0.56746">
        <ele>132.32</ele>
        <time>2020-02-09T08:11:49Z</time>
      </trkpt>
      <trkpt lat="43.40427" lon="-0.56754">
        <ele>132.8</ele>
        <time>2020-02-09T08:12:01Z</time>
      </trkpt>
      <trkpt lat="43.40433" lon="-0.56758">
        <ele>132.32</ele>
        <time>2020-02-09T08:12:05Z</time>
      </trkpt>
      <trkpt lat="43.40457" lon="-0.56774">
        <ele>132.8</ele>
        <time>2020-02-09T08:12:18Z</time>
      </trkpt>
      <trkpt lat="43.40469" lon="-0.56819">
        <ele>132.8</ele>
        <time>2020-02-09T08:12:30Z</time>
      </trkpt>
      <trkpt lat="43.40488" lon="-0.5686">
        <ele>132.8</ele>
        <time>2020-02-09T08:12:41Z</time>
      </trkpt>
      <trkpt lat="43.4049" lon="-0.56872">
        <ele>132.8</ele>
        <time>2020-02-09T08:12:45Z</time>
      </trkpt>
      <trkpt lat="43.40492" lon="-0.56874">
        <ele>133.76</ele>
        <time>2020-02-09T08:12:54Z</time>
      </trkpt>
      <trkpt lat="43.40494" lon="-0.56874">
        <ele>133.28</ele>
        <time>2020-02-09T08:12:55Z</time>
      </trkpt>
      <trkpt lat="43.40496" lon="-0.56874">
        <ele>133.28</ele>
        <time>2020-02-09T08:12:56Z</time>
      </trkpt>
      <trkpt lat="43.40497" lon="-0.56871">
        <ele>133.76</ele>
        <time>2020-02-09T08:12:57Z</time>
      </trkpt>
      <trkpt lat="43.40499" lon="-0.56864">
        <ele>133.76</ele>
        <time>2020-02-09T08:12:59Z</time>
      </trkpt>
      <trkpt lat="43.40501" lon="-0.56859">
        <ele>133.76</ele>
        <time>2020-02-09T08:13:00Z</time>
      </trkpt>
      <trkpt lat="43.40503" lon="-0.56856">
        <ele>133.28</ele>
        <time>2020-02-09T08:13:01Z</time>
      </trkpt>
      <trkpt lat="43.40507" lon="-0.56853">
        <ele>133.28</ele>
        <time>2020-02-09T08:13:02Z</time>
      </trkpt>
      <trkpt lat="43.40511" lon="-0.5685">
        <ele>133.28</ele>
        <time>2020-02-09T08:13:03Z</time>
      </trkpt>
      <trkpt lat="43.40568" lon="-0.5682">
        <ele>132.8</ele>
        <time>2020-02-09T08:13:15Z</time>
      </trkpt>
      <trkpt lat="43.40649" lon="-0.56781">
        <ele>132.8</ele>
        <time>2020-02-09T08:13:32Z</time>
      </trkpt>
      <trkpt lat="43.40687" lon="-0.56758">
        <ele>133.28</ele>
        <time>2020-02-09T08:13:41Z</time>
      </trkpt>
      <trkpt lat="43.40687" lon="-0.56752">
        <ele>133.28</ele>
        <time>2020-02-09T08:13:42Z</time>
      </trkpt>
      <trkpt lat="43.40687" lon="-0.56748">
        <ele>133.28</ele>
        <time>2020-02-09T08:13:43Z</time>
      </trkpt>
      <trkpt lat="43.40686" lon="-0.56743">
        <ele>132.8</ele>
        <time>2020-02-09T08:13:44Z</time>
      </trkpt>
      <trkpt lat="43.40685" lon="-0.56737">
        <ele>132.8</ele>
        <time>2020-02-09T08:13:45Z</time>
      </trkpt>
      <trkpt lat="43.40683" lon="-0.56731">
        <ele>132.8</ele>
        <time>2020-02-09T08:13:46Z</time>
      </trkpt>
      <trkpt lat="43.40681" lon="-0.56724">
        <ele>132.8</ele>
        <time>2020-02-09T08:13:47Z</time>
      </trkpt>
      <trkpt lat="43.40674" lon="-0.56698">
        <ele>132.8</ele>
        <time>2020-02-09T08:13:51Z</time>
      </trkpt>
      <trkpt lat="43.40671" lon="-0.56692">
        <ele>132.8</ele>
        <time>2020-02-09T08:13:52Z</time>
      </trkpt>
      <trkpt lat="43.40668" lon="-0.56687">
        <ele>132.8</ele>
        <time>2020-02-09T08:13:53Z</time>
      </trkpt>
      <trkpt lat="43.40664" lon="-0.56682">
        <ele>132.32</ele>
        <time>2020-02-09T08:13:54Z</time>
      </trkpt>
      <trkpt lat="43.4066" lon="-0.56677">
        <ele>132.32</ele>
        <time>2020-02-09T08:13:55Z</time>
      </trkpt>
      <trkpt lat="43.40656" lon="-0.56673">
        <ele>132.32</ele>
        <time>2020-02-09T08:13:56Z</time>
      </trkpt>
      <trkpt lat="43.40651" lon="-0.56669">
        <ele>132.32</ele>
        <time>2020-02-09T08:13:57Z</time>
      </trkpt>
      <trkpt lat="43.40646" lon="-0.56666">
        <ele>131.84</ele>
        <time>2020-02-09T08:13:58Z</time>
      </trkpt>
      <trkpt lat="43.40587" lon="-0.56626">
        <ele>132.8</ele>
        <time>2020-02-09T08:14:11Z</time>
      </trkpt>
      <trkpt lat="43.40533" lon="-0.56549">
        <ele>132.32</ele>
        <time>2020-02-09T08:14:28Z</time>
      </trkpt>
      <trkpt lat="43.40534" lon="-0.5654">
        <ele>132.32</ele>
        <time>2020-02-09T08:14:30Z</time>
      </trkpt>
      <trkpt lat="43.40536" lon="-0.56536">
        <ele>132.32</ele>
        <time>2020-02-09T08:14:31Z</time>
      </trkpt>
      <trkpt lat="43.40539" lon="-0.56533">
        <ele>131.84</ele>
        <time>2020-02-09T08:14:32Z</time>
      </trkpt>
      <trkpt lat="43.40542" lon="-0.56532">
        <ele>131.84</ele>
        <time>2020-02-09T08:14:33Z</time>
      </trkpt>
      <trkpt lat="43.40546" lon="-0.5653">
        <ele>131.36</ele>
        <time>2020-02-09T08:14:34Z</time>
      </trkpt>
      <trkpt lat="43.4055" lon="-0.56529">
        <ele>131.36</ele>
        <time>2020-02-09T08:14:35Z</time>
      </trkpt>
      <trkpt lat="43.40595" lon="-0.56515">
        <ele>132.32</ele>
        <time>2020-02-09T08:14:50Z</time>
      </trkpt>
      <trkpt lat="43.4062" lon="-0.56495">
        <ele>131.84</ele>
        <time>2020-02-09T08:15:00Z</time>
      </trkpt>
      <trkpt lat="43.40645" lon="-0.56466">
        <ele>132.8</ele>
        <time>2020-02-09T08:15:12Z</time>
      </trkpt>
      <trkpt lat="43.40684" lon="-0.56436">
        <ele>134.24</ele>
        <time>2020-02-09T08:15:27Z</time>
      </trkpt>
      <trkpt lat="43.40723" lon="-0.56404">
        <ele>134.72</ele>
        <time>2020-02-09T08:15:43Z</time>
      </trkpt>
      <trkpt lat="43.40773" lon="-0.5636">
        <ele>135.2</ele>
        <time>2020-02-09T08:15:59Z</time>
      </trkpt>
      <trkpt lat="43.40793" lon="-0.56352">
        <ele>134.72</ele>
        <time>2020-02-09T08:16:07Z</time>
      </trkpt>
      <trkpt lat="43.40794" lon="-0.56356">
        <ele>134.72</ele>
        <time>2020-02-09T08:16:08Z</time>
      </trkpt>
      <trkpt lat="43.40807" lon="-0.56404">
        <ele>133.76</ele>
        <time>2020-02-09T08:16:20Z</time>
      </trkpt>
      <trkpt lat="43.40809" lon="-0.56409">
        <ele>133.76</ele>
        <time>2020-02-09T08:16:21Z</time>
      </trkpt>
      <trkpt lat="43.4081" lon="-0.56415">
        <ele>133.28</ele>
        <time>2020-02-09T08:16:22Z</time>
      </trkpt>
      <trkpt lat="43.40811" lon="-0.56421">
        <ele>133.28</ele>
        <time>2020-02-09T08:16:23Z</time>
      </trkpt>
      <trkpt lat="43.40812" lon="-0.56427">
        <ele>133.28</ele>
        <time>2020-02-09T08:16:24Z</time>
      </trkpt>
      <trkpt lat="43.40813" lon="-0.56432">
        <ele>133.28</ele>
        <time>2020-02-09T08:16:25Z</time>
      </trkpt>
      <trkpt lat="43.40821" lon="-0.56531">
        <ele>132.32</ele>
        <time>2020-02-09T08:16:43Z</time>
      </trkpt>
      <trkpt lat="43.40828" lon="-0.56624">
        <ele>131.36</ele>
        <time>2020-02-09T08:16:59Z</time>
      </trkpt>
      <trkpt lat="43.40831" lon="-0.56684">
        <ele>131.84</ele>
        <time>2020-02-09T08:17:08Z</time>
      </trkpt>
      <trkpt lat="43.40836" lon="-0.56731">
        <ele>131.36</ele>
        <time>2020-02-09T08:17:17Z</time>
      </trkpt>
      <trkpt lat="43.40839" lon="-0.56734">
        <ele>131.36</ele>
        <time>2020-02-09T08:17:18Z</time>
      </trkpt>
      <trkpt lat="43.40842" lon="-0.56734">
        <ele>131.36</ele>
        <time>2020-02-09T08:17:19Z</time>
      </trkpt>
      <trkpt lat="43.40845" lon="-0.56733">
        <ele>131.36</ele>
        <time>2020-02-09T08:17:20Z</time>
      </trkpt>
      <trkpt lat="43.40848" lon="-0.56733">
        <ele>131.36</ele>
        <time>2020-02-09T08:17:21Z</time>
      </trkpt>
      <trkpt lat="43.40869" lon="-0.56739">
        <ele>133.28</ele>
        <time>2020-02-09T08:17:27Z</time>
      </trkpt>
      <trkpt lat="43.40871" lon="-0.56743">
        <ele>133.28</ele>
        <time>2020-02-09T08:17:28Z</time>
      </trkpt>
      <trkpt lat="43.40874" lon="-0.56755">
        <ele>133.28</ele>
        <time>2020-02-09T08:17:30Z</time>
      </trkpt>
      <trkpt lat="43.40883" lon="-0.5679">
        <ele>133.28</ele>
        <time>2020-02-09T08:17:36Z</time>
      </trkpt>
      <trkpt lat="43.40896" lon="-0.56864">
        <ele>132.8</ele>
        <time>2020-02-09T08:17:48Z</time>
      </trkpt>
      <trkpt lat="43.40912" lon="-0.56919">
        <ele>132.8</ele>
        <time>2020-02-09T08:17:57Z</time>
      </trkpt>
      <trkpt lat="43.40936" lon="-0.57024">
        <ele>131.36</ele>
        <time>2020-02-09T08:18:13Z</time>
      </trkpt>
      <trkpt lat="43.40958" lon="-0.57115">
        <ele>130.4</ele>
        <time>2020-02-09T08:18:28Z</time>
      </trkpt>
      <trkpt lat="43.40966" lon="-0.57145">
        <ele>129.92</ele>
        <time>2020-02-09T08:18:33Z</time>
      </trkpt>
      <trkpt lat="43.40986" lon="-0.57205">
        <ele>129.92</ele>
        <time>2020-02-09T08:18:44Z</time>
      </trkpt>
      <trkpt lat="43.40988" lon="-0.5721">
        <ele>129.92</ele>
        <time>2020-02-09T08:18:45Z</time>
      </trkpt>
      <trkpt lat="43.41028" lon="-0.57268">
        <ele>130.4</ele>
        <time>2020-02-09T08:18:58Z</time>
      </trkpt>
      <trkpt lat="43.41032" lon="-0.57271">
        <ele>130.4</ele>
        <time>2020-02-09T08:18:59Z</time>
      </trkpt>
      <trkpt lat="43.41035" lon="-0.57275">
        <ele>130.4</ele>
        <time>2020-02-09T08:19:00Z</time>
      </trkpt>
      <trkpt lat="43.41039" lon="-0.57279">
        <ele>130.4</ele>
        <time>2020-02-09T08:19:01Z</time>
      </trkpt>
      <trkpt lat="43.41042" lon="-0.57283">
        <ele>130.4</ele>
        <time>2020-02-09T08:19:02Z</time>
      </trkpt>
      <trkpt lat="43.41052" lon="-0.57296">
        <ele>130.4</ele>
        <time>2020-02-09T08:19:05Z</time>
      </trkpt>
      <trkpt lat="43.41054" lon="-0.57301">
        <ele>130.4</ele>
        <time>2020-02-09T08:19:06Z</time>
      </trkpt>
      <trkpt lat="43.41056" lon="-0.57307">
        <ele>130.4</ele>
        <time>2020-02-09T08:19:07Z</time>
      </trkpt>
      <trkpt lat="43.41059" lon="-0.57318">
        <ele>129.92</ele>
        <time>2020-02-09T08:19:09Z</time>
      </trkpt>
      <trkpt lat="43.41061" lon="-0.57324">
        <ele>129.92</ele>
        <time>2020-02-09T08:19:10Z</time>
      </trkpt>
      <trkpt lat="43.41074" lon="-0.57429">
        <ele>128.47</ele>
        <time>2020-02-09T08:19:26Z</time>
      </trkpt>
      <trkpt lat="43.41076" lon="-0.57436">
        <ele>127.99</ele>
        <time>2020-02-09T08:19:27Z</time>
      </trkpt>
      <trkpt lat="43.41079" lon="-0.57454">
        <ele>127.51</ele>
        <time>2020-02-09T08:19:30Z</time>
      </trkpt>
      <trkpt lat="43.4108" lon="-0.5746">
        <ele>127.51</ele>
        <time>2020-02-09T08:19:31Z</time>
      </trkpt>
      <trkpt lat="43.41085" lon="-0.5747">
        <ele>127.51</ele>
        <time>2020-02-09T08:19:33Z</time>
      </trkpt>
      <trkpt lat="43.41105" lon="-0.57498">
        <ele>127.99</ele>
        <time>2020-02-09T08:19:39Z</time>
      </trkpt>
      <trkpt lat="43.41108" lon="-0.575">
        <ele>127.99</ele>
        <time>2020-02-09T08:19:40Z</time>
      </trkpt>
      <trkpt lat="43.41111" lon="-0.57502">
        <ele>128.47</ele>
        <time>2020-02-09T08:19:41Z</time>
      </trkpt>
      <trkpt lat="43.41114" lon="-0.57502">
        <ele>128.95</ele>
        <time>2020-02-09T08:19:42Z</time>
      </trkpt>
      <trkpt lat="43.41117" lon="-0.57502">
        <ele>128.95</ele>
        <time>2020-02-09T08:19:43Z</time>
      </trkpt>
      <trkpt lat="43.41121" lon="-0.57501">
        <ele>128.95</ele>
        <time>2020-02-09T08:19:44Z</time>
      </trkpt>
      <trkpt lat="43.41171" lon="-0.57486">
        <ele>127.99</ele>
        <time>2020-02-09T08:19:58Z</time>
      </trkpt>
      <trkpt lat="43.41245" lon="-0.57471">
        <ele>128.95</ele>
        <time>2020-02-09T08:20:17Z</time>
      </trkpt>
      <trkpt lat="43.41268" lon="-0.57477">
        <ele>129.43</ele>
        <time>2020-02-09T08:20:23Z</time>
      </trkpt>
      <trkpt lat="43.4127" lon="-0.57482">
        <ele>129.43</ele>
        <time>2020-02-09T08:20:24Z</time>
      </trkpt>
      <trkpt lat="43.41272" lon="-0.57486">
        <ele>129.43</ele>
        <time>2020-02-09T08:20:25Z</time>
      </trkpt>
      <trkpt lat="43.41272" lon="-0.57491">
        <ele>129.43</ele>
        <time>2020-02-09T08:20:26Z</time>
      </trkpt>
      <trkpt lat="43.41271" lon="-0.57496">
        <ele>129.92</ele>
        <time>2020-02-09T08:20:27Z</time>
      </trkpt>
      <trkpt lat="43.41271" lon="-0.57501">
        <ele>129.92</ele>
        <time>2020-02-09T08:20:28Z</time>
      </trkpt>
      <trkpt lat="43.41276" lon="-0.57588">
        <ele>130.4</ele>
        <time>2020-02-09T08:20:44Z</time>
      </trkpt>
      <trkpt lat="43.41282" lon="-0.57627">
        <ele>129.92</ele>
        <time>2020-02-09T08:20:51Z</time>
      </trkpt>
      <trkpt lat="43.41284" lon="-0.57632">
        <ele>129.92</ele>
        <time>2020-02-09T08:20:52Z</time>
      </trkpt>
      <trkpt lat="43.41325" lon="-0.57697">
        <ele>129.43</ele>
        <time>2020-02-09T08:21:06Z</time>
      </trkpt>
      <trkpt lat="43.41328" lon="-0.57702">
        <ele>129.43</ele>
        <time>2020-02-09T08:21:07Z</time>
      </trkpt>
      <trkpt lat="43.41334" lon="-0.57713">
        <ele>129.43</ele>
        <time>2020-02-09T08:21:09Z</time>
      </trkpt>
      <trkpt lat="43.41337" lon="-0.57718">
        <ele>128.95</ele>
        <time>2020-02-09T08:21:10Z</time>
      </trkpt>
      <trkpt lat="43.41355" lon="-0.57748">
        <ele>128.47</ele>
        <time>2020-02-09T08:21:16Z</time>
      </trkpt>
      <trkpt lat="43.41358" lon="-0.57753">
        <ele>128.47</ele>
        <time>2020-02-09T08:21:17Z</time>
      </trkpt>
      <trkpt lat="43.41361" lon="-0.57758">
        <ele>128.95</ele>
        <time>2020-02-09T08:21:18Z</time>
      </trkpt>
      <trkpt lat="43.41375" lon="-0.57775">
        <ele>128.95</ele>
        <time>2020-02-09T08:21:22Z</time>
      </trkpt>
      <trkpt lat="43.41379" lon="-0.57779">
        <ele>128.95</ele>
        <time>2020-02-09T08:21:23Z</time>
      </trkpt>
      <trkpt lat="43.414" lon="-0.57802">
        <ele>128.95</ele>
        <time>2020-02-09T08:21:29Z</time>
      </trkpt>
      <trkpt lat="43.41403" lon="-0.57807">
        <ele>128.95</ele>
        <time>2020-02-09T08:21:30Z</time>
      </trkpt>
      <trkpt lat="43.41406" lon="-0.57812">
        <ele>128.95</ele>
        <time>2020-02-09T08:21:31Z</time>
      </trkpt>
      <trkpt lat="43.41408" lon="-0.57817">
        <ele>128.95</ele>
        <time>2020-02-09T08:21:32Z</time>
      </trkpt>
      <trkpt lat="43.4141" lon="-0.57823">
        <ele>128.95</ele>
        <time>2020-02-09T08:21:33Z</time>
      </trkpt>
      <trkpt lat="43.4143" lon="-0.57886">
        <ele>129.43</ele>
        <time>2020-02-09T08:21:44Z</time>
      </trkpt>
      <trkpt lat="43.41432" lon="-0.57891">
        <ele>128.95</ele>
        <time>2020-02-09T08:21:45Z</time>
      </trkpt>
      <trkpt lat="43.41446" lon="-0.57933">
        <ele>128.95</ele>
        <time>2020-02-09T08:21:52Z</time>
      </trkpt>
      <trkpt lat="43.41448" lon="-0.57939">
        <ele>128.95</ele>
        <time>2020-02-09T08:21:53Z</time>
      </trkpt>
      <trkpt lat="43.41471" lon="-0.58014">
        <ele>128.47</ele>
        <time>2020-02-09T08:22:06Z</time>
      </trkpt>
      <trkpt lat="43.41472" lon="-0.5802">
        <ele>128.47</ele>
        <time>2020-02-09T08:22:07Z</time>
      </trkpt>
      <trkpt lat="43.41475" lon="-0.58026">
        <ele>128.47</ele>
        <time>2020-02-09T08:22:08Z</time>
      </trkpt>
      <trkpt lat="43.41477" lon="-0.58032">
        <ele>128.47</ele>
        <time>2020-02-09T08:22:09Z</time>
      </trkpt>
      <trkpt lat="43.41479" lon="-0.58039">
        <ele>128.47</ele>
        <time>2020-02-09T08:22:10Z</time>
      </trkpt>
      <trkpt lat="43.41481" lon="-0.58044">
        <ele>128.47</ele>
        <time>2020-02-09T08:22:11Z</time>
      </trkpt>
      <trkpt lat="43.41521" lon="-0.58155">
        <ele>127.99</ele>
        <time>2020-02-09T08:22:30Z</time>
      </trkpt>
      <trkpt lat="43.41538" lon="-0.58206">
        <ele>127.99</ele>
        <time>2020-02-09T08:22:39Z</time>
      </trkpt>
      <trkpt lat="43.4154" lon="-0.58212">
        <ele>127.99</ele>
        <time>2020-02-09T08:22:40Z</time>
      </trkpt>
      <trkpt lat="43.41541" lon="-0.58218">
        <ele>127.99</ele>
        <time>2020-02-09T08:22:41Z</time>
      </trkpt>
      <trkpt lat="43.41543" lon="-0.58249">
        <ele>128.47</ele>
        <time>2020-02-09T08:22:46Z</time>
      </trkpt>
      <trkpt lat="43.41545" lon="-0.5826">
        <ele>128.47</ele>
        <time>2020-02-09T08:22:48Z</time>
      </trkpt>
      <trkpt lat="43.41579" lon="-0.58361">
        <ele>127.99</ele>
        <time>2020-02-09T08:23:05Z</time>
      </trkpt>
      <trkpt lat="43.41613" lon="-0.58459">
        <ele>127.99</ele>
        <time>2020-02-09T08:23:20Z</time>
      </trkpt>
      <trkpt lat="43.41647" lon="-0.58557">
        <ele>127.03</ele>
        <time>2020-02-09T08:23:36Z</time>
      </trkpt>
      <trkpt lat="43.41655" lon="-0.58589">
        <ele>126.55</ele>
        <time>2020-02-09T08:23:41Z</time>
      </trkpt>
      <trkpt lat="43.41662" lon="-0.58643">
        <ele>126.55</ele>
        <time>2020-02-09T08:23:49Z</time>
      </trkpt>
      <trkpt lat="43.41662" lon="-0.5865">
        <ele>126.55</ele>
        <time>2020-02-09T08:23:50Z</time>
      </trkpt>
      <trkpt lat="43.41669" lon="-0.58698">
        <ele>126.55</ele>
        <time>2020-02-09T08:23:57Z</time>
      </trkpt>
      <trkpt lat="43.41672" lon="-0.58728">
        <ele>127.03</ele>
        <time>2020-02-09T08:24:01Z</time>
      </trkpt>
      <trkpt lat="43.41674" lon="-0.58734">
        <ele>127.03</ele>
        <time>2020-02-09T08:24:02Z</time>
      </trkpt>
      <trkpt lat="43.41677" lon="-0.5874">
        <ele>127.03</ele>
        <time>2020-02-09T08:24:03Z</time>
      </trkpt>
      <trkpt lat="43.41692" lon="-0.58769">
        <ele>127.03</ele>
        <time>2020-02-09T08:24:09Z</time>
      </trkpt>
      <trkpt lat="43.41694" lon="-0.58775">
        <ele>127.03</ele>
        <time>2020-02-09T08:24:10Z</time>
      </trkpt>
      <trkpt lat="43.41696" lon="-0.58781">
        <ele>126.55</ele>
        <time>2020-02-09T08:24:11Z</time>
      </trkpt>
      <trkpt lat="43.41711" lon="-0.5881">
        <ele>126.55</ele>
        <time>2020-02-09T08:24:16Z</time>
      </trkpt>
      <trkpt lat="43.41713" lon="-0.58817">
        <ele>126.55</ele>
        <time>2020-02-09T08:24:17Z</time>
      </trkpt>
      <trkpt lat="43.41715" lon="-0.58824">
        <ele>126.55</ele>
        <time>2020-02-09T08:24:18Z</time>
      </trkpt>
      <trkpt lat="43.41715" lon="-0.58831">
        <ele>126.55</ele>
        <time>2020-02-09T08:24:19Z</time>
      </trkpt>
      <trkpt lat="43.41715" lon="-0.58837">
        <ele>126.55</ele>
        <time>2020-02-09T08:24:20Z</time>
      </trkpt>
      <trkpt lat="43.41714" lon="-0.58844">
        <ele>126.55</ele>
        <time>2020-02-09T08:24:21Z</time>
      </trkpt>
      <trkpt lat="43.41712" lon="-0.5885">
        <ele>126.55</ele>
        <time>2020-02-09T08:24:22Z</time>
      </trkpt>
      <trkpt lat="43.41711" lon="-0.58857">
        <ele>126.55</ele>
        <time>2020-02-09T08:24:23Z</time>
      </trkpt>
      <trkpt lat="43.4171" lon="-0.58871">
        <ele>126.55</ele>
        <time>2020-02-09T08:24:25Z</time>
      </trkpt>
      <trkpt lat="43.41711" lon="-0.58878">
        <ele>126.55</ele>
        <time>2020-02-09T08:24:26Z</time>
      </trkpt>
      <trkpt lat="43.4172" lon="-0.58938">
        <ele>126.55</ele>
        <time>2020-02-09T08:24:35Z</time>
      </trkpt>
      <trkpt lat="43.41722" lon="-0.58943">
        <ele>126.55</ele>
        <time>2020-02-09T08:24:36Z</time>
      </trkpt>
      <trkpt lat="43.41725" lon="-0.58953">
        <ele>126.07</ele>
        <time>2020-02-09T08:24:38Z</time>
      </trkpt>
      <trkpt lat="43.41727" lon="-0.58958">
        <ele>126.07</ele>
        <time>2020-02-09T08:24:39Z</time>
      </trkpt>
      <trkpt lat="43.41764" lon="-0.59063">
        <ele>125.11</ele>
        <time>2020-02-09T08:24:58Z</time>
      </trkpt>
      <trkpt lat="43.41804" lon="-0.59176">
        <ele>124.63</ele>
        <time>2020-02-09T08:25:17Z</time>
      </trkpt>
      <trkpt lat="43.4184" lon="-0.59295">
        <ele>124.63</ele>
        <time>2020-02-09T08:25:37Z</time>
      </trkpt>
      <trkpt lat="43.41847" lon="-0.59324">
        <ele>125.11</ele>
        <time>2020-02-09T08:25:42Z</time>
      </trkpt>
      <trkpt lat="43.41849" lon="-0.59329">
        <ele>125.11</ele>
        <time>2020-02-09T08:25:43Z</time>
      </trkpt>
      <trkpt lat="43.41851" lon="-0.59334">
        <ele>125.11</ele>
        <time>2020-02-09T08:25:44Z</time>
      </trkpt>
      <trkpt lat="43.41854" lon="-0.59337">
        <ele>124.63</ele>
        <time>2020-02-09T08:25:45Z</time>
      </trkpt>
      <trkpt lat="43.41859" lon="-0.59339">
        <ele>124.63</ele>
        <time>2020-02-09T08:25:46Z</time>
      </trkpt>
      <trkpt lat="43.41864" lon="-0.5934">
        <ele>124.63</ele>
        <time>2020-02-09T08:25:47Z</time>
      </trkpt>
      <trkpt lat="43.41868" lon="-0.59338">
        <ele>124.63</ele>
        <time>2020-02-09T08:25:48Z</time>
      </trkpt>
      <trkpt lat="43.41873" lon="-0.59337">
        <ele>124.15</ele>
        <time>2020-02-09T08:25:49Z</time>
      </trkpt>
      <trkpt lat="43.41878" lon="-0.59334">
        <ele>124.15</ele>
        <time>2020-02-09T08:25:50Z</time>
      </trkpt>
      <trkpt lat="43.4195" lon="-0.59292">
        <ele>125.59</ele>
        <time>2020-02-09T08:26:03Z</time>
      </trkpt>
      <trkpt lat="43.41995" lon="-0.59268">
        <ele>127.51</ele>
        <time>2020-02-09T08:26:11Z</time>
      </trkpt>
      <trkpt lat="43.42042" lon="-0.59242">
        <ele>130.4</ele>
        <time>2020-02-09T08:26:21Z</time>
      </trkpt>
      <trkpt lat="43.42046" lon="-0.5924">
        <ele>130.4</ele>
        <time>2020-02-09T08:26:22Z</time>
      </trkpt>
      <trkpt lat="43.42049" lon="-0.59238">
        <ele>130.88</ele>
        <time>2020-02-09T08:26:23Z</time>
      </trkpt>
      <trkpt lat="43.4209" lon="-0.59218">
        <ele>132.32</ele>
        <time>2020-02-09T08:26:35Z</time>
      </trkpt>
      <trkpt lat="43.42163" lon="-0.59173">
        <ele>128.95</ele>
        <time>2020-02-09T08:26:52Z</time>
      </trkpt>
      <trkpt lat="43.42224" lon="-0.59101">
        <ele>125.59</ele>
        <time>2020-02-09T08:27:04Z</time>
      </trkpt>
      <trkpt lat="43.42257" lon="-0.59061">
        <ele>126.07</ele>
        <time>2020-02-09T08:27:11Z</time>
      </trkpt>
      <trkpt lat="43.42261" lon="-0.59056">
        <ele>126.07</ele>
        <time>2020-02-09T08:27:12Z</time>
      </trkpt>
      <trkpt lat="43.42285" lon="-0.59028">
        <ele>126.55</ele>
        <time>2020-02-09T08:27:18Z</time>
      </trkpt>
      <trkpt lat="43.42288" lon="-0.59023">
        <ele>127.03</ele>
        <time>2020-02-09T08:27:19Z</time>
      </trkpt>
      <trkpt lat="43.42292" lon="-0.59019">
        <ele>126.55</ele>
        <time>2020-02-09T08:27:20Z</time>
      </trkpt>
      <trkpt lat="43.42295" lon="-0.59014">
        <ele>126.55</ele>
        <time>2020-02-09T08:27:21Z</time>
      </trkpt>
      <trkpt lat="43.42299" lon="-0.59008">
        <ele>126.55</ele>
        <time>2020-02-09T08:27:22Z</time>
      </trkpt>
      <trkpt lat="43.42302" lon="-0.59001">
        <ele>126.07</ele>
        <time>2020-02-09T08:27:23Z</time>
      </trkpt>
      <trkpt lat="43.42334" lon="-0.58922">
        <ele>123.19</ele>
        <time>2020-02-09T08:27:35Z</time>
      </trkpt>
      <trkpt lat="43.42353" lon="-0.58898">
        <ele>123.19</ele>
        <time>2020-02-09T08:27:42Z</time>
      </trkpt>
      <trkpt lat="43.42363" lon="-0.58897">
        <ele>123.19</ele>
        <time>2020-02-09T08:27:45Z</time>
      </trkpt>
      <trkpt lat="43.42365" lon="-0.58895">
        <ele>123.67</ele>
        <time>2020-02-09T08:27:46Z</time>
      </trkpt>
      <trkpt lat="43.42367" lon="-0.58892">
        <ele>123.67</ele>
        <time>2020-02-09T08:27:47Z</time>
      </trkpt>
      <trkpt lat="43.42389" lon="-0.58843">
        <ele>121.26</ele>
        <time>2020-02-09T08:27:59Z</time>
      </trkpt>
      <trkpt lat="43.424" lon="-0.58786">
        <ele>124.15</ele>
        <time>2020-02-09T08:28:11Z</time>
      </trkpt>
      <trkpt lat="43.42392" lon="-0.5873">
        <ele>128.95</ele>
        <time>2020-02-09T08:28:23Z</time>
      </trkpt>
      <trkpt lat="43.42352" lon="-0.5867">
        <ele>130.4</ele>
        <time>2020-02-09T08:28:37Z</time>
      </trkpt>
      <trkpt lat="43.42306" lon="-0.586">
        <ele>129.43</ele>
        <time>2020-02-09T08:28:54Z</time>
      </trkpt>
      <trkpt lat="43.42305" lon="-0.58595">
        <ele>129.43</ele>
        <time>2020-02-09T08:28:55Z</time>
      </trkpt>
      <trkpt lat="43.42306" lon="-0.5859">
        <ele>129.43</ele>
        <time>2020-02-09T08:28:56Z</time>
      </trkpt>
      <trkpt lat="43.42308" lon="-0.58586">
        <ele>129.43</ele>
        <time>2020-02-09T08:28:57Z</time>
      </trkpt>
      <trkpt lat="43.42311" lon="-0.58583">
        <ele>129.43</ele>
        <time>2020-02-09T08:28:58Z</time>
      </trkpt>
      <trkpt lat="43.42314" lon="-0.58581">
        <ele>129.43</ele>
        <time>2020-02-09T08:28:59Z</time>
      </trkpt>
      <trkpt lat="43.42317" lon="-0.58579">
        <ele>128.95</ele>
        <time>2020-02-09T08:29:00Z</time>
      </trkpt>
      <trkpt lat="43.42365" lon="-0.58556">
        <ele>129.92</ele>
        <time>2020-02-09T08:29:13Z</time>
      </trkpt>
      <trkpt lat="43.42432" lon="-0.58547">
        <ele>131.36</ele>
        <time>2020-02-09T08:29:29Z</time>
      </trkpt>
      <trkpt lat="43.42492" lon="-0.58519">
        <ele>133.28</ele>
        <time>2020-02-09T08:29:45Z</time>
      </trkpt>
      <trkpt lat="43.42518" lon="-0.58506">
        <ele>133.76</ele>
        <time>2020-02-09T08:29:52Z</time>
      </trkpt>
      <trkpt lat="43.42522" lon="-0.58504">
        <ele>133.76</ele>
        <time>2020-02-09T08:29:53Z</time>
      </trkpt>
      <trkpt lat="43.42525" lon="-0.58501">
        <ele>133.76</ele>
        <time>2020-02-09T08:29:54Z</time>
      </trkpt>
      <trkpt lat="43.42529" lon="-0.58499">
        <ele>133.76</ele>
        <time>2020-02-09T08:29:55Z</time>
      </trkpt>
      <trkpt lat="43.42532" lon="-0.58497">
        <ele>134.24</ele>
        <time>2020-02-09T08:29:56Z</time>
      </trkpt>
      <trkpt lat="43.42536" lon="-0.58495">
        <ele>134.24</ele>
        <time>2020-02-09T08:29:57Z</time>
      </trkpt>
      <trkpt lat="43.42557" lon="-0.58481">
        <ele>134.24</ele>
        <time>2020-02-09T08:30:03Z</time>
      </trkpt>
      <trkpt lat="43.42611" lon="-0.58458">
        <ele>134.24</ele>
        <time>2020-02-09T08:30:17Z</time>
      </trkpt>
      <trkpt lat="43.42663" lon="-0.58436">
        <ele>138.57</ele>
        <time>2020-02-09T08:30:32Z</time>
      </trkpt>
      <trkpt lat="43.42704" lon="-0.5844">
        <ele>139.05</ele>
        <time>2020-02-09T08:30:44Z</time>
      </trkpt>
      <trkpt lat="43.42717" lon="-0.58448">
        <ele>139.05</ele>
        <time>2020-02-09T08:30:55Z</time>
      </trkpt>
      <trkpt lat="43.42719" lon="-0.58449">
        <ele>138.57</ele>
        <time>2020-02-09T08:30:58Z</time>
      </trkpt>
      <trkpt lat="43.4272" lon="-0.58448">
        <ele>138.57</ele>
        <time>2020-02-09T08:30:59Z</time>
      </trkpt>
      <trkpt lat="43.42721" lon="-0.58447">
        <ele>138.57</ele>
        <time>2020-02-09T08:31:00Z</time>
      </trkpt>
      <trkpt lat="43.42722" lon="-0.58447">
        <ele>138.09</ele>
        <time>2020-02-09T08:31:01Z</time>
      </trkpt>
      <trkpt lat="43.42727" lon="-0.58442">
        <ele>138.09</ele>
        <time>2020-02-09T08:31:06Z</time>
      </trkpt>
      <trkpt lat="43.42728" lon="-0.5844">
        <ele>138.09</ele>
        <time>2020-02-09T08:31:07Z</time>
      </trkpt>
      <trkpt lat="43.42728" lon="-0.58438">
        <ele>138.09</ele>
        <time>2020-02-09T08:31:08Z</time>
      </trkpt>
      <trkpt lat="43.42728" lon="-0.58436">
        <ele>138.09</ele>
        <time>2020-02-09T08:31:09Z</time>
      </trkpt>
      <trkpt lat="43.42728" lon="-0.58435">
        <ele>138.57</ele>
        <time>2020-02-09T08:31:10Z</time>
      </trkpt>
      <trkpt lat="43.42728" lon="-0.58431">
        <ele>140.97</ele>
        <time>2020-02-09T08:31:23Z</time>
      </trkpt>
      <trkpt lat="43.4273" lon="-0.58431">
        <ele>140.97</ele>
        <time>2020-02-09T08:31:47Z</time>
      </trkpt>
      <trkpt lat="43.42729" lon="-0.5843">
        <ele>140.97</ele>
        <time>2020-02-09T08:32:17Z</time>
      </trkpt>
      <trkpt lat="43.42719" lon="-0.58386">
        <ele>140.97</ele>
        <time>2020-02-09T08:32:29Z</time>
      </trkpt>
      <trkpt lat="43.42697" lon="-0.58291">
        <ele>140.01</ele>
        <time>2020-02-09T08:32:46Z</time>
      </trkpt>
      <trkpt lat="43.42679" lon="-0.58193">
        <ele>139.53</ele>
        <time>2020-02-09T08:33:03Z</time>
      </trkpt>
      <trkpt lat="43.42692" lon="-0.58145">
        <ele>140.49</ele>
        <time>2020-02-09T08:33:17Z</time>
      </trkpt>
      <trkpt lat="43.42694" lon="-0.58143">
        <ele>140.49</ele>
        <time>2020-02-09T08:33:18Z</time>
      </trkpt>
      <trkpt lat="43.42697" lon="-0.58143">
        <ele>140.49</ele>
        <time>2020-02-09T08:33:19Z</time>
      </trkpt>
      <trkpt lat="43.42699" lon="-0.58144">
        <ele>140.49</ele>
        <time>2020-02-09T08:33:20Z</time>
      </trkpt>
      <trkpt lat="43.42702" lon="-0.58146">
        <ele>140.97</ele>
        <time>2020-02-09T08:33:21Z</time>
      </trkpt>
      <trkpt lat="43.42704" lon="-0.58148">
        <ele>140.49</ele>
        <time>2020-02-09T08:33:22Z</time>
      </trkpt>
      <trkpt lat="43.42706" lon="-0.5815">
        <ele>140.49</ele>
        <time>2020-02-09T08:33:23Z</time>
      </trkpt>
      <trkpt lat="43.42745" lon="-0.58189">
        <ele>140.01</ele>
        <time>2020-02-09T08:33:38Z</time>
      </trkpt>
      <trkpt lat="43.42797" lon="-0.58189">
        <ele>142.41</ele>
        <time>2020-02-09T08:33:52Z</time>
      </trkpt>
      <trkpt lat="43.42851" lon="-0.58184">
        <ele>144.82</ele>
        <time>2020-02-09T08:34:07Z</time>
      </trkpt>
      <trkpt lat="43.42905" lon="-0.58182">
        <ele>149.14</ele>
        <time>2020-02-09T08:34:22Z</time>
      </trkpt>
      <trkpt lat="43.4297" lon="-0.582">
        <ele>153.95</ele>
        <time>2020-02-09T08:34:40Z</time>
      </trkpt>
      <trkpt lat="43.43028" lon="-0.5822">
        <ele>157.79</ele>
        <time>2020-02-09T08:34:57Z</time>
      </trkpt>
      <trkpt lat="43.43083" lon="-0.58237">
        <ele>161.16</ele>
        <time>2020-02-09T08:35:14Z</time>
      </trkpt>
      <trkpt lat="43.43105" lon="-0.58246">
        <ele>160.2</ele>
        <time>2020-02-09T08:35:21Z</time>
      </trkpt>
      <trkpt lat="43.43108" lon="-0.58245">
        <ele>160.2</ele>
        <time>2020-02-09T08:35:22Z</time>
      </trkpt>
      <trkpt lat="43.4311" lon="-0.58243">
        <ele>159.72</ele>
        <time>2020-02-09T08:35:23Z</time>
      </trkpt>
      <trkpt lat="43.43113" lon="-0.5824">
        <ele>159.24</ele>
        <time>2020-02-09T08:35:24Z</time>
      </trkpt>
      <trkpt lat="43.43117" lon="-0.58237">
        <ele>158.75</ele>
        <time>2020-02-09T08:35:25Z</time>
      </trkpt>
      <trkpt lat="43.4313" lon="-0.58222">
        <ele>156.83</ele>
        <time>2020-02-09T08:35:28Z</time>
      </trkpt>
      <trkpt lat="43.43134" lon="-0.58217">
        <ele>156.35</ele>
        <time>2020-02-09T08:35:29Z</time>
      </trkpt>
      <trkpt lat="43.43138" lon="-0.58212">
        <ele>155.39</ele>
        <time>2020-02-09T08:35:30Z</time>
      </trkpt>
      <trkpt lat="43.43142" lon="-0.58208">
        <ele>154.91</ele>
        <time>2020-02-09T08:35:31Z</time>
      </trkpt>
      <trkpt lat="43.43147" lon="-0.58206">
        <ele>154.43</ele>
        <time>2020-02-09T08:35:32Z</time>
      </trkpt>
      <trkpt lat="43.43152" lon="-0.58205">
        <ele>154.43</ele>
        <time>2020-02-09T08:35:33Z</time>
      </trkpt>
      <trkpt lat="43.43156" lon="-0.58205">
        <ele>153.95</ele>
        <time>2020-02-09T08:35:34Z</time>
      </trkpt>
      <trkpt lat="43.43165" lon="-0.58206">
        <ele>152.99</ele>
        <time>2020-02-09T08:35:36Z</time>
      </trkpt>
      <trkpt lat="43.43169" lon="-0.58209">
        <ele>152.99</ele>
        <time>2020-02-09T08:35:37Z</time>
      </trkpt>
      <trkpt lat="43.43187" lon="-0.58217">
        <ele>151.54</ele>
        <time>2020-02-09T08:35:40Z</time>
      </trkpt>
      <trkpt lat="43.43192" lon="-0.58218">
        <ele>151.54</ele>
        <time>2020-02-09T08:35:41Z</time>
      </trkpt>
      <trkpt lat="43.43198" lon="-0.58218">
        <ele>151.06</ele>
        <time>2020-02-09T08:35:42Z</time>
      </trkpt>
      <trkpt lat="43.43204" lon="-0.58217">
        <ele>150.58</ele>
        <time>2020-02-09T08:35:43Z</time>
      </trkpt>
      <trkpt lat="43.43209" lon="-0.58214">
        <ele>150.1</ele>
        <time>2020-02-09T08:35:44Z</time>
      </trkpt>
      <trkpt lat="43.43213" lon="-0.5821">
        <ele>149.62</ele>
        <time>2020-02-09T08:35:45Z</time>
      </trkpt>
      <trkpt lat="43.43215" lon="-0.58204">
        <ele>149.14</ele>
        <time>2020-02-09T08:35:46Z</time>
      </trkpt>
      <trkpt lat="43.43217" lon="-0.58197">
        <ele>148.66</ele>
        <time>2020-02-09T08:35:47Z</time>
      </trkpt>
      <trkpt lat="43.43219" lon="-0.58185">
        <ele>147.7</ele>
        <time>2020-02-09T08:35:49Z</time>
      </trkpt>
      <trkpt lat="43.4322" lon="-0.58179">
        <ele>147.22</ele>
        <time>2020-02-09T08:35:50Z</time>
      </trkpt>
      <trkpt lat="43.43223" lon="-0.58174">
        <ele>146.74</ele>
        <time>2020-02-09T08:35:51Z</time>
      </trkpt>
      <trkpt lat="43.43227" lon="-0.5817">
        <ele>146.74</ele>
        <time>2020-02-09T08:35:52Z</time>
      </trkpt>
      <trkpt lat="43.43231" lon="-0.58168">
        <ele>146.26</ele>
        <time>2020-02-09T08:35:53Z</time>
      </trkpt>
      <trkpt lat="43.43236" lon="-0.58168">
        <ele>145.78</ele>
        <time>2020-02-09T08:35:54Z</time>
      </trkpt>
      <trkpt lat="43.4324" lon="-0.58168">
        <ele>145.3</ele>
        <time>2020-02-09T08:35:55Z</time>
      </trkpt>
      <trkpt lat="43.43275" lon="-0.58189">
        <ele>139.05</ele>
        <time>2020-02-09T08:36:05Z</time>
      </trkpt>
      <trkpt lat="43.43292" lon="-0.58224">
        <ele>132.8</ele>
        <time>2020-02-09T08:36:13Z</time>
      </trkpt>
      <trkpt lat="43.43294" lon="-0.5823">
        <ele>131.84</ele>
        <time>2020-02-09T08:36:14Z</time>
      </trkpt>
      <trkpt lat="43.43296" lon="-0.58235">
        <ele>131.36</ele>
        <time>2020-02-09T08:36:15Z</time>
      </trkpt>
      <trkpt lat="43.43298" lon="-0.5824">
        <ele>130.4</ele>
        <time>2020-02-09T08:36:16Z</time>
      </trkpt>
      <trkpt lat="43.43301" lon="-0.58246">
        <ele>129.92</ele>
        <time>2020-02-09T08:36:17Z</time>
      </trkpt>
      <trkpt lat="43.43303" lon="-0.5825">
        <ele>129.43</ele>
        <time>2020-02-09T08:36:18Z</time>
      </trkpt>
      <trkpt lat="43.43305" lon="-0.58255">
        <ele>128.95</ele>
        <time>2020-02-09T08:36:19Z</time>
      </trkpt>
      <trkpt lat="43.43311" lon="-0.58266">
        <ele>127.51</ele>
        <time>2020-02-09T08:36:22Z</time>
      </trkpt>
      <trkpt lat="43.43315" lon="-0.58269">
        <ele>127.51</ele>
        <time>2020-02-09T08:36:23Z</time>
      </trkpt>
      <trkpt lat="43.4335" lon="-0.58306">
        <ele>127.03</ele>
        <time>2020-02-09T08:36:31Z</time>
      </trkpt>
      <trkpt lat="43.43356" lon="-0.5831">
        <ele>127.03</ele>
        <time>2020-02-09T08:36:32Z</time>
      </trkpt>
      <trkpt lat="43.43362" lon="-0.58313">
        <ele>127.51</ele>
        <time>2020-02-09T08:36:33Z</time>
      </trkpt>
      <trkpt lat="43.43366" lon="-0.58316">
        <ele>127.51</ele>
        <time>2020-02-09T08:36:34Z</time>
      </trkpt>
      <trkpt lat="43.43371" lon="-0.58319">
        <ele>127.51</ele>
        <time>2020-02-09T08:36:35Z</time>
      </trkpt>
      <trkpt lat="43.43376" lon="-0.58321">
        <ele>127.99</ele>
        <time>2020-02-09T08:36:36Z</time>
      </trkpt>
      <trkpt lat="43.43381" lon="-0.58323">
        <ele>127.99</ele>
        <time>2020-02-09T08:36:37Z</time>
      </trkpt>
      <trkpt lat="43.43398" lon="-0.58331">
        <ele>129.92</ele>
        <time>2020-02-09T08:36:41Z</time>
      </trkpt>
      <trkpt lat="43.43402" lon="-0.58334">
        <ele>130.4</ele>
        <time>2020-02-09T08:36:42Z</time>
      </trkpt>
      <trkpt lat="43.43405" lon="-0.58336">
        <ele>130.88</ele>
        <time>2020-02-09T08:36:43Z</time>
      </trkpt>
      <trkpt lat="43.43408" lon="-0.58337">
        <ele>131.36</ele>
        <time>2020-02-09T08:36:44Z</time>
      </trkpt>
      <trkpt lat="43.43413" lon="-0.58338">
        <ele>130.88</ele>
        <time>2020-02-09T08:36:45Z</time>
      </trkpt>
      <trkpt lat="43.43417" lon="-0.58339">
        <ele>129.92</ele>
        <time>2020-02-09T08:36:46Z</time>
      </trkpt>
      <trkpt lat="43.43459" lon="-0.58357">
        <ele>125.59</ele>
        <time>2020-02-09T08:36:58Z</time>
      </trkpt>
      <trkpt lat="43.43511" lon="-0.58379">
        <ele>125.11</ele>
        <time>2020-02-09T08:37:10Z</time>
      </trkpt>
      <trkpt lat="43.4358" lon="-0.58412">
        <ele>123.67</ele>
        <time>2020-02-09T08:37:24Z</time>
      </trkpt>
      <trkpt lat="43.43667" lon="-0.58453">
        <ele>123.19</ele>
        <time>2020-02-09T08:37:42Z</time>
      </trkpt>
      <trkpt lat="43.43733" lon="-0.58487">
        <ele>125.11</ele>
        <time>2020-02-09T08:37:56Z</time>
      </trkpt>
      <trkpt lat="43.43788" lon="-0.58513">
        <ele>127.03</ele>
        <time>2020-02-09T08:38:10Z</time>
      </trkpt>
      <trkpt lat="43.43799" lon="-0.58518">
        <ele>127.03</ele>
        <time>2020-02-09T08:38:20Z</time>
      </trkpt>
      <trkpt lat="43.43801" lon="-0.58516">
        <ele>126.55</ele>
        <time>2020-02-09T08:38:26Z</time>
      </trkpt>
      <trkpt lat="43.43802" lon="-0.58515">
        <ele>126.55</ele>
        <time>2020-02-09T08:38:27Z</time>
      </trkpt>
      <trkpt lat="43.43802" lon="-0.58514">
        <ele>126.55</ele>
        <time>2020-02-09T08:38:28Z</time>
      </trkpt>
      <trkpt lat="43.43803" lon="-0.58512">
        <ele>127.03</ele>
        <time>2020-02-09T08:38:29Z</time>
      </trkpt>
      <trkpt lat="43.43804" lon="-0.58509">
        <ele>127.03</ele>
        <time>2020-02-09T08:38:30Z</time>
      </trkpt>
      <trkpt lat="43.43805" lon="-0.58507">
        <ele>127.03</ele>
        <time>2020-02-09T08:38:31Z</time>
      </trkpt>
      <trkpt lat="43.43807" lon="-0.58505">
        <ele>127.03</ele>
        <time>2020-02-09T08:38:32Z</time>
      </trkpt>
      <trkpt lat="43.43841" lon="-0.58462">
        <ele>127.99</ele>
        <time>2020-02-09T08:38:45Z</time>
      </trkpt>
      <trkpt lat="43.43911" lon="-0.58402">
        <ele>128.95</ele>
        <time>2020-02-09T08:39:03Z</time>
      </trkpt>
      <trkpt lat="43.43967" lon="-0.58358">
        <ele>130.4</ele>
        <time>2020-02-09T08:39:19Z</time>
      </trkpt>
      <trkpt lat="43.43969" lon="-0.58355">
        <ele>130.88</ele>
        <time>2020-02-09T08:39:20Z</time>
      </trkpt>
      <trkpt lat="43.4397" lon="-0.58351">
        <ele>130.88</ele>
        <time>2020-02-09T08:39:21Z</time>
      </trkpt>
      <trkpt lat="43.4397" lon="-0.58348">
        <ele>131.36</ele>
        <time>2020-02-09T08:39:22Z</time>
      </trkpt>
      <trkpt lat="43.43969" lon="-0.58344">
        <ele>131.36</ele>
        <time>2020-02-09T08:39:23Z</time>
      </trkpt>
      <trkpt lat="43.43968" lon="-0.58339">
        <ele>131.36</ele>
        <time>2020-02-09T08:39:24Z</time>
      </trkpt>
      <trkpt lat="43.43967" lon="-0.58335">
        <ele>131.84</ele>
        <time>2020-02-09T08:39:25Z</time>
      </trkpt>
      <trkpt lat="43.43966" lon="-0.5833">
        <ele>131.84</ele>
        <time>2020-02-09T08:39:26Z</time>
      </trkpt>
      <trkpt lat="43.43965" lon="-0.58325">
        <ele>131.84</ele>
        <time>2020-02-09T08:39:27Z</time>
      </trkpt>
      <trkpt lat="43.43963" lon="-0.58319">
        <ele>132.32</ele>
        <time>2020-02-09T08:39:28Z</time>
      </trkpt>
      <trkpt lat="43.43959" lon="-0.58308">
        <ele>132.32</ele>
        <time>2020-02-09T08:39:30Z</time>
      </trkpt>
      <trkpt lat="43.43957" lon="-0.58302">
        <ele>132.32</ele>
        <time>2020-02-09T08:39:31Z</time>
      </trkpt>
      <trkpt lat="43.43955" lon="-0.58297">
        <ele>132.32</ele>
        <time>2020-02-09T08:39:32Z</time>
      </trkpt>
      <trkpt lat="43.43953" lon="-0.58292">
        <ele>131.84</ele>
        <time>2020-02-09T08:39:33Z</time>
      </trkpt>
      <trkpt lat="43.43951" lon="-0.58286">
        <ele>131.36</ele>
        <time>2020-02-09T08:39:34Z</time>
      </trkpt>
      <trkpt lat="43.43943" lon="-0.58271">
        <ele>130.4</ele>
        <time>2020-02-09T08:39:37Z</time>
      </trkpt>
      <trkpt lat="43.43938" lon="-0.58262">
        <ele>130.88</ele>
        <time>2020-02-09T08:39:39Z</time>
      </trkpt>
      <trkpt lat="43.43936" lon="-0.58256">
        <ele>130.88</ele>
        <time>2020-02-09T08:39:40Z</time>
      </trkpt>
      <trkpt lat="43.43921" lon="-0.58223">
        <ele>130.88</ele>
        <time>2020-02-09T08:39:47Z</time>
      </trkpt>
      <trkpt lat="43.43918" lon="-0.58218">
        <ele>130.88</ele>
        <time>2020-02-09T08:39:48Z</time>
      </trkpt>
      <trkpt lat="43.43915" lon="-0.58213">
        <ele>130.88</ele>
        <time>2020-02-09T08:39:49Z</time>
      </trkpt>
      <trkpt lat="43.43885" lon="-0.58142">
        <ele>131.36</ele>
        <time>2020-02-09T08:40:03Z</time>
      </trkpt>
      <trkpt lat="43.43848" lon="-0.58059">
        <ele>132.32</ele>
        <time>2020-02-09T08:40:19Z</time>
      </trkpt>
      <trkpt lat="43.43804" lon="-0.57966">
        <ele>135.2</ele>
        <time>2020-02-09T08:40:39Z</time>
      </trkpt>
      <trkpt lat="43.43796" lon="-0.57952">
        <ele>136.16</ele>
        <time>2020-02-09T08:40:42Z</time>
      </trkpt>
      <trkpt lat="43.43789" lon="-0.57935">
        <ele>137.61</ele>
        <time>2020-02-09T08:40:45Z</time>
      </trkpt>
      <trkpt lat="43.43787" lon="-0.5793">
        <ele>137.61</ele>
        <time>2020-02-09T08:40:46Z</time>
      </trkpt>
      <trkpt lat="43.43786" lon="-0.57925">
        <ele>137.61</ele>
        <time>2020-02-09T08:40:47Z</time>
      </trkpt>
      <trkpt lat="43.43785" lon="-0.5792">
        <ele>137.61</ele>
        <time>2020-02-09T08:40:48Z</time>
      </trkpt>
      <trkpt lat="43.43785" lon="-0.57914">
        <ele>137.61</ele>
        <time>2020-02-09T08:40:49Z</time>
      </trkpt>
      <trkpt lat="43.43781" lon="-0.57852">
        <ele>136.64</ele>
        <time>2020-02-09T08:41:01Z</time>
      </trkpt>
      <trkpt lat="43.43772" lon="-0.57821">
        <ele>137.61</ele>
        <time>2020-02-09T08:41:07Z</time>
      </trkpt>
      <trkpt lat="43.4377" lon="-0.57816">
        <ele>137.61</ele>
        <time>2020-02-09T08:41:08Z</time>
      </trkpt>
      <trkpt lat="43.43768" lon="-0.57811">
        <ele>137.61</ele>
        <time>2020-02-09T08:41:09Z</time>
      </trkpt>
      <trkpt lat="43.43739" lon="-0.57751">
        <ele>137.13</ele>
        <time>2020-02-09T08:41:21Z</time>
      </trkpt>
      <trkpt lat="43.43721" lon="-0.57675">
        <ele>137.13</ele>
        <time>2020-02-09T08:41:34Z</time>
      </trkpt>
      <trkpt lat="43.43721" lon="-0.5767">
        <ele>137.13</ele>
        <time>2020-02-09T08:41:35Z</time>
      </trkpt>
      <trkpt lat="43.43722" lon="-0.57663">
        <ele>136.64</ele>
        <time>2020-02-09T08:41:36Z</time>
      </trkpt>
      <trkpt lat="43.43724" lon="-0.57658">
        <ele>136.64</ele>
        <time>2020-02-09T08:41:37Z</time>
      </trkpt>
      <trkpt lat="43.43753" lon="-0.57579">
        <ele>135.68</ele>
        <time>2020-02-09T08:41:53Z</time>
      </trkpt>
      <trkpt lat="43.43778" lon="-0.57516">
        <ele>137.13</ele>
        <time>2020-02-09T08:42:07Z</time>
      </trkpt>
      <trkpt lat="43.43804" lon="-0.57452">
        <ele>138.57</ele>
        <time>2020-02-09T08:42:23Z</time>
      </trkpt>
      <trkpt lat="43.43835" lon="-0.57409">
        <ele>142.89</ele>
        <time>2020-02-09T08:42:37Z</time>
      </trkpt>
      <trkpt lat="43.43865" lon="-0.57375">
        <ele>147.22</ele>
        <time>2020-02-09T08:42:50Z</time>
      </trkpt>
      <trkpt lat="43.4387" lon="-0.57363">
        <ele>149.14</ele>
        <time>2020-02-09T08:42:55Z</time>
      </trkpt>
      <trkpt lat="43.43869" lon="-0.57359">
        <ele>148.66</ele>
        <time>2020-02-09T08:42:56Z</time>
      </trkpt>
      <trkpt lat="43.43868" lon="-0.57356">
        <ele>148.66</ele>
        <time>2020-02-09T08:42:57Z</time>
      </trkpt>
      <trkpt lat="43.43866" lon="-0.57352">
        <ele>148.66</ele>
        <time>2020-02-09T08:42:58Z</time>
      </trkpt>
      <trkpt lat="43.43863" lon="-0.57348">
        <ele>148.66</ele>
        <time>2020-02-09T08:42:59Z</time>
      </trkpt>
      <trkpt lat="43.4383" lon="-0.57273">
        <ele>147.7</ele>
        <time>2020-02-09T08:43:12Z</time>
      </trkpt>
      <trkpt lat="43.43827" lon="-0.57268">
        <ele>147.7</ele>
        <time>2020-02-09T08:43:13Z</time>
      </trkpt>
      <trkpt lat="43.43813" lon="-0.57245">
        <ele>147.22</ele>
        <time>2020-02-09T08:43:23Z</time>
      </trkpt>
      <trkpt lat="43.43795" lon="-0.57219">
        <ele>145.78</ele>
        <time>2020-02-09T08:43:36Z</time>
      </trkpt>
      <trkpt lat="43.43787" lon="-0.57209">
        <ele>145.3</ele>
        <time>2020-02-09T08:43:49Z</time>
      </trkpt>
      <trkpt lat="43.43786" lon="-0.57209">
        <ele>145.3</ele>
        <time>2020-02-09T08:43:50Z</time>
      </trkpt>
      <trkpt lat="43.43784" lon="-0.57207">
        <ele>145.3</ele>
        <time>2020-02-09T08:43:51Z</time>
      </trkpt>
      <trkpt lat="43.43782" lon="-0.57204">
        <ele>145.3</ele>
        <time>2020-02-09T08:43:52Z</time>
      </trkpt>
      <trkpt lat="43.43779" lon="-0.57201">
        <ele>145.3</ele>
        <time>2020-02-09T08:43:53Z</time>
      </trkpt>
      <trkpt lat="43.43777" lon="-0.57197">
        <ele>145.78</ele>
        <time>2020-02-09T08:43:54Z</time>
      </trkpt>
      <trkpt lat="43.43774" lon="-0.57194">
        <ele>145.78</ele>
        <time>2020-02-09T08:43:55Z</time>
      </trkpt>
      <trkpt lat="43.43745" lon="-0.57131">
        <ele>148.66</ele>
        <time>2020-02-09T08:44:11Z</time>
      </trkpt>
      <trkpt lat="43.43722" lon="-0.57083">
        <ele>153.47</ele>
        <time>2020-02-09T08:44:23Z</time>
      </trkpt>
      <trkpt lat="43.43706" lon="-0.57028">
        <ele>156.83</ele>
        <time>2020-02-09T08:44:36Z</time>
      </trkpt>
      <trkpt lat="43.43705" lon="-0.56971">
        <ele>162.6</ele>
        <time>2020-02-09T08:44:49Z</time>
      </trkpt>
      <trkpt lat="43.4371" lon="-0.56933">
        <ele>165.96</ele>
        <time>2020-02-09T08:44:58Z</time>
      </trkpt>
      <trkpt lat="43.43709" lon="-0.56926">
        <ele>165.96</ele>
        <time>2020-02-09T08:44:59Z</time>
      </trkpt>
      <trkpt lat="43.43707" lon="-0.56921">
        <ele>165.96</ele>
        <time>2020-02-09T08:45:00Z</time>
      </trkpt>
      <trkpt lat="43.43706" lon="-0.56916">
        <ele>165.96</ele>
        <time>2020-02-09T08:45:01Z</time>
      </trkpt>
      <trkpt lat="43.43704" lon="-0.56911">
        <ele>166.45</ele>
        <time>2020-02-09T08:45:02Z</time>
      </trkpt>
      <trkpt lat="43.43702" lon="-0.56906">
        <ele>166.45</ele>
        <time>2020-02-09T08:45:03Z</time>
      </trkpt>
      <trkpt lat="43.437" lon="-0.56901">
        <ele>166.93</ele>
        <time>2020-02-09T08:45:04Z</time>
      </trkpt>
      <trkpt lat="43.43679" lon="-0.5686">
        <ele>174.14</ele>
        <time>2020-02-09T08:45:14Z</time>
      </trkpt>
      <trkpt lat="43.43664" lon="-0.56822">
        <ele>181.83</ele>
        <time>2020-02-09T08:45:24Z</time>
      </trkpt>
      <trkpt lat="43.43665" lon="-0.5682">
        <ele>182.79</ele>
        <time>2020-02-09T08:45:25Z</time>
      </trkpt>
      <trkpt lat="43.43666" lon="-0.56819">
        <ele>183.27</ele>
        <time>2020-02-09T08:45:26Z</time>
      </trkpt>
      <trkpt lat="43.43667" lon="-0.56819">
        <ele>183.75</ele>
        <time>2020-02-09T08:45:27Z</time>
      </trkpt>
      <trkpt lat="43.43668" lon="-0.56819">
        <ele>184.23</ele>
        <time>2020-02-09T08:45:28Z</time>
      </trkpt>
      <trkpt lat="43.4367" lon="-0.56819">
        <ele>184.71</ele>
        <time>2020-02-09T08:45:29Z</time>
      </trkpt>
      <trkpt lat="43.43671" lon="-0.56819">
        <ele>185.67</ele>
        <time>2020-02-09T08:45:30Z</time>
      </trkpt>
      <trkpt lat="43.43673" lon="-0.5682">
        <ele>186.15</ele>
        <time>2020-02-09T08:45:31Z</time>
      </trkpt>
      <trkpt lat="43.43675" lon="-0.56821">
        <ele>186.63</ele>
        <time>2020-02-09T08:45:32Z</time>
      </trkpt>
      <trkpt lat="43.43677" lon="-0.56823">
        <ele>186.63</ele>
        <time>2020-02-09T08:45:33Z</time>
      </trkpt>
      <trkpt lat="43.4368" lon="-0.56824">
        <ele>186.63</ele>
        <time>2020-02-09T08:45:34Z</time>
      </trkpt>
      <trkpt lat="43.43705" lon="-0.56833">
        <ele>184.71</ele>
        <time>2020-02-09T08:45:45Z</time>
      </trkpt>
      <trkpt lat="43.43725" lon="-0.56838">
        <ele>184.23</ele>
        <time>2020-02-09T08:45:57Z</time>
      </trkpt>
      <trkpt lat="43.43731" lon="-0.56839">
        <ele>185.19</ele>
        <time>2020-02-09T08:46:00Z</time>
      </trkpt>
      <trkpt lat="43.43733" lon="-0.5684">
        <ele>185.67</ele>
        <time>2020-02-09T08:46:01Z</time>
      </trkpt>
      <trkpt lat="43.4375" lon="-0.56843">
        <ele>187.59</ele>
        <time>2020-02-09T08:46:12Z</time>
      </trkpt>
      <trkpt lat="43.43772" lon="-0.56844">
        <ele>187.59</ele>
        <time>2020-02-09T08:46:25Z</time>
      </trkpt>
      <trkpt lat="43.43784" lon="-0.5686">
        <ele>188.56</ele>
        <time>2020-02-09T08:46:37Z</time>
      </trkpt>
      <trkpt lat="43.43799" lon="-0.56886">
        <ele>189.52</ele>
        <time>2020-02-09T08:46:50Z</time>
      </trkpt>
      <trkpt lat="43.43818" lon="-0.56913">
        <ele>187.11</ele>
        <time>2020-02-09T08:47:04Z</time>
      </trkpt>
      <trkpt lat="43.43829" lon="-0.56921">
        <ele>187.59</ele>
        <time>2020-02-09T08:47:09Z</time>
      </trkpt>
      <trkpt lat="43.43831" lon="-0.56922">
        <ele>188.08</ele>
        <time>2020-02-09T08:47:10Z</time>
      </trkpt>
      <trkpt lat="43.43834" lon="-0.56922">
        <ele>188.08</ele>
        <time>2020-02-09T08:47:11Z</time>
      </trkpt>
      <trkpt lat="43.43837" lon="-0.56923">
        <ele>188.08</ele>
        <time>2020-02-09T08:47:12Z</time>
      </trkpt>
      <trkpt lat="43.4384" lon="-0.56924">
        <ele>188.08</ele>
        <time>2020-02-09T08:47:13Z</time>
      </trkpt>
      <trkpt lat="43.43842" lon="-0.56924">
        <ele>188.08</ele>
        <time>2020-02-09T08:47:14Z</time>
      </trkpt>
      <trkpt lat="43.43844" lon="-0.56924">
        <ele>188.08</ele>
        <time>2020-02-09T08:47:15Z</time>
      </trkpt>
      <trkpt lat="43.43847" lon="-0.56925">
        <ele>188.08</ele>
        <time>2020-02-09T08:47:16Z</time>
      </trkpt>
      <trkpt lat="43.4385" lon="-0.56927">
        <ele>188.08</ele>
        <time>2020-02-09T08:47:17Z</time>
      </trkpt>
      <trkpt lat="43.43874" lon="-0.56934">
        <ele>189.52</ele>
        <time>2020-02-09T08:47:27Z</time>
      </trkpt>
      <trkpt lat="43.439" lon="-0.56941">
        <ele>193.36</ele>
        <time>2020-02-09T08:47:38Z</time>
      </trkpt>
      <trkpt lat="43.43902" lon="-0.56928">
        <ele>194.8</ele>
        <time>2020-02-09T08:47:46Z</time>
      </trkpt>
      <trkpt lat="43.4391" lon="-0.56911">
        <ele>197.21</ele>
        <time>2020-02-09T08:47:56Z</time>
      </trkpt>
      <trkpt lat="43.43913" lon="-0.56906">
        <ele>197.21</ele>
        <time>2020-02-09T08:47:59Z</time>
      </trkpt>
      <trkpt lat="43.43932" lon="-0.56884">
        <ele>200.57</ele>
        <time>2020-02-09T08:48:13Z</time>
      </trkpt>
      <trkpt lat="43.43945" lon="-0.56867">
        <ele>202.49</ele>
        <time>2020-02-09T08:48:25Z</time>
      </trkpt>
      <trkpt lat="43.43957" lon="-0.56858">
        <ele>202.98</ele>
        <time>2020-02-09T08:48:34Z</time>
      </trkpt>
      <trkpt lat="43.4396" lon="-0.56851">
        <ele>203.94</ele>
        <time>2020-02-09T08:48:39Z</time>
      </trkpt>
      <trkpt lat="43.43958" lon="-0.56842">
        <ele>204.9</ele>
        <time>2020-02-09T08:48:44Z</time>
      </trkpt>
      <trkpt lat="43.43956" lon="-0.56834">
        <ele>205.86</ele>
        <time>2020-02-09T08:48:48Z</time>
      </trkpt>
      <trkpt lat="43.43956" lon="-0.56831">
        <ele>205.86</ele>
        <time>2020-02-09T08:48:50Z</time>
      </trkpt>
      <trkpt lat="43.43954" lon="-0.56825">
        <ele>205.38</ele>
        <time>2020-02-09T08:48:53Z</time>
      </trkpt>
      <trkpt lat="43.43952" lon="-0.56822">
        <ele>205.38</ele>
        <time>2020-02-09T08:48:55Z</time>
      </trkpt>
      <trkpt lat="43.43943" lon="-0.56802">
        <ele>210.19</ele>
        <time>2020-02-09T08:49:06Z</time>
      </trkpt>
      <trkpt lat="43.43938" lon="-0.56792">
        <ele>211.63</ele>
        <time>2020-02-09T08:49:12Z</time>
      </trkpt>
      <trkpt lat="43.43933" lon="-0.56782">
        <ele>211.15</ele>
        <time>2020-02-09T08:49:17Z</time>
      </trkpt>
      <trkpt lat="43.43931" lon="-0.56773">
        <ele>212.11</ele>
        <time>2020-02-09T08:49:22Z</time>
      </trkpt>
      <trkpt lat="43.43925" lon="-0.56748">
        <ele>217.88</ele>
        <time>2020-02-09T08:49:36Z</time>
      </trkpt>
      <trkpt lat="43.43922" lon="-0.56735">
        <ele>217.88</ele>
        <time>2020-02-09T08:49:43Z</time>
      </trkpt>
      <trkpt lat="43.43913" lon="-0.56716">
        <ele>219.32</ele>
        <time>2020-02-09T08:49:53Z</time>
      </trkpt>
      <trkpt lat="43.43911" lon="-0.56709">
        <ele>219.32</ele>
        <time>2020-02-09T08:49:57Z</time>
      </trkpt>
      <trkpt lat="43.43906" lon="-0.56694">
        <ele>218.84</ele>
        <time>2020-02-09T08:50:04Z</time>
      </trkpt>
      <trkpt lat="43.43896" lon="-0.56666">
        <ele>223.16</ele>
        <time>2020-02-09T08:50:17Z</time>
      </trkpt>
      <trkpt lat="43.43895" lon="-0.56663">
        <ele>223.64</ele>
        <time>2020-02-09T08:50:18Z</time>
      </trkpt>
      <trkpt lat="43.43894" lon="-0.56661">
        <ele>223.64</ele>
        <time>2020-02-09T08:50:19Z</time>
      </trkpt>
      <trkpt lat="43.43893" lon="-0.56658">
        <ele>224.12</ele>
        <time>2020-02-09T08:50:20Z</time>
      </trkpt>
      <trkpt lat="43.43892" lon="-0.56656">
        <ele>224.61</ele>
        <time>2020-02-09T08:50:21Z</time>
      </trkpt>
      <trkpt lat="43.43891" lon="-0.56654">
        <ele>224.61</ele>
        <time>2020-02-09T08:50:22Z</time>
      </trkpt>
      <trkpt lat="43.4389" lon="-0.56651">
        <ele>225.09</ele>
        <time>2020-02-09T08:50:23Z</time>
      </trkpt>
      <trkpt lat="43.43888" lon="-0.56646">
        <ele>226.05</ele>
        <time>2020-02-09T08:50:25Z</time>
      </trkpt>
      <trkpt lat="43.43887" lon="-0.56644">
        <ele>226.05</ele>
        <time>2020-02-09T08:50:26Z</time>
      </trkpt>
      <trkpt lat="43.43887" lon="-0.56642">
        <ele>226.05</ele>
        <time>2020-02-09T08:50:27Z</time>
      </trkpt>
      <trkpt lat="43.43886" lon="-0.56639">
        <ele>226.05</ele>
        <time>2020-02-09T08:50:28Z</time>
      </trkpt>
      <trkpt lat="43.43885" lon="-0.56637">
        <ele>225.57</ele>
        <time>2020-02-09T08:50:29Z</time>
      </trkpt>
      <trkpt lat="43.43884" lon="-0.56634">
        <ele>225.09</ele>
        <time>2020-02-09T08:50:30Z</time>
      </trkpt>
      <trkpt lat="43.43883" lon="-0.56631">
        <ele>224.61</ele>
        <time>2020-02-09T08:50:31Z</time>
      </trkpt>
      <trkpt lat="43.43873" lon="-0.56602">
        <ele>226.05</ele>
        <time>2020-02-09T08:50:41Z</time>
      </trkpt>
      <trkpt lat="43.4386" lon="-0.5657">
        <ele>231.33</ele>
        <time>2020-02-09T08:50:52Z</time>
      </trkpt>
      <trkpt lat="43.43845" lon="-0.56526">
        <ele>234.22</ele>
        <time>2020-02-09T08:51:06Z</time>
      </trkpt>
      <trkpt lat="43.43831" lon="-0.56487">
        <ele>237.58</ele>
        <time>2020-02-09T08:51:17Z</time>
      </trkpt>
      <trkpt lat="43.43826" lon="-0.56469">
        <ele>237.58</ele>
        <time>2020-02-09T08:51:22Z</time>
      </trkpt>
      <trkpt lat="43.43824" lon="-0.56466">
        <ele>238.06</ele>
        <time>2020-02-09T08:51:23Z</time>
      </trkpt>
      <trkpt lat="43.43823" lon="-0.56463">
        <ele>238.06</ele>
        <time>2020-02-09T08:51:24Z</time>
      </trkpt>
      <trkpt lat="43.43822" lon="-0.5646">
        <ele>238.06</ele>
        <time>2020-02-09T08:51:25Z</time>
      </trkpt>
      <trkpt lat="43.4382" lon="-0.56458">
        <ele>238.06</ele>
        <time>2020-02-09T08:51:26Z</time>
      </trkpt>
      <trkpt lat="43.43819" lon="-0.56455">
        <ele>238.06</ele>
        <time>2020-02-09T08:51:27Z</time>
      </trkpt>
      <trkpt lat="43.43818" lon="-0.56452">
        <ele>237.58</ele>
        <time>2020-02-09T08:51:28Z</time>
      </trkpt>
      <trkpt lat="43.43809" lon="-0.56422">
        <ele>234.7</ele>
        <time>2020-02-09T08:51:38Z</time>
      </trkpt>
      <trkpt lat="43.43808" lon="-0.56419">
        <ele>234.7</ele>
        <time>2020-02-09T08:51:39Z</time>
      </trkpt>
      <trkpt lat="43.43807" lon="-0.56416">
        <ele>234.7</ele>
        <time>2020-02-09T08:51:40Z</time>
      </trkpt>
      <trkpt lat="43.43798" lon="-0.56392">
        <ele>235.18</ele>
        <time>2020-02-09T08:51:46Z</time>
      </trkpt>
      <trkpt lat="43.43785" lon="-0.56373">
        <ele>234.7</ele>
        <time>2020-02-09T08:51:50Z</time>
      </trkpt>
      <trkpt lat="43.43782" lon="-0.56366">
        <ele>234.22</ele>
        <time>2020-02-09T08:51:51Z</time>
      </trkpt>
      <trkpt lat="43.43779" lon="-0.56359">
        <ele>233.74</ele>
        <time>2020-02-09T08:51:52Z</time>
      </trkpt>
      <trkpt lat="43.43776" lon="-0.56352">
        <ele>233.74</ele>
        <time>2020-02-09T08:51:53Z</time>
      </trkpt>
      <trkpt lat="43.43773" lon="-0.56345">
        <ele>233.26</ele>
        <time>2020-02-09T08:51:54Z</time>
      </trkpt>
      <trkpt lat="43.43771" lon="-0.56338">
        <ele>233.26</ele>
        <time>2020-02-09T08:51:55Z</time>
      </trkpt>
      <trkpt lat="43.43768" lon="-0.56332">
        <ele>232.78</ele>
        <time>2020-02-09T08:51:56Z</time>
      </trkpt>
      <trkpt lat="43.43764" lon="-0.56326">
        <ele>232.3</ele>
        <time>2020-02-09T08:51:57Z</time>
      </trkpt>
      <trkpt lat="43.4376" lon="-0.5632">
        <ele>232.3</ele>
        <time>2020-02-09T08:51:58Z</time>
      </trkpt>
      <trkpt lat="43.4374" lon="-0.56293">
        <ele>230.37</ele>
        <time>2020-02-09T08:52:02Z</time>
      </trkpt>
      <trkpt lat="43.43688" lon="-0.56201">
        <ele>220.76</ele>
        <time>2020-02-09T08:52:15Z</time>
      </trkpt>
      <trkpt lat="43.43685" lon="-0.56193">
        <ele>220.76</ele>
        <time>2020-02-09T08:52:16Z</time>
      </trkpt>
      <trkpt lat="43.43682" lon="-0.56184">
        <ele>220.28</ele>
        <time>2020-02-09T08:52:17Z</time>
      </trkpt>
      <trkpt lat="43.43678" lon="-0.56177">
        <ele>220.28</ele>
        <time>2020-02-09T08:52:18Z</time>
      </trkpt>
      <trkpt lat="43.43674" lon="-0.5617">
        <ele>220.28</ele>
        <time>2020-02-09T08:52:19Z</time>
      </trkpt>
      <trkpt lat="43.4367" lon="-0.56163">
        <ele>220.28</ele>
        <time>2020-02-09T08:52:20Z</time>
      </trkpt>
      <trkpt lat="43.43655" lon="-0.56136">
        <ele>221.72</ele>
        <time>2020-02-09T08:52:24Z</time>
      </trkpt>
      <trkpt lat="43.43651" lon="-0.5613">
        <ele>222.2</ele>
        <time>2020-02-09T08:52:25Z</time>
      </trkpt>
      <trkpt lat="43.43647" lon="-0.56126">
        <ele>222.2</ele>
        <time>2020-02-09T08:52:26Z</time>
      </trkpt>
      <trkpt lat="43.43639" lon="-0.56116">
        <ele>222.2</ele>
        <time>2020-02-09T08:52:28Z</time>
      </trkpt>
      <trkpt lat="43.43635" lon="-0.56111">
        <ele>222.68</ele>
        <time>2020-02-09T08:52:29Z</time>
      </trkpt>
      <trkpt lat="43.43632" lon="-0.56106">
        <ele>222.2</ele>
        <time>2020-02-09T08:52:30Z</time>
      </trkpt>
      <trkpt lat="43.43629" lon="-0.56102">
        <ele>221.72</ele>
        <time>2020-02-09T08:52:31Z</time>
      </trkpt>
      <trkpt lat="43.43627" lon="-0.56098">
        <ele>221.24</ele>
        <time>2020-02-09T08:52:32Z</time>
      </trkpt>
      <trkpt lat="43.43626" lon="-0.56095">
        <ele>221.24</ele>
        <time>2020-02-09T08:52:33Z</time>
      </trkpt>
      <trkpt lat="43.43624" lon="-0.56092">
        <ele>220.76</ele>
        <time>2020-02-09T08:52:34Z</time>
      </trkpt>
      <trkpt lat="43.43621" lon="-0.56089">
        <ele>220.28</ele>
        <time>2020-02-09T08:52:35Z</time>
      </trkpt>
      <trkpt lat="43.43604" lon="-0.56062">
        <ele>220.76</ele>
        <time>2020-02-09T08:52:45Z</time>
      </trkpt>
      <trkpt lat="43.43583" lon="-0.56029">
        <ele>218.84</ele>
        <time>2020-02-09T08:52:55Z</time>
      </trkpt>
      <trkpt lat="43.43562" lon="-0.55984">
        <ele>224.12</ele>
        <time>2020-02-09T08:53:07Z</time>
      </trkpt>
      <trkpt lat="43.43548" lon="-0.5595">
        <ele>230.37</ele>
        <time>2020-02-09T08:53:16Z</time>
      </trkpt>
      <trkpt lat="43.4354" lon="-0.5591">
        <ele>234.22</ele>
        <time>2020-02-09T08:53:26Z</time>
      </trkpt>
      <trkpt lat="43.43548" lon="-0.55876">
        <ele>234.22</ele>
        <time>2020-02-09T08:53:36Z</time>
      </trkpt>
      <trkpt lat="43.43551" lon="-0.55865">
        <ele>234.22</ele>
        <time>2020-02-09T08:53:38Z</time>
      </trkpt>
      <trkpt lat="43.43552" lon="-0.55859">
        <ele>234.22</ele>
        <time>2020-02-09T08:53:39Z</time>
      </trkpt>
      <trkpt lat="43.43552" lon="-0.55851">
        <ele>234.22</ele>
        <time>2020-02-09T08:53:40Z</time>
      </trkpt>
      <trkpt lat="43.43553" lon="-0.55835">
        <ele>232.78</ele>
        <time>2020-02-09T08:53:42Z</time>
      </trkpt>
      <trkpt lat="43.43562" lon="-0.55757">
        <ele>226.05</ele>
        <time>2020-02-09T08:53:54Z</time>
      </trkpt>
      <trkpt lat="43.43565" lon="-0.55754">
        <ele>225.09</ele>
        <time>2020-02-09T08:53:55Z</time>
      </trkpt>
      <trkpt lat="43.43568" lon="-0.55754">
        <ele>224.61</ele>
        <time>2020-02-09T08:53:56Z</time>
      </trkpt>
      <trkpt lat="43.4357" lon="-0.55755">
        <ele>224.12</ele>
        <time>2020-02-09T08:53:57Z</time>
      </trkpt>
      <trkpt lat="43.43572" lon="-0.55758">
        <ele>223.64</ele>
        <time>2020-02-09T08:53:58Z</time>
      </trkpt>
      <trkpt lat="43.43573" lon="-0.5576">
        <ele>223.64</ele>
        <time>2020-02-09T08:53:59Z</time>
      </trkpt>
      <trkpt lat="43.43575" lon="-0.55762">
        <ele>223.16</ele>
        <time>2020-02-09T08:54:00Z</time>
      </trkpt>
      <trkpt lat="43.43578" lon="-0.55763">
        <ele>223.16</ele>
        <time>2020-02-09T08:54:01Z</time>
      </trkpt>
      <trkpt lat="43.4358" lon="-0.55765">
        <ele>222.68</ele>
        <time>2020-02-09T08:54:02Z</time>
      </trkpt>
      <trkpt lat="43.43612" lon="-0.55785">
        <ele>216.91</ele>
        <time>2020-02-09T08:54:16Z</time>
      </trkpt>
      <trkpt lat="43.43631" lon="-0.55807">
        <ele>216.91</ele>
        <time>2020-02-09T08:54:28Z</time>
      </trkpt>
      <trkpt lat="43.43653" lon="-0.5583">
        <ele>218.84</ele>
        <time>2020-02-09T08:54:40Z</time>
      </trkpt>
      <trkpt lat="43.43675" lon="-0.5585">
        <ele>218.36</ele>
        <time>2020-02-09T08:54:53Z</time>
      </trkpt>
      <trkpt lat="43.43696" lon="-0.5587">
        <ele>219.8</ele>
        <time>2020-02-09T08:55:06Z</time>
      </trkpt>
      <trkpt lat="43.43702" lon="-0.55871">
        <ele>220.76</ele>
        <time>2020-02-09T08:55:09Z</time>
      </trkpt>
      <trkpt lat="43.43723" lon="-0.55859">
        <ele>222.2</ele>
        <time>2020-02-09T08:55:21Z</time>
      </trkpt>
      <trkpt lat="43.43745" lon="-0.55839">
        <ele>226.05</ele>
        <time>2020-02-09T08:55:37Z</time>
      </trkpt>
      <trkpt lat="43.43747" lon="-0.55836">
        <ele>226.53</ele>
        <time>2020-02-09T08:55:39Z</time>
      </trkpt>
      <trkpt lat="43.43748" lon="-0.55834">
        <ele>227.01</ele>
        <time>2020-02-09T08:55:40Z</time>
      </trkpt>
      <trkpt lat="43.4375" lon="-0.55833">
        <ele>227.01</ele>
        <time>2020-02-09T08:55:41Z</time>
      </trkpt>
      <trkpt lat="43.43767" lon="-0.55812">
        <ele>228.93</ele>
        <time>2020-02-09T08:55:55Z</time>
      </trkpt>
      <trkpt lat="43.43791" lon="-0.55782">
        <ele>230.37</ele>
        <time>2020-02-09T08:56:10Z</time>
      </trkpt>
      <trkpt lat="43.43805" lon="-0.55731">
        <ele>230.37</ele>
        <time>2020-02-09T08:56:25Z</time>
      </trkpt>
      <trkpt lat="43.43812" lon="-0.55674">
        <ele>230.85</ele>
        <time>2020-02-09T08:56:39Z</time>
      </trkpt>
      <trkpt lat="43.43825" lon="-0.55592">
        <ele>228.45</ele>
        <time>2020-02-09T08:56:51Z</time>
      </trkpt>
      <trkpt lat="43.43857" lon="-0.55515">
        <ele>226.53</ele>
        <time>2020-02-09T08:57:02Z</time>
      </trkpt>
      <trkpt lat="43.4386" lon="-0.55508">
        <ele>226.05</ele>
        <time>2020-02-09T08:57:03Z</time>
      </trkpt>
      <trkpt lat="43.43868" lon="-0.55488">
        <ele>224.61</ele>
        <time>2020-02-09T08:57:06Z</time>
      </trkpt>
      <trkpt lat="43.4387" lon="-0.55481">
        <ele>224.12</ele>
        <time>2020-02-09T08:57:07Z</time>
      </trkpt>
      <trkpt lat="43.43872" lon="-0.55466">
        <ele>223.64</ele>
        <time>2020-02-09T08:57:09Z</time>
      </trkpt>
      <trkpt lat="43.43871" lon="-0.55457">
        <ele>223.16</ele>
        <time>2020-02-09T08:57:10Z</time>
      </trkpt>
      <trkpt lat="43.4387" lon="-0.55449">
        <ele>222.68</ele>
        <time>2020-02-09T08:57:11Z</time>
      </trkpt>
      <trkpt lat="43.43867" lon="-0.55442">
        <ele>222.68</ele>
        <time>2020-02-09T08:57:12Z</time>
      </trkpt>
      <trkpt lat="43.43865" lon="-0.55433">
        <ele>222.2</ele>
        <time>2020-02-09T08:57:13Z</time>
      </trkpt>
      <trkpt lat="43.43863" lon="-0.55425">
        <ele>222.2</ele>
        <time>2020-02-09T08:57:14Z</time>
      </trkpt>
      <trkpt lat="43.43862" lon="-0.55417">
        <ele>222.2</ele>
        <time>2020-02-09T08:57:15Z</time>
      </trkpt>
      <trkpt lat="43.43862" lon="-0.55409">
        <ele>221.72</ele>
        <time>2020-02-09T08:57:16Z</time>
      </trkpt>
      <trkpt lat="43.43863" lon="-0.55396">
        <ele>222.2</ele>
        <time>2020-02-09T08:57:18Z</time>
      </trkpt>
      <trkpt lat="43.43864" lon="-0.5539">
        <ele>222.2</ele>
        <time>2020-02-09T08:57:19Z</time>
      </trkpt>
      <trkpt lat="43.43866" lon="-0.55386">
        <ele>222.2</ele>
        <time>2020-02-09T08:57:20Z</time>
      </trkpt>
      <trkpt lat="43.43868" lon="-0.55383">
        <ele>222.2</ele>
        <time>2020-02-09T08:57:21Z</time>
      </trkpt>
      <trkpt lat="43.4387" lon="-0.55382">
        <ele>222.68</ele>
        <time>2020-02-09T08:57:22Z</time>
      </trkpt>
      <trkpt lat="43.43874" lon="-0.55382">
        <ele>222.68</ele>
        <time>2020-02-09T08:57:23Z</time>
      </trkpt>
      <trkpt lat="43.43877" lon="-0.55384">
        <ele>222.68</ele>
        <time>2020-02-09T08:57:24Z</time>
      </trkpt>
      <trkpt lat="43.43881" lon="-0.55387">
        <ele>222.2</ele>
        <time>2020-02-09T08:57:25Z</time>
      </trkpt>
      <trkpt lat="43.43903" lon="-0.554">
        <ele>220.76</ele>
        <time>2020-02-09T08:57:32Z</time>
      </trkpt>
      <trkpt lat="43.43906" lon="-0.55402">
        <ele>220.76</ele>
        <time>2020-02-09T08:57:33Z</time>
      </trkpt>
      <trkpt lat="43.43937" lon="-0.5542">
        <ele>219.8</ele>
        <time>2020-02-09T08:57:40Z</time>
      </trkpt>
      <trkpt lat="43.44003" lon="-0.55449">
        <ele>216.43</ele>
        <time>2020-02-09T08:57:52Z</time>
      </trkpt>
      <trkpt lat="43.44015" lon="-0.55457">
        <ele>215.95</ele>
        <time>2020-02-09T08:57:54Z</time>
      </trkpt>
      <trkpt lat="43.4402" lon="-0.55462">
        <ele>215.95</ele>
        <time>2020-02-09T08:57:55Z</time>
      </trkpt>
      <trkpt lat="43.44025" lon="-0.55468">
        <ele>215.47</ele>
        <time>2020-02-09T08:57:56Z</time>
      </trkpt>
      <trkpt lat="43.44043" lon="-0.55498">
        <ele>215.47</ele>
        <time>2020-02-09T08:58:00Z</time>
      </trkpt>
      <trkpt lat="43.44046" lon="-0.55506">
        <ele>215.47</ele>
        <time>2020-02-09T08:58:01Z</time>
      </trkpt>
      <trkpt lat="43.44067" lon="-0.55555">
        <ele>215.95</ele>
        <time>2020-02-09T08:58:07Z</time>
      </trkpt>
      <trkpt lat="43.44114" lon="-0.55656">
        <ele>216.43</ele>
        <time>2020-02-09T08:58:20Z</time>
      </trkpt>
      <trkpt lat="43.44133" lon="-0.55705">
        <ele>217.88</ele>
        <time>2020-02-09T08:58:27Z</time>
      </trkpt>
      <trkpt lat="43.44152" lon="-0.55741">
        <ele>218.84</ele>
        <time>2020-02-09T08:58:37Z</time>
      </trkpt>
      <trkpt lat="43.44153" lon="-0.55741">
        <ele>219.8</ele>
        <time>2020-02-09T08:58:56Z</time>
      </trkpt>
      <trkpt lat="43.44153" lon="-0.5574">
        <ele>221.24</ele>
        <time>2020-02-09T08:59:22Z</time>
      </trkpt>
      <trkpt lat="43.44162" lon="-0.55748">
        <ele>221.72</ele>
        <time>2020-02-09T08:59:43Z</time>
      </trkpt>
      <trkpt lat="43.44195" lon="-0.55776">
        <ele>219.32</ele>
        <time>2020-02-09T08:59:57Z</time>
      </trkpt>
      <trkpt lat="43.44245" lon="-0.55824">
        <ele>215.95</ele>
        <time>2020-02-09T09:00:09Z</time>
      </trkpt>
      <trkpt lat="43.44299" lon="-0.55881">
        <ele>212.59</ele>
        <time>2020-02-09T09:00:21Z</time>
      </trkpt>
      <trkpt lat="43.44302" lon="-0.55886">
        <ele>212.11</ele>
        <time>2020-02-09T09:00:22Z</time>
      </trkpt>
      <trkpt lat="43.44304" lon="-0.55892">
        <ele>211.63</ele>
        <time>2020-02-09T09:00:23Z</time>
      </trkpt>
      <trkpt lat="43.44337" lon="-0.55973">
        <ele>202.98</ele>
        <time>2020-02-09T09:00:34Z</time>
      </trkpt>
      <trkpt lat="43.4434" lon="-0.55981">
        <ele>202.01</ele>
        <time>2020-02-09T09:00:35Z</time>
      </trkpt>
      <trkpt lat="43.44342" lon="-0.55988">
        <ele>201.53</ele>
        <time>2020-02-09T09:00:36Z</time>
      </trkpt>
      <trkpt lat="43.44344" lon="-0.55996">
        <ele>200.57</ele>
        <time>2020-02-09T09:00:37Z</time>
      </trkpt>
      <trkpt lat="43.44346" lon="-0.56003">
        <ele>199.61</ele>
        <time>2020-02-09T09:00:38Z</time>
      </trkpt>
      <trkpt lat="43.4435" lon="-0.5601">
        <ele>199.13</ele>
        <time>2020-02-09T09:00:39Z</time>
      </trkpt>
      <trkpt lat="43.44354" lon="-0.56015">
        <ele>198.17</ele>
        <time>2020-02-09T09:00:40Z</time>
      </trkpt>
      <trkpt lat="43.44359" lon="-0.56019">
        <ele>197.21</ele>
        <time>2020-02-09T09:00:41Z</time>
      </trkpt>
      <trkpt lat="43.44364" lon="-0.56022">
        <ele>196.25</ele>
        <time>2020-02-09T09:00:42Z</time>
      </trkpt>
      <trkpt lat="43.4437" lon="-0.56023">
        <ele>195.28</ele>
        <time>2020-02-09T09:00:43Z</time>
      </trkpt>
      <trkpt lat="43.44376" lon="-0.56025">
        <ele>194.32</ele>
        <time>2020-02-09T09:00:44Z</time>
      </trkpt>
      <trkpt lat="43.444" lon="-0.56028">
        <ele>192.4</ele>
        <time>2020-02-09T09:00:47Z</time>
      </trkpt>
      <trkpt lat="43.44429" lon="-0.56024">
        <ele>188.56</ele>
        <time>2020-02-09T09:00:54Z</time>
      </trkpt>
      <trkpt lat="43.4444" lon="-0.56021">
        <ele>186.63</ele>
        <time>2020-02-09T09:01:01Z</time>
      </trkpt>
      <trkpt lat="43.44474" lon="-0.56022">
        <ele>181.35</ele>
        <time>2020-02-09T09:01:09Z</time>
      </trkpt>
      <trkpt lat="43.44497" lon="-0.56029">
        <ele>176.54</ele>
        <time>2020-02-09T09:01:18Z</time>
      </trkpt>
      <trkpt lat="43.445" lon="-0.56031">
        <ele>174.62</ele>
        <time>2020-02-09T09:01:44Z</time>
      </trkpt>
      <trkpt lat="43.44499" lon="-0.5603">
        <ele>177.02</ele>
        <time>2020-02-09T09:02:01Z</time>
      </trkpt>
      <trkpt lat="43.44506" lon="-0.56032">
        <ele>185.67</ele>
        <time>2020-02-09T09:02:17Z</time>
      </trkpt>
      <trkpt lat="43.44508" lon="-0.56033">
        <ele>189.52</ele>
        <time>2020-02-09T09:02:32Z</time>
      </trkpt>
      <trkpt lat="43.44514" lon="-0.56035">
        <ele>191.92</ele>
        <time>2020-02-09T09:02:55Z</time>
      </trkpt>
      <trkpt lat="43.44518" lon="-0.56039">
        <ele>193.84</ele>
        <time>2020-02-09T09:03:16Z</time>
      </trkpt>
      <trkpt lat="43.44525" lon="-0.56046">
        <ele>194.32</ele>
        <time>2020-02-09T09:03:24Z</time>
      </trkpt>
      <trkpt lat="43.44526" lon="-0.56047">
        <ele>194.32</ele>
        <time>2020-02-09T09:03:25Z</time>
      </trkpt>
      <trkpt lat="43.44527" lon="-0.56049">
        <ele>194.32</ele>
        <time>2020-02-09T09:03:26Z</time>
      </trkpt>
      <trkpt lat="43.44527" lon="-0.5605">
        <ele>194.32</ele>
        <time>2020-02-09T09:03:27Z</time>
      </trkpt>
      <trkpt lat="43.44528" lon="-0.56052">
        <ele>194.32</ele>
        <time>2020-02-09T09:03:28Z</time>
      </trkpt>
      <trkpt lat="43.44529" lon="-0.56054">
        <ele>194.32</ele>
        <time>2020-02-09T09:03:29Z</time>
      </trkpt>
      <trkpt lat="43.44529" lon="-0.56055">
        <ele>194.32</ele>
        <time>2020-02-09T09:03:30Z</time>
      </trkpt>
      <trkpt lat="43.4453" lon="-0.56057">
        <ele>194.32</ele>
        <time>2020-02-09T09:03:31Z</time>
      </trkpt>
      <trkpt lat="43.44538" lon="-0.56072">
        <ele>192.4</ele>
        <time>2020-02-09T09:03:41Z</time>
      </trkpt>
      <trkpt lat="43.44543" lon="-0.5608">
        <ele>192.88</ele>
        <time>2020-02-09T09:03:46Z</time>
      </trkpt>
      <trkpt lat="43.44544" lon="-0.56082">
        <ele>193.36</ele>
        <time>2020-02-09T09:03:47Z</time>
      </trkpt>
      <trkpt lat="43.44545" lon="-0.56084">
        <ele>193.36</ele>
        <time>2020-02-09T09:03:48Z</time>
      </trkpt>
      <trkpt lat="43.44546" lon="-0.56085">
        <ele>193.36</ele>
        <time>2020-02-09T09:03:49Z</time>
      </trkpt>
      <trkpt lat="43.44547" lon="-0.56086">
        <ele>193.84</ele>
        <time>2020-02-09T09:03:50Z</time>
      </trkpt>
      <trkpt lat="43.44549" lon="-0.56087">
        <ele>193.84</ele>
        <time>2020-02-09T09:03:51Z</time>
      </trkpt>
      <trkpt lat="43.44562" lon="-0.56106">
        <ele>193.84</ele>
        <time>2020-02-09T09:04:02Z</time>
      </trkpt>
      <trkpt lat="43.44574" lon="-0.56138">
        <ele>193.84</ele>
        <time>2020-02-09T09:04:15Z</time>
      </trkpt>
      <trkpt lat="43.4458" lon="-0.56149">
        <ele>195.28</ele>
        <time>2020-02-09T09:04:19Z</time>
      </trkpt>
      <trkpt lat="43.44582" lon="-0.56152">
        <ele>195.28</ele>
        <time>2020-02-09T09:04:20Z</time>
      </trkpt>
      <trkpt lat="43.44584" lon="-0.56155">
        <ele>195.77</ele>
        <time>2020-02-09T09:04:21Z</time>
      </trkpt>
      <trkpt lat="43.44585" lon="-0.56158">
        <ele>195.77</ele>
        <time>2020-02-09T09:04:22Z</time>
      </trkpt>
      <trkpt lat="43.44587" lon="-0.56161">
        <ele>196.25</ele>
        <time>2020-02-09T09:04:23Z</time>
      </trkpt>
      <trkpt lat="43.44588" lon="-0.56164">
        <ele>196.25</ele>
        <time>2020-02-09T09:04:24Z</time>
      </trkpt>
      <trkpt lat="43.44595" lon="-0.56177">
        <ele>196.73</ele>
        <time>2020-02-09T09:04:33Z</time>
      </trkpt>
      <trkpt lat="43.44598" lon="-0.56177">
        <ele>196.25</ele>
        <time>2020-02-09T09:04:38Z</time>
      </trkpt>
      <trkpt lat="43.44601" lon="-0.56185">
        <ele>195.77</ele>
        <time>2020-02-09T09:04:46Z</time>
      </trkpt>
      <trkpt lat="43.44602" lon="-0.56187">
        <ele>195.28</ele>
        <time>2020-02-09T09:04:47Z</time>
      </trkpt>
      <trkpt lat="43.44601" lon="-0.56194">
        <ele>195.28</ele>
        <time>2020-02-09T09:04:51Z</time>
      </trkpt>
      <trkpt lat="43.44599" lon="-0.56202">
        <ele>196.25</ele>
        <time>2020-02-09T09:04:56Z</time>
      </trkpt>
      <trkpt lat="43.446" lon="-0.56204">
        <ele>196.25</ele>
        <time>2020-02-09T09:04:57Z</time>
      </trkpt>
      <trkpt lat="43.44602" lon="-0.56208">
        <ele>196.25</ele>
        <time>2020-02-09T09:04:59Z</time>
      </trkpt>
      <trkpt lat="43.44602" lon="-0.56211">
        <ele>196.25</ele>
        <time>2020-02-09T09:05:00Z</time>
      </trkpt>
      <trkpt lat="43.44617" lon="-0.56245">
        <ele>192.88</ele>
        <time>2020-02-09T09:05:09Z</time>
      </trkpt>
      <trkpt lat="43.4462" lon="-0.56247">
        <ele>192.4</ele>
        <time>2020-02-09T09:05:10Z</time>
      </trkpt>
      <trkpt lat="43.44624" lon="-0.56249">
        <ele>192.4</ele>
        <time>2020-02-09T09:05:11Z</time>
      </trkpt>
      <trkpt lat="43.44627" lon="-0.56249">
        <ele>191.92</ele>
        <time>2020-02-09T09:05:12Z</time>
      </trkpt>
      <trkpt lat="43.44629" lon="-0.5625">
        <ele>191.92</ele>
        <time>2020-02-09T09:05:13Z</time>
      </trkpt>
      <trkpt lat="43.44632" lon="-0.56251">
        <ele>191.44</ele>
        <time>2020-02-09T09:05:14Z</time>
      </trkpt>
      <trkpt lat="43.44635" lon="-0.56253">
        <ele>190.96</ele>
        <time>2020-02-09T09:05:15Z</time>
      </trkpt>
      <trkpt lat="43.44637" lon="-0.56254">
        <ele>190.96</ele>
        <time>2020-02-09T09:05:16Z</time>
      </trkpt>
      <trkpt lat="43.44662" lon="-0.56277">
        <ele>191.92</ele>
        <time>2020-02-09T09:05:26Z</time>
      </trkpt>
      <trkpt lat="43.44688" lon="-0.56305">
        <ele>190.96</ele>
        <time>2020-02-09T09:05:36Z</time>
      </trkpt>
      <trkpt lat="43.44708" lon="-0.56333">
        <ele>190.96</ele>
        <time>2020-02-09T09:05:45Z</time>
      </trkpt>
      <trkpt lat="43.4473" lon="-0.56366">
        <ele>189.52</ele>
        <time>2020-02-09T09:05:55Z</time>
      </trkpt>
      <trkpt lat="43.44752" lon="-0.56392">
        <ele>190</ele>
        <time>2020-02-09T09:06:04Z</time>
      </trkpt>
      <trkpt lat="43.44754" lon="-0.56396">
        <ele>190</ele>
        <time>2020-02-09T09:06:05Z</time>
      </trkpt>
      <trkpt lat="43.44757" lon="-0.56398">
        <ele>190</ele>
        <time>2020-02-09T09:06:06Z</time>
      </trkpt>
      <trkpt lat="43.44761" lon="-0.56399">
        <ele>190</ele>
        <time>2020-02-09T09:06:07Z</time>
      </trkpt>
      <trkpt lat="43.44765" lon="-0.56401">
        <ele>190</ele>
        <time>2020-02-09T09:06:08Z</time>
      </trkpt>
      <trkpt lat="43.44768" lon="-0.56403">
        <ele>190</ele>
        <time>2020-02-09T09:06:09Z</time>
      </trkpt>
      <trkpt lat="43.44782" lon="-0.56419">
        <ele>189.04</ele>
        <time>2020-02-09T09:06:14Z</time>
      </trkpt>
      <trkpt lat="43.44782" lon="-0.56423">
        <ele>188.08</ele>
        <time>2020-02-09T09:06:15Z</time>
      </trkpt>
      <trkpt lat="43.44783" lon="-0.56425">
        <ele>188.08</ele>
        <time>2020-02-09T09:06:16Z</time>
      </trkpt>
      <trkpt lat="43.44785" lon="-0.56428">
        <ele>187.11</ele>
        <time>2020-02-09T09:06:17Z</time>
      </trkpt>
      <trkpt lat="43.44789" lon="-0.56431">
        <ele>187.11</ele>
        <time>2020-02-09T09:06:18Z</time>
      </trkpt>
      <trkpt lat="43.44793" lon="-0.56434">
        <ele>186.63</ele>
        <time>2020-02-09T09:06:19Z</time>
      </trkpt>
      <trkpt lat="43.44822" lon="-0.56464">
        <ele>184.71</ele>
        <time>2020-02-09T09:06:30Z</time>
      </trkpt>
      <trkpt lat="43.44824" lon="-0.56491">
        <ele>184.71</ele>
        <time>2020-02-09T09:06:42Z</time>
      </trkpt>
      <trkpt lat="43.44812" lon="-0.56516">
        <ele>188.08</ele>
        <time>2020-02-09T09:06:56Z</time>
      </trkpt>
      <trkpt lat="43.44811" lon="-0.56519">
        <ele>188.56</ele>
        <time>2020-02-09T09:06:58Z</time>
      </trkpt>
      <trkpt lat="43.4481" lon="-0.56521">
        <ele>189.04</ele>
        <time>2020-02-09T09:06:59Z</time>
      </trkpt>
      <trkpt lat="43.44809" lon="-0.56524">
        <ele>189.04</ele>
        <time>2020-02-09T09:07:00Z</time>
      </trkpt>
      <trkpt lat="43.44809" lon="-0.56525">
        <ele>189.52</ele>
        <time>2020-02-09T09:07:01Z</time>
      </trkpt>
      <trkpt lat="43.44808" lon="-0.56527">
        <ele>190</ele>
        <time>2020-02-09T09:07:02Z</time>
      </trkpt>
      <trkpt lat="43.44808" lon="-0.56529">
        <ele>190</ele>
        <time>2020-02-09T09:07:03Z</time>
      </trkpt>
      <trkpt lat="43.44807" lon="-0.56531">
        <ele>190.48</ele>
        <time>2020-02-09T09:07:04Z</time>
      </trkpt>
      <trkpt lat="43.44806" lon="-0.56533">
        <ele>190.48</ele>
        <time>2020-02-09T09:07:05Z</time>
      </trkpt>
      <trkpt lat="43.44806" lon="-0.56536">
        <ele>190.48</ele>
        <time>2020-02-09T09:07:06Z</time>
      </trkpt>
      <trkpt lat="43.44805" lon="-0.56537">
        <ele>190.48</ele>
        <time>2020-02-09T09:07:07Z</time>
      </trkpt>
      <trkpt lat="43.44803" lon="-0.56539">
        <ele>190.96</ele>
        <time>2020-02-09T09:07:08Z</time>
      </trkpt>
      <trkpt lat="43.44803" lon="-0.56541">
        <ele>190.96</ele>
        <time>2020-02-09T09:07:09Z</time>
      </trkpt>
      <trkpt lat="43.44802" lon="-0.56544">
        <ele>191.44</ele>
        <time>2020-02-09T09:07:10Z</time>
      </trkpt>
      <trkpt lat="43.44801" lon="-0.56546">
        <ele>191.92</ele>
        <time>2020-02-09T09:07:11Z</time>
      </trkpt>
      <trkpt lat="43.44801" lon="-0.56549">
        <ele>191.92</ele>
        <time>2020-02-09T09:07:12Z</time>
      </trkpt>
      <trkpt lat="43.44802" lon="-0.56551">
        <ele>191.92</ele>
        <time>2020-02-09T09:07:13Z</time>
      </trkpt>
      <trkpt lat="43.44802" lon="-0.56553">
        <ele>191.92</ele>
        <time>2020-02-09T09:07:14Z</time>
      </trkpt>
      <trkpt lat="43.44801" lon="-0.56555">
        <ele>192.4</ele>
        <time>2020-02-09T09:07:15Z</time>
      </trkpt>
      <trkpt lat="43.44801" lon="-0.56557">
        <ele>192.4</ele>
        <time>2020-02-09T09:07:16Z</time>
      </trkpt>
      <trkpt lat="43.44801" lon="-0.56559">
        <ele>192.4</ele>
        <time>2020-02-09T09:07:17Z</time>
      </trkpt>
      <trkpt lat="43.448" lon="-0.56561">
        <ele>192.4</ele>
        <time>2020-02-09T09:07:18Z</time>
      </trkpt>
      <trkpt lat="43.448" lon="-0.56563">
        <ele>192.88</ele>
        <time>2020-02-09T09:07:19Z</time>
      </trkpt>
      <trkpt lat="43.44801" lon="-0.56565">
        <ele>192.88</ele>
        <time>2020-02-09T09:07:20Z</time>
      </trkpt>
      <trkpt lat="43.44801" lon="-0.56567">
        <ele>192.88</ele>
        <time>2020-02-09T09:07:21Z</time>
      </trkpt>
      <trkpt lat="43.448" lon="-0.56569">
        <ele>192.88</ele>
        <time>2020-02-09T09:07:22Z</time>
      </trkpt>
      <trkpt lat="43.44799" lon="-0.56571">
        <ele>193.36</ele>
        <time>2020-02-09T09:07:23Z</time>
      </trkpt>
      <trkpt lat="43.44795" lon="-0.56593">
        <ele>195.77</ele>
        <time>2020-02-09T09:07:34Z</time>
      </trkpt>
      <trkpt lat="43.44794" lon="-0.56596">
        <ele>196.25</ele>
        <time>2020-02-09T09:07:35Z</time>
      </trkpt>
      <trkpt lat="43.44793" lon="-0.56598">
        <ele>197.21</ele>
        <time>2020-02-09T09:07:36Z</time>
      </trkpt>
      <trkpt lat="43.44792" lon="-0.56601">
        <ele>198.17</ele>
        <time>2020-02-09T09:07:37Z</time>
      </trkpt>
      <trkpt lat="43.44792" lon="-0.56603">
        <ele>199.13</ele>
        <time>2020-02-09T09:07:38Z</time>
      </trkpt>
      <trkpt lat="43.44791" lon="-0.56605">
        <ele>199.61</ele>
        <time>2020-02-09T09:07:39Z</time>
      </trkpt>
      <trkpt lat="43.44791" lon="-0.56607">
        <ele>200.57</ele>
        <time>2020-02-09T09:07:40Z</time>
      </trkpt>
      <trkpt lat="43.4479" lon="-0.5661">
        <ele>201.05</ele>
        <time>2020-02-09T09:07:41Z</time>
      </trkpt>
      <trkpt lat="43.4479" lon="-0.56612">
        <ele>201.53</ele>
        <time>2020-02-09T09:07:42Z</time>
      </trkpt>
      <trkpt lat="43.44789" lon="-0.56614">
        <ele>202.49</ele>
        <time>2020-02-09T09:07:43Z</time>
      </trkpt>
      <trkpt lat="43.44789" lon="-0.56616">
        <ele>203.46</ele>
        <time>2020-02-09T09:07:44Z</time>
      </trkpt>
      <trkpt lat="43.44788" lon="-0.56618">
        <ele>204.42</ele>
        <time>2020-02-09T09:07:45Z</time>
      </trkpt>
      <trkpt lat="43.44788" lon="-0.5662">
        <ele>204.9</ele>
        <time>2020-02-09T09:07:46Z</time>
      </trkpt>
      <trkpt lat="43.44786" lon="-0.56625">
        <ele>207.78</ele>
        <time>2020-02-09T09:07:50Z</time>
      </trkpt>
      <trkpt lat="43.44786" lon="-0.56627">
        <ele>208.74</ele>
        <time>2020-02-09T09:07:51Z</time>
      </trkpt>
      <trkpt lat="43.44785" lon="-0.56629">
        <ele>209.7</ele>
        <time>2020-02-09T09:07:52Z</time>
      </trkpt>
      <trkpt lat="43.44775" lon="-0.56643">
        <ele>213.55</ele>
        <time>2020-02-09T09:08:01Z</time>
      </trkpt>
      <trkpt lat="43.44774" lon="-0.56645">
        <ele>214.03</ele>
        <time>2020-02-09T09:08:02Z</time>
      </trkpt>
      <trkpt lat="43.44758" lon="-0.56664">
        <ele>215.95</ele>
        <time>2020-02-09T09:08:15Z</time>
      </trkpt>
      <trkpt lat="43.44744" lon="-0.56686">
        <ele>214.51</ele>
        <time>2020-02-09T09:08:29Z</time>
      </trkpt>
      <trkpt lat="43.44734" lon="-0.56712">
        <ele>215.47</ele>
        <time>2020-02-09T09:08:42Z</time>
      </trkpt>
      <trkpt lat="43.44734" lon="-0.56714">
        <ele>215.95</ele>
        <time>2020-02-09T09:08:43Z</time>
      </trkpt>
      <trkpt lat="43.44734" lon="-0.56717">
        <ele>215.95</ele>
        <time>2020-02-09T09:08:44Z</time>
      </trkpt>
      <trkpt lat="43.44734" lon="-0.56721">
        <ele>215.95</ele>
        <time>2020-02-09T09:08:46Z</time>
      </trkpt>
      <trkpt lat="43.44734" lon="-0.56723">
        <ele>215.95</ele>
        <time>2020-02-09T09:08:47Z</time>
      </trkpt>
      <trkpt lat="43.44733" lon="-0.56725">
        <ele>215.95</ele>
        <time>2020-02-09T09:08:48Z</time>
      </trkpt>
      <trkpt lat="43.44733" lon="-0.56726">
        <ele>215.95</ele>
        <time>2020-02-09T09:08:49Z</time>
      </trkpt>
      <trkpt lat="43.44733" lon="-0.56728">
        <ele>215.95</ele>
        <time>2020-02-09T09:08:50Z</time>
      </trkpt>
      <trkpt lat="43.44733" lon="-0.56736">
        <ele>215.95</ele>
        <time>2020-02-09T09:08:54Z</time>
      </trkpt>
      <trkpt lat="43.44733" lon="-0.56739">
        <ele>215.95</ele>
        <time>2020-02-09T09:08:55Z</time>
      </trkpt>
      <trkpt lat="43.44733" lon="-0.56741">
        <ele>215.95</ele>
        <time>2020-02-09T09:08:56Z</time>
      </trkpt>
      <trkpt lat="43.44733" lon="-0.56744">
        <ele>215.95</ele>
        <time>2020-02-09T09:08:57Z</time>
      </trkpt>
      <trkpt lat="43.44733" lon="-0.56746">
        <ele>215.95</ele>
        <time>2020-02-09T09:08:58Z</time>
      </trkpt>
      <trkpt lat="43.44733" lon="-0.56749">
        <ele>215.95</ele>
        <time>2020-02-09T09:08:59Z</time>
      </trkpt>
      <trkpt lat="43.44733" lon="-0.56751">
        <ele>215.47</ele>
        <time>2020-02-09T09:09:00Z</time>
      </trkpt>
      <trkpt lat="43.44733" lon="-0.56753">
        <ele>215.95</ele>
        <time>2020-02-09T09:09:01Z</time>
      </trkpt>
      <trkpt lat="43.44732" lon="-0.56787">
        <ele>217.4</ele>
        <time>2020-02-09T09:09:15Z</time>
      </trkpt>
      <trkpt lat="43.44731" lon="-0.56823">
        <ele>219.32</ele>
        <time>2020-02-09T09:09:28Z</time>
      </trkpt>
      <trkpt lat="43.44746" lon="-0.5686">
        <ele>218.84</ele>
        <time>2020-02-09T09:09:38Z</time>
      </trkpt>
      <trkpt lat="43.44759" lon="-0.56888">
        <ele>217.88</ele>
        <time>2020-02-09T09:09:44Z</time>
      </trkpt>
      <trkpt lat="43.44788" lon="-0.56951">
        <ele>220.28</ele>
        <time>2020-02-09T09:10:00Z</time>
      </trkpt>
      <trkpt lat="43.44789" lon="-0.56951">
        <ele>220.28</ele>
        <time>2020-02-09T09:10:01Z</time>
      </trkpt>
      <trkpt lat="43.44792" lon="-0.56952">
        <ele>220.76</ele>
        <time>2020-02-09T09:10:15Z</time>
      </trkpt>
      <trkpt lat="43.44795" lon="-0.5695">
        <ele>224.61</ele>
        <time>2020-02-09T09:10:33Z</time>
      </trkpt>
      <trkpt lat="43.44797" lon="-0.56951">
        <ele>224.61</ele>
        <time>2020-02-09T09:10:54Z</time>
      </trkpt>
      <trkpt lat="43.44795" lon="-0.56954">
        <ele>221.72</ele>
        <time>2020-02-09T09:11:17Z</time>
      </trkpt>
      <trkpt lat="43.44793" lon="-0.56953">
        <ele>223.16</ele>
        <time>2020-02-09T09:11:35Z</time>
      </trkpt>
      <trkpt lat="43.44793" lon="-0.56948">
        <ele>219.8</ele>
        <time>2020-02-09T09:12:03Z</time>
      </trkpt>
      <trkpt lat="43.44794" lon="-0.56947">
        <ele>220.28</ele>
        <time>2020-02-09T09:12:04Z</time>
      </trkpt>
      <trkpt lat="43.44794" lon="-0.56945">
        <ele>220.28</ele>
        <time>2020-02-09T09:12:05Z</time>
      </trkpt>
      <trkpt lat="43.44795" lon="-0.56943">
        <ele>220.28</ele>
        <time>2020-02-09T09:12:06Z</time>
      </trkpt>
      <trkpt lat="43.44797" lon="-0.5694">
        <ele>220.76</ele>
        <time>2020-02-09T09:12:07Z</time>
      </trkpt>
      <trkpt lat="43.448" lon="-0.56937">
        <ele>220.76</ele>
        <time>2020-02-09T09:12:08Z</time>
      </trkpt>
      <trkpt lat="43.44803" lon="-0.56935">
        <ele>220.76</ele>
        <time>2020-02-09T09:12:09Z</time>
      </trkpt>
      <trkpt lat="43.4483" lon="-0.56927">
        <ele>219.8</ele>
        <time>2020-02-09T09:12:16Z</time>
      </trkpt>
      <trkpt lat="43.44834" lon="-0.56929">
        <ele>219.8</ele>
        <time>2020-02-09T09:12:17Z</time>
      </trkpt>
      <trkpt lat="43.44894" lon="-0.56965">
        <ele>217.88</ele>
        <time>2020-02-09T09:12:28Z</time>
      </trkpt>
      <trkpt lat="43.44915" lon="-0.56978">
        <ele>214.99</ele>
        <time>2020-02-09T09:12:37Z</time>
      </trkpt>
      <trkpt lat="43.44929" lon="-0.5699">
        <ele>213.07</ele>
        <time>2020-02-09T09:12:48Z</time>
      </trkpt>
      <trkpt lat="43.44935" lon="-0.56998">
        <ele>213.55</ele>
        <time>2020-02-09T09:13:01Z</time>
      </trkpt>
      <trkpt lat="43.44942" lon="-0.57012">
        <ele>212.59</ele>
        <time>2020-02-09T09:13:05Z</time>
      </trkpt>
      <trkpt lat="43.4495" lon="-0.57019">
        <ele>210.19</ele>
        <time>2020-02-09T09:13:09Z</time>
      </trkpt>
      <trkpt lat="43.44965" lon="-0.57015">
        <ele>204.42</ele>
        <time>2020-02-09T09:13:19Z</time>
      </trkpt>
      <trkpt lat="43.44965" lon="-0.57014">
        <ele>203.94</ele>
        <time>2020-02-09T09:13:21Z</time>
      </trkpt>
      <trkpt lat="43.44965" lon="-0.57011">
        <ele>204.42</ele>
        <time>2020-02-09T09:13:27Z</time>
      </trkpt>
      <trkpt lat="43.44969" lon="-0.56997">
        <ele>205.86</ele>
        <time>2020-02-09T09:13:34Z</time>
      </trkpt>
      <trkpt lat="43.44996" lon="-0.56968">
        <ele>205.86</ele>
        <time>2020-02-09T09:13:45Z</time>
      </trkpt>
      <trkpt lat="43.44999" lon="-0.56965">
        <ele>205.38</ele>
        <time>2020-02-09T09:13:46Z</time>
      </trkpt>
      <trkpt lat="43.45002" lon="-0.56959">
        <ele>204.42</ele>
        <time>2020-02-09T09:13:48Z</time>
      </trkpt>
      <trkpt lat="43.45017" lon="-0.5694">
        <ele>201.05</ele>
        <time>2020-02-09T09:13:58Z</time>
      </trkpt>
      <trkpt lat="43.45023" lon="-0.56933">
        <ele>200.09</ele>
        <time>2020-02-09T09:14:10Z</time>
      </trkpt>
      <trkpt lat="43.45025" lon="-0.5693">
        <ele>199.61</ele>
        <time>2020-02-09T09:14:12Z</time>
      </trkpt>
      <trkpt lat="43.4503" lon="-0.56923">
        <ele>197.21</ele>
        <time>2020-02-09T09:14:19Z</time>
      </trkpt>
      <trkpt lat="43.45038" lon="-0.56919">
        <ele>193.84</ele>
        <time>2020-02-09T09:14:26Z</time>
      </trkpt>
      <trkpt lat="43.45039" lon="-0.56918">
        <ele>193.36</ele>
        <time>2020-02-09T09:14:27Z</time>
      </trkpt>
      <trkpt lat="43.45047" lon="-0.56916">
        <ele>190.96</ele>
        <time>2020-02-09T09:14:36Z</time>
      </trkpt>
      <trkpt lat="43.45064" lon="-0.56894">
        <ele>186.63</ele>
        <time>2020-02-09T09:14:49Z</time>
      </trkpt>
      <trkpt lat="43.45074" lon="-0.56879">
        <ele>184.71</ele>
        <time>2020-02-09T09:14:52Z</time>
      </trkpt>
      <trkpt lat="43.45079" lon="-0.56875">
        <ele>184.23</ele>
        <time>2020-02-09T09:14:53Z</time>
      </trkpt>
      <trkpt lat="43.45114" lon="-0.56844">
        <ele>177.98</ele>
        <time>2020-02-09T09:15:02Z</time>
      </trkpt>
      <trkpt lat="43.45117" lon="-0.56846">
        <ele>177.5</ele>
        <time>2020-02-09T09:15:03Z</time>
      </trkpt>
      <trkpt lat="43.4512" lon="-0.56848">
        <ele>177.5</ele>
        <time>2020-02-09T09:15:04Z</time>
      </trkpt>
      <trkpt lat="43.45123" lon="-0.56851">
        <ele>177.02</ele>
        <time>2020-02-09T09:15:05Z</time>
      </trkpt>
      <trkpt lat="43.45126" lon="-0.56855">
        <ele>176.54</ele>
        <time>2020-02-09T09:15:06Z</time>
      </trkpt>
      <trkpt lat="43.45144" lon="-0.56876">
        <ele>175.58</ele>
        <time>2020-02-09T09:15:12Z</time>
      </trkpt>
      <trkpt lat="43.4516" lon="-0.56902">
        <ele>171.25</ele>
        <time>2020-02-09T09:15:21Z</time>
      </trkpt>
      <trkpt lat="43.45164" lon="-0.56906">
        <ele>171.25</ele>
        <time>2020-02-09T09:15:24Z</time>
      </trkpt>
      <trkpt lat="43.45169" lon="-0.56904">
        <ele>170.77</ele>
        <time>2020-02-09T09:15:26Z</time>
      </trkpt>
      <trkpt lat="43.45171" lon="-0.56902">
        <ele>170.29</ele>
        <time>2020-02-09T09:15:27Z</time>
      </trkpt>
      <trkpt lat="43.45173" lon="-0.569">
        <ele>170.29</ele>
        <time>2020-02-09T09:15:28Z</time>
      </trkpt>
      <trkpt lat="43.45177" lon="-0.56899">
        <ele>170.29</ele>
        <time>2020-02-09T09:15:29Z</time>
      </trkpt>
      <trkpt lat="43.45181" lon="-0.56899">
        <ele>170.29</ele>
        <time>2020-02-09T09:15:30Z</time>
      </trkpt>
      <trkpt lat="43.45196" lon="-0.56893">
        <ele>172.21</ele>
        <time>2020-02-09T09:15:37Z</time>
      </trkpt>
      <trkpt lat="43.45199" lon="-0.56891">
        <ele>172.21</ele>
        <time>2020-02-09T09:15:38Z</time>
      </trkpt>
      <trkpt lat="43.45202" lon="-0.56887">
        <ele>172.21</ele>
        <time>2020-02-09T09:15:39Z</time>
      </trkpt>
      <trkpt lat="43.45205" lon="-0.56883">
        <ele>172.21</ele>
        <time>2020-02-09T09:15:40Z</time>
      </trkpt>
      <trkpt lat="43.45209" lon="-0.5688">
        <ele>172.21</ele>
        <time>2020-02-09T09:15:41Z</time>
      </trkpt>
      <trkpt lat="43.45212" lon="-0.56879">
        <ele>172.21</ele>
        <time>2020-02-09T09:15:42Z</time>
      </trkpt>
      <trkpt lat="43.45216" lon="-0.56879">
        <ele>171.73</ele>
        <time>2020-02-09T09:15:43Z</time>
      </trkpt>
      <trkpt lat="43.45237" lon="-0.56888">
        <ele>169.81</ele>
        <time>2020-02-09T09:15:49Z</time>
      </trkpt>
      <trkpt lat="43.45241" lon="-0.56891">
        <ele>169.81</ele>
        <time>2020-02-09T09:15:50Z</time>
      </trkpt>
      <trkpt lat="43.45245" lon="-0.56893">
        <ele>169.81</ele>
        <time>2020-02-09T09:15:51Z</time>
      </trkpt>
      <trkpt lat="43.45249" lon="-0.56897">
        <ele>169.33</ele>
        <time>2020-02-09T09:15:52Z</time>
      </trkpt>
      <trkpt lat="43.45258" lon="-0.56908">
        <ele>168.85</ele>
        <time>2020-02-09T09:15:55Z</time>
      </trkpt>
      <trkpt lat="43.45292" lon="-0.56978">
        <ele>165.96</ele>
        <time>2020-02-09T09:16:08Z</time>
      </trkpt>
      <trkpt lat="43.45323" lon="-0.57045">
        <ele>166.93</ele>
        <time>2020-02-09T09:16:22Z</time>
      </trkpt>
      <trkpt lat="43.45341" lon="-0.57102">
        <ele>166.93</ele>
        <time>2020-02-09T09:16:34Z</time>
      </trkpt>
      <trkpt lat="43.45346" lon="-0.57125">
        <ele>164.04</ele>
        <time>2020-02-09T09:16:45Z</time>
      </trkpt>
      <trkpt lat="43.45346" lon="-0.57124">
        <ele>164.04</ele>
        <time>2020-02-09T09:17:08Z</time>
      </trkpt>
      <trkpt lat="43.45348" lon="-0.5713">
        <ele>165.96</ele>
        <time>2020-02-09T09:17:21Z</time>
      </trkpt>
      <trkpt lat="43.45348" lon="-0.57131">
        <ele>165.96</ele>
        <time>2020-02-09T09:17:22Z</time>
      </trkpt>
      <trkpt lat="43.45349" lon="-0.57133">
        <ele>165.48</ele>
        <time>2020-02-09T09:17:23Z</time>
      </trkpt>
      <trkpt lat="43.4535" lon="-0.57178">
        <ele>163.08</ele>
        <time>2020-02-09T09:17:33Z</time>
      </trkpt>
      <trkpt lat="43.45349" lon="-0.57184">
        <ele>162.6</ele>
        <time>2020-02-09T09:17:34Z</time>
      </trkpt>
      <trkpt lat="43.45341" lon="-0.5728">
        <ele>161.64</ele>
        <time>2020-02-09T09:17:50Z</time>
      </trkpt>
      <trkpt lat="43.45337" lon="-0.57313">
        <ele>161.64</ele>
        <time>2020-02-09T09:17:55Z</time>
      </trkpt>
      <trkpt lat="43.45338" lon="-0.57327">
        <ele>161.16</ele>
        <time>2020-02-09T09:17:57Z</time>
      </trkpt>
      <trkpt lat="43.45339" lon="-0.57334">
        <ele>161.16</ele>
        <time>2020-02-09T09:17:58Z</time>
      </trkpt>
      <trkpt lat="43.4534" lon="-0.57341">
        <ele>161.64</ele>
        <time>2020-02-09T09:17:59Z</time>
      </trkpt>
      <trkpt lat="43.45342" lon="-0.57347">
        <ele>161.64</ele>
        <time>2020-02-09T09:18:00Z</time>
      </trkpt>
      <trkpt lat="43.45343" lon="-0.57353">
        <ele>161.64</ele>
        <time>2020-02-09T09:18:01Z</time>
      </trkpt>
      <trkpt lat="43.45345" lon="-0.57358">
        <ele>162.12</ele>
        <time>2020-02-09T09:18:02Z</time>
      </trkpt>
      <trkpt lat="43.45346" lon="-0.57363">
        <ele>162.12</ele>
        <time>2020-02-09T09:18:03Z</time>
      </trkpt>
      <trkpt lat="43.45344" lon="-0.57423">
        <ele>165.48</ele>
        <time>2020-02-09T09:18:15Z</time>
      </trkpt>
      <trkpt lat="43.45338" lon="-0.57481">
        <ele>169.33</ele>
        <time>2020-02-09T09:18:30Z</time>
      </trkpt>
      <trkpt lat="43.45326" lon="-0.57514">
        <ele>171.73</ele>
        <time>2020-02-09T09:18:41Z</time>
      </trkpt>
      <trkpt lat="43.45354" lon="-0.57561">
        <ele>169.33</ele>
        <time>2020-02-09T09:18:50Z</time>
      </trkpt>
      <trkpt lat="43.45395" lon="-0.57614">
        <ele>165.96</ele>
        <time>2020-02-09T09:18:59Z</time>
      </trkpt>
      <trkpt lat="43.45403" lon="-0.57629">
        <ele>165.48</ele>
        <time>2020-02-09T09:19:01Z</time>
      </trkpt>
      <trkpt lat="43.45406" lon="-0.57638">
        <ele>165</ele>
        <time>2020-02-09T09:19:02Z</time>
      </trkpt>
      <trkpt lat="43.45408" lon="-0.57647">
        <ele>165</ele>
        <time>2020-02-09T09:19:03Z</time>
      </trkpt>
      <trkpt lat="43.45411" lon="-0.57664">
        <ele>164.52</ele>
        <time>2020-02-09T09:19:05Z</time>
      </trkpt>
      <trkpt lat="43.45415" lon="-0.57727">
        <ele>163.08</ele>
        <time>2020-02-09T09:19:13Z</time>
      </trkpt>
      <trkpt lat="43.45423" lon="-0.57785">
        <ele>167.41</ele>
        <time>2020-02-09T09:19:26Z</time>
      </trkpt>
      <trkpt lat="43.45428" lon="-0.57818">
        <ele>169.81</ele>
        <time>2020-02-09T09:19:37Z</time>
      </trkpt>
      <trkpt lat="43.4543" lon="-0.57819">
        <ele>169.33</ele>
        <time>2020-02-09T09:19:38Z</time>
      </trkpt>
      <trkpt lat="43.45433" lon="-0.57819">
        <ele>169.33</ele>
        <time>2020-02-09T09:19:39Z</time>
      </trkpt>
      <trkpt lat="43.45461" lon="-0.57837">
        <ele>166.93</ele>
        <time>2020-02-09T09:19:50Z</time>
      </trkpt>
      <trkpt lat="43.45457" lon="-0.57898">
        <ele>165.96</ele>
        <time>2020-02-09T09:20:04Z</time>
      </trkpt>
      <trkpt lat="43.45448" lon="-0.57955">
        <ele>161.64</ele>
        <time>2020-02-09T09:20:17Z</time>
      </trkpt>
      <trkpt lat="43.45449" lon="-0.57974">
        <ele>160.2</ele>
        <time>2020-02-09T09:20:21Z</time>
      </trkpt>
      <trkpt lat="43.45486" lon="-0.58048">
        <ele>152.99</ele>
        <time>2020-02-09T09:20:33Z</time>
      </trkpt>
      <trkpt lat="43.45509" lon="-0.58104">
        <ele>149.62</ele>
        <time>2020-02-09T09:20:43Z</time>
      </trkpt>
      <trkpt lat="43.45516" lon="-0.58171">
        <ele>148.66</ele>
        <time>2020-02-09T09:20:57Z</time>
      </trkpt>
      <trkpt lat="43.45524" lon="-0.58202">
        <ele>149.14</ele>
        <time>2020-02-09T09:21:08Z</time>
      </trkpt>
      <trkpt lat="43.45528" lon="-0.58235">
        <ele>151.06</ele>
        <time>2020-02-09T09:21:22Z</time>
      </trkpt>
      <trkpt lat="43.45522" lon="-0.5827">
        <ele>156.35</ele>
        <time>2020-02-09T09:21:36Z</time>
      </trkpt>
      <trkpt lat="43.45515" lon="-0.583">
        <ele>162.6</ele>
        <time>2020-02-09T09:21:50Z</time>
      </trkpt>
      <trkpt lat="43.45512" lon="-0.58322">
        <ele>164.04</ele>
        <time>2020-02-09T09:22:02Z</time>
      </trkpt>
      <trkpt lat="43.45506" lon="-0.58355">
        <ele>168.37</ele>
        <time>2020-02-09T09:22:19Z</time>
      </trkpt>
      <trkpt lat="43.45501" lon="-0.58381">
        <ele>171.73</ele>
        <time>2020-02-09T09:22:32Z</time>
      </trkpt>
      <trkpt lat="43.45498" lon="-0.58418">
        <ele>171.25</ele>
        <time>2020-02-09T09:22:51Z</time>
      </trkpt>
      <trkpt lat="43.45484" lon="-0.58442">
        <ele>175.58</ele>
        <time>2020-02-09T09:23:06Z</time>
      </trkpt>
      <trkpt lat="43.45475" lon="-0.58461">
        <ele>178.46</ele>
        <time>2020-02-09T09:23:17Z</time>
      </trkpt>
      <trkpt lat="43.45466" lon="-0.5849">
        <ele>178.46</ele>
        <time>2020-02-09T09:23:33Z</time>
      </trkpt>
      <trkpt lat="43.45464" lon="-0.58518">
        <ele>180.87</ele>
        <time>2020-02-09T09:23:48Z</time>
      </trkpt>
      <trkpt lat="43.45462" lon="-0.58553">
        <ele>182.31</ele>
        <time>2020-02-09T09:24:05Z</time>
      </trkpt>
      <trkpt lat="43.45461" lon="-0.58583">
        <ele>186.15</ele>
        <time>2020-02-09T09:24:19Z</time>
      </trkpt>
      <trkpt lat="43.45453" lon="-0.58611">
        <ele>188.08</ele>
        <time>2020-02-09T09:24:34Z</time>
      </trkpt>
      <trkpt lat="43.45439" lon="-0.58629">
        <ele>191.92</ele>
        <time>2020-02-09T09:24:46Z</time>
      </trkpt>
      <trkpt lat="43.45421" lon="-0.58641">
        <ele>192.88</ele>
        <time>2020-02-09T09:25:00Z</time>
      </trkpt>
      <trkpt lat="43.45419" lon="-0.58641">
        <ele>193.84</ele>
        <time>2020-02-09T09:25:22Z</time>
      </trkpt>
      <trkpt lat="43.45422" lon="-0.58642">
        <ele>194.8</ele>
        <time>2020-02-09T09:25:46Z</time>
      </trkpt>
      <trkpt lat="43.45422" lon="-0.5864">
        <ele>194.8</ele>
        <time>2020-02-09T09:26:08Z</time>
      </trkpt>
      <trkpt lat="43.45418" lon="-0.58643">
        <ele>195.77</ele>
        <time>2020-02-09T09:26:35Z</time>
      </trkpt>
      <trkpt lat="43.45417" lon="-0.58643">
        <ele>195.77</ele>
        <time>2020-02-09T09:26:57Z</time>
      </trkpt>
      <trkpt lat="43.45417" lon="-0.58641">
        <ele>195.77</ele>
        <time>2020-02-09T09:27:21Z</time>
      </trkpt>
      <trkpt lat="43.45417" lon="-0.58644">
        <ele>198.65</ele>
        <time>2020-02-09T09:27:44Z</time>
      </trkpt>
      <trkpt lat="43.45419" lon="-0.58644">
        <ele>197.21</ele>
        <time>2020-02-09T09:28:16Z</time>
      </trkpt>
      <trkpt lat="43.45418" lon="-0.58642">
        <ele>196.73</ele>
        <time>2020-02-09T09:28:31Z</time>
      </trkpt>
      <trkpt lat="43.45388" lon="-0.58644">
        <ele>197.21</ele>
        <time>2020-02-09T09:28:46Z</time>
      </trkpt>
      <trkpt lat="43.45352" lon="-0.58627">
        <ele>199.13</ele>
        <time>2020-02-09T09:28:58Z</time>
      </trkpt>
      <trkpt lat="43.4532" lon="-0.58615">
        <ele>200.09</ele>
        <time>2020-02-09T09:29:11Z</time>
      </trkpt>
      <trkpt lat="43.45281" lon="-0.58606">
        <ele>199.61</ele>
        <time>2020-02-09T09:29:24Z</time>
      </trkpt>
      <trkpt lat="43.4524" lon="-0.58597">
        <ele>199.13</ele>
        <time>2020-02-09T09:29:37Z</time>
      </trkpt>
      <trkpt lat="43.45236" lon="-0.58593">
        <ele>199.13</ele>
        <time>2020-02-09T09:29:39Z</time>
      </trkpt>
      <trkpt lat="43.45235" lon="-0.58591">
        <ele>199.13</ele>
        <time>2020-02-09T09:29:40Z</time>
      </trkpt>
      <trkpt lat="43.45234" lon="-0.58583">
        <ele>200.09</ele>
        <time>2020-02-09T09:29:45Z</time>
      </trkpt>
      <trkpt lat="43.45236" lon="-0.58579">
        <ele>202.01</ele>
        <time>2020-02-09T09:30:02Z</time>
      </trkpt>
      <trkpt lat="43.45236" lon="-0.58577">
        <ele>200.09</ele>
        <time>2020-02-09T09:30:29Z</time>
      </trkpt>
      <trkpt lat="43.45246" lon="-0.58572">
        <ele>200.09</ele>
        <time>2020-02-09T09:30:44Z</time>
      </trkpt>
      <trkpt lat="43.45258" lon="-0.58559">
        <ele>200.57</ele>
        <time>2020-02-09T09:31:00Z</time>
      </trkpt>
      <trkpt lat="43.45264" lon="-0.58555">
        <ele>200.57</ele>
        <time>2020-02-09T09:31:14Z</time>
      </trkpt>
      <trkpt lat="43.45262" lon="-0.58553">
        <ele>201.53</ele>
        <time>2020-02-09T09:31:31Z</time>
      </trkpt>
      <trkpt lat="43.45261" lon="-0.58553">
        <ele>201.05</ele>
        <time>2020-02-09T09:32:03Z</time>
      </trkpt>
      <trkpt lat="43.4526" lon="-0.58554">
        <ele>201.53</ele>
        <time>2020-02-09T09:32:31Z</time>
      </trkpt>
      <trkpt lat="43.45262" lon="-0.58555">
        <ele>200.09</ele>
        <time>2020-02-09T09:32:54Z</time>
      </trkpt>
      <trkpt lat="43.45262" lon="-0.58556">
        <ele>196.73</ele>
        <time>2020-02-09T09:33:20Z</time>
      </trkpt>
      <trkpt lat="43.45264" lon="-0.58554">
        <ele>196.73</ele>
        <time>2020-02-09T09:33:45Z</time>
      </trkpt>
      <trkpt lat="43.45267" lon="-0.58554">
        <ele>195.77</ele>
        <time>2020-02-09T09:34:07Z</time>
      </trkpt>
      <trkpt lat="43.45265" lon="-0.58553">
        <ele>200.09</ele>
        <time>2020-02-09T09:34:27Z</time>
      </trkpt>
      <trkpt lat="43.45264" lon="-0.58555">
        <ele>201.05</ele>
        <time>2020-02-09T09:34:55Z</time>
      </trkpt>
      <trkpt lat="43.45262" lon="-0.58554">
        <ele>201.53</ele>
        <time>2020-02-09T09:35:19Z</time>
      </trkpt>
      <trkpt lat="43.45261" lon="-0.58553">
        <ele>200.57</ele>
        <time>2020-02-09T09:35:42Z</time>
      </trkpt>
      <trkpt lat="43.45262" lon="-0.58554">
        <ele>199.61</ele>
        <time>2020-02-09T09:36:04Z</time>
      </trkpt>
      <trkpt lat="43.45264" lon="-0.58554">
        <ele>195.28</ele>
        <time>2020-02-09T09:36:33Z</time>
      </trkpt>
      <trkpt lat="43.45262" lon="-0.58554">
        <ele>197.69</ele>
        <time>2020-02-09T09:36:55Z</time>
      </trkpt>
      <trkpt lat="43.45262" lon="-0.58551">
        <ele>199.13</ele>
        <time>2020-02-09T09:37:14Z</time>
      </trkpt>
      <trkpt lat="43.45261" lon="-0.58552">
        <ele>198.17</ele>
        <time>2020-02-09T09:37:24Z</time>
      </trkpt>
      <trkpt lat="43.4526" lon="-0.58553">
        <ele>198.65</ele>
        <time>2020-02-09T09:37:34Z</time>
      </trkpt>
      <trkpt lat="43.45229" lon="-0.58581">
        <ele>200.09</ele>
        <time>2020-02-09T09:37:51Z</time>
      </trkpt>
      <trkpt lat="43.45189" lon="-0.58582">
        <ele>201.53</ele>
        <time>2020-02-09T09:38:05Z</time>
      </trkpt>
      <trkpt lat="43.45156" lon="-0.58574">
        <ele>204.42</ele>
        <time>2020-02-09T09:38:18Z</time>
      </trkpt>
      <trkpt lat="43.45115" lon="-0.58572">
        <ele>206.34</ele>
        <time>2020-02-09T09:38:32Z</time>
      </trkpt>
      <trkpt lat="43.45086" lon="-0.58574">
        <ele>208.26</ele>
        <time>2020-02-09T09:38:42Z</time>
      </trkpt>
      <trkpt lat="43.45039" lon="-0.58575">
        <ele>212.59</ele>
        <time>2020-02-09T09:38:58Z</time>
      </trkpt>
      <trkpt lat="43.45008" lon="-0.58577">
        <ele>214.51</ele>
        <time>2020-02-09T09:39:10Z</time>
      </trkpt>
      <trkpt lat="43.44974" lon="-0.58577">
        <ele>215.47</ele>
        <time>2020-02-09T09:39:22Z</time>
      </trkpt>
      <trkpt lat="43.44961" lon="-0.58578">
        <ele>216.43</ele>
        <time>2020-02-09T09:39:25Z</time>
      </trkpt>
      <trkpt lat="43.44902" lon="-0.58578">
        <ele>217.4</ele>
        <time>2020-02-09T09:39:38Z</time>
      </trkpt>
      <trkpt lat="43.4488" lon="-0.5858">
        <ele>216.91</ele>
        <time>2020-02-09T09:39:44Z</time>
      </trkpt>
      <trkpt lat="43.44877" lon="-0.58584">
        <ele>216.43</ele>
        <time>2020-02-09T09:39:45Z</time>
      </trkpt>
      <trkpt lat="43.44875" lon="-0.58589">
        <ele>216.43</ele>
        <time>2020-02-09T09:39:46Z</time>
      </trkpt>
      <trkpt lat="43.44875" lon="-0.58593">
        <ele>215.95</ele>
        <time>2020-02-09T09:39:47Z</time>
      </trkpt>
      <trkpt lat="43.44874" lon="-0.58599">
        <ele>215.47</ele>
        <time>2020-02-09T09:39:48Z</time>
      </trkpt>
      <trkpt lat="43.44874" lon="-0.58604">
        <ele>215.47</ele>
        <time>2020-02-09T09:39:49Z</time>
      </trkpt>
      <trkpt lat="43.44873" lon="-0.58693">
        <ele>207.3</ele>
        <time>2020-02-09T09:39:58Z</time>
      </trkpt>
      <trkpt lat="43.44874" lon="-0.58747">
        <ele>203.46</ele>
        <time>2020-02-09T09:40:02Z</time>
      </trkpt>
      <trkpt lat="43.44876" lon="-0.58764">
        <ele>202.49</ele>
        <time>2020-02-09T09:40:03Z</time>
      </trkpt>
      <trkpt lat="43.44879" lon="-0.58774">
        <ele>201.53</ele>
        <time>2020-02-09T09:40:04Z</time>
      </trkpt>
      <trkpt lat="43.44884" lon="-0.58787">
        <ele>200.09</ele>
        <time>2020-02-09T09:40:05Z</time>
      </trkpt>
      <trkpt lat="43.44891" lon="-0.58799">
        <ele>198.65</ele>
        <time>2020-02-09T09:40:06Z</time>
      </trkpt>
      <trkpt lat="43.44899" lon="-0.58811">
        <ele>197.69</ele>
        <time>2020-02-09T09:40:07Z</time>
      </trkpt>
      <trkpt lat="43.44988" lon="-0.58925">
        <ele>183.75</ele>
        <time>2020-02-09T09:40:18Z</time>
      </trkpt>
      <trkpt lat="43.4504" lon="-0.58988">
        <ele>181.35</ele>
        <time>2020-02-09T09:40:26Z</time>
      </trkpt>
      <trkpt lat="43.45071" lon="-0.59028">
        <ele>190.48</ele>
        <time>2020-02-09T09:40:36Z</time>
      </trkpt>
      <trkpt lat="43.4511" lon="-0.5909">
        <ele>201.53</ele>
        <time>2020-02-09T09:40:51Z</time>
      </trkpt>
      <trkpt lat="43.45132" lon="-0.5914">
        <ele>201.53</ele>
        <time>2020-02-09T09:40:59Z</time>
      </trkpt>
      <trkpt lat="43.45159" lon="-0.59251">
        <ele>193.84</ele>
        <time>2020-02-09T09:41:08Z</time>
      </trkpt>
      <trkpt lat="43.45176" lon="-0.59296">
        <ele>191.92</ele>
        <time>2020-02-09T09:41:12Z</time>
      </trkpt>
      <trkpt lat="43.45249" lon="-0.59404">
        <ele>190.48</ele>
        <time>2020-02-09T09:41:25Z</time>
      </trkpt>
      <trkpt lat="43.45307" lon="-0.59489">
        <ele>183.27</ele>
        <time>2020-02-09T09:41:34Z</time>
      </trkpt>
      <trkpt lat="43.45312" lon="-0.595">
        <ele>182.79</ele>
        <time>2020-02-09T09:41:35Z</time>
      </trkpt>
      <trkpt lat="43.45315" lon="-0.59512">
        <ele>182.79</ele>
        <time>2020-02-09T09:41:36Z</time>
      </trkpt>
      <trkpt lat="43.45333" lon="-0.59567">
        <ele>181.35</ele>
        <time>2020-02-09T09:41:41Z</time>
      </trkpt>
      <trkpt lat="43.45338" lon="-0.59577">
        <ele>180.38</ele>
        <time>2020-02-09T09:41:42Z</time>
      </trkpt>
      <trkpt lat="43.45407" lon="-0.59678">
        <ele>174.62</ele>
        <time>2020-02-09T09:41:55Z</time>
      </trkpt>
      <trkpt lat="43.45411" lon="-0.59683">
        <ele>174.14</ele>
        <time>2020-02-09T09:41:56Z</time>
      </trkpt>
      <trkpt lat="43.45414" lon="-0.59687">
        <ele>174.14</ele>
        <time>2020-02-09T09:41:57Z</time>
      </trkpt>
      <trkpt lat="43.45415" lon="-0.59691">
        <ele>174.14</ele>
        <time>2020-02-09T09:41:58Z</time>
      </trkpt>
      <trkpt lat="43.45415" lon="-0.59694">
        <ele>174.14</ele>
        <time>2020-02-09T09:41:59Z</time>
      </trkpt>
      <trkpt lat="43.45414" lon="-0.59697">
        <ele>174.14</ele>
        <time>2020-02-09T09:42:00Z</time>
      </trkpt>
      <trkpt lat="43.45413" lon="-0.59699">
        <ele>174.14</ele>
        <time>2020-02-09T09:42:01Z</time>
      </trkpt>
      <trkpt lat="43.4541" lon="-0.59701">
        <ele>174.14</ele>
        <time>2020-02-09T09:42:02Z</time>
      </trkpt>
      <trkpt lat="43.45407" lon="-0.59701">
        <ele>174.14</ele>
        <time>2020-02-09T09:42:03Z</time>
      </trkpt>
      <trkpt lat="43.45404" lon="-0.59701">
        <ele>174.62</ele>
        <time>2020-02-09T09:42:04Z</time>
      </trkpt>
      <trkpt lat="43.45398" lon="-0.59701">
        <ele>173.17</ele>
        <time>2020-02-09T09:42:14Z</time>
      </trkpt>
      <trkpt lat="43.45396" lon="-0.59701">
        <ele>172.69</ele>
        <time>2020-02-09T09:42:43Z</time>
      </trkpt>
      <trkpt lat="43.45388" lon="-0.597">
        <ele>174.14</ele>
        <time>2020-02-09T09:43:08Z</time>
      </trkpt>
      <trkpt lat="43.45386" lon="-0.597">
        <ele>174.14</ele>
        <time>2020-02-09T09:43:09Z</time>
      </trkpt>
      <trkpt lat="43.45383" lon="-0.59703">
        <ele>174.14</ele>
        <time>2020-02-09T09:43:10Z</time>
      </trkpt>
      <trkpt lat="43.4538" lon="-0.59707">
        <ele>173.66</ele>
        <time>2020-02-09T09:43:11Z</time>
      </trkpt>
      <trkpt lat="43.45377" lon="-0.59712">
        <ele>172.69</ele>
        <time>2020-02-09T09:43:12Z</time>
      </trkpt>
      <trkpt lat="43.45374" lon="-0.59718">
        <ele>172.21</ele>
        <time>2020-02-09T09:43:13Z</time>
      </trkpt>
      <trkpt lat="43.4534" lon="-0.59763">
        <ele>167.41</ele>
        <time>2020-02-09T09:43:22Z</time>
      </trkpt>
      <trkpt lat="43.45298" lon="-0.59809">
        <ele>164.04</ele>
        <time>2020-02-09T09:43:35Z</time>
      </trkpt>
      <trkpt lat="43.45258" lon="-0.59858">
        <ele>161.16</ele>
        <time>2020-02-09T09:43:49Z</time>
      </trkpt>
      <trkpt lat="43.45229" lon="-0.59894">
        <ele>158.27</ele>
        <time>2020-02-09T09:44:04Z</time>
      </trkpt>
      <trkpt lat="43.45219" lon="-0.59904">
        <ele>157.31</ele>
        <time>2020-02-09T09:44:13Z</time>
      </trkpt>
      <trkpt lat="43.45219" lon="-0.59903">
        <ele>158.27</ele>
        <time>2020-02-09T09:44:35Z</time>
      </trkpt>
      <trkpt lat="43.4522" lon="-0.59904">
        <ele>157.79</ele>
        <time>2020-02-09T09:45:01Z</time>
      </trkpt>
      <trkpt lat="43.45214" lon="-0.5991">
        <ele>157.79</ele>
        <time>2020-02-09T09:45:13Z</time>
      </trkpt>
      <trkpt lat="43.45211" lon="-0.59912">
        <ele>158.27</ele>
        <time>2020-02-09T09:45:29Z</time>
      </trkpt>
      <trkpt lat="43.45208" lon="-0.59915">
        <ele>156.35</ele>
        <time>2020-02-09T09:45:38Z</time>
      </trkpt>
      <trkpt lat="43.45205" lon="-0.59915">
        <ele>156.35</ele>
        <time>2020-02-09T09:45:43Z</time>
      </trkpt>
      <trkpt lat="43.45204" lon="-0.59914">
        <ele>156.35</ele>
        <time>2020-02-09T09:45:44Z</time>
      </trkpt>
      <trkpt lat="43.452" lon="-0.59911">
        <ele>155.87</ele>
        <time>2020-02-09T09:45:57Z</time>
      </trkpt>
      <trkpt lat="43.45198" lon="-0.59912">
        <ele>155.39</ele>
        <time>2020-02-09T09:45:58Z</time>
      </trkpt>
      <trkpt lat="43.45196" lon="-0.59913">
        <ele>155.39</ele>
        <time>2020-02-09T09:45:59Z</time>
      </trkpt>
      <trkpt lat="43.45194" lon="-0.59915">
        <ele>155.39</ele>
        <time>2020-02-09T09:46:00Z</time>
      </trkpt>
      <trkpt lat="43.45191" lon="-0.59916">
        <ele>155.39</ele>
        <time>2020-02-09T09:46:01Z</time>
      </trkpt>
      <trkpt lat="43.45147" lon="-0.59937">
        <ele>152.03</ele>
        <time>2020-02-09T09:46:13Z</time>
      </trkpt>
      <trkpt lat="43.45084" lon="-0.59969">
        <ele>146.74</ele>
        <time>2020-02-09T09:46:28Z</time>
      </trkpt>
      <trkpt lat="43.45028" lon="-0.59995">
        <ele>142.89</ele>
        <time>2020-02-09T09:46:41Z</time>
      </trkpt>
      <trkpt lat="43.44987" lon="-0.60013">
        <ele>139.05</ele>
        <time>2020-02-09T09:46:49Z</time>
      </trkpt>
      <trkpt lat="43.44984" lon="-0.60018">
        <ele>138.57</ele>
        <time>2020-02-09T09:46:50Z</time>
      </trkpt>
      <trkpt lat="43.44982" lon="-0.60023">
        <ele>137.61</ele>
        <time>2020-02-09T09:46:51Z</time>
      </trkpt>
      <trkpt lat="43.44981" lon="-0.6003">
        <ele>137.13</ele>
        <time>2020-02-09T09:46:52Z</time>
      </trkpt>
      <trkpt lat="43.44981" lon="-0.60035">
        <ele>136.64</ele>
        <time>2020-02-09T09:46:53Z</time>
      </trkpt>
      <trkpt lat="43.44981" lon="-0.60039">
        <ele>136.64</ele>
        <time>2020-02-09T09:46:54Z</time>
      </trkpt>
      <trkpt lat="43.44981" lon="-0.60042">
        <ele>136.16</ele>
        <time>2020-02-09T09:46:55Z</time>
      </trkpt>
      <trkpt lat="43.44981" lon="-0.60046">
        <ele>136.16</ele>
        <time>2020-02-09T09:46:56Z</time>
      </trkpt>
      <trkpt lat="43.44981" lon="-0.60049">
        <ele>135.68</ele>
        <time>2020-02-09T09:46:57Z</time>
      </trkpt>
      <trkpt lat="43.44967" lon="-0.6009">
        <ele>136.16</ele>
        <time>2020-02-09T09:47:09Z</time>
      </trkpt>
      <trkpt lat="43.44941" lon="-0.60119">
        <ele>136.64</ele>
        <time>2020-02-09T09:47:23Z</time>
      </trkpt>
      <trkpt lat="43.44912" lon="-0.60164">
        <ele>137.61</ele>
        <time>2020-02-09T09:47:36Z</time>
      </trkpt>
      <trkpt lat="43.44864" lon="-0.60213">
        <ele>134.24</ele>
        <time>2020-02-09T09:47:48Z</time>
      </trkpt>
      <trkpt lat="43.44815" lon="-0.60255">
        <ele>131.36</ele>
        <time>2020-02-09T09:48:00Z</time>
      </trkpt>
      <trkpt lat="43.44767" lon="-0.60317">
        <ele>130.88</ele>
        <time>2020-02-09T09:48:14Z</time>
      </trkpt>
      <trkpt lat="43.44753" lon="-0.60334">
        <ele>129.92</ele>
        <time>2020-02-09T09:48:18Z</time>
      </trkpt>
      <trkpt lat="43.44742" lon="-0.60346">
        <ele>129.43</ele>
        <time>2020-02-09T09:48:21Z</time>
      </trkpt>
      <trkpt lat="43.44738" lon="-0.60349">
        <ele>129.43</ele>
        <time>2020-02-09T09:48:22Z</time>
      </trkpt>
      <trkpt lat="43.4467" lon="-0.60417">
        <ele>126.55</ele>
        <time>2020-02-09T09:48:39Z</time>
      </trkpt>
      <trkpt lat="43.44631" lon="-0.60464">
        <ele>124.63</ele>
        <time>2020-02-09T09:48:51Z</time>
      </trkpt>
      <trkpt lat="43.44585" lon="-0.60524">
        <ele>124.63</ele>
        <time>2020-02-09T09:49:05Z</time>
      </trkpt>
      <trkpt lat="43.44556" lon="-0.60568">
        <ele>124.63</ele>
        <time>2020-02-09T09:49:16Z</time>
      </trkpt>
      <trkpt lat="43.44506" lon="-0.60645">
        <ele>122.71</ele>
        <time>2020-02-09T09:49:32Z</time>
      </trkpt>
      <trkpt lat="43.44434" lon="-0.60732">
        <ele>120.3</ele>
        <time>2020-02-09T09:49:49Z</time>
      </trkpt>
      <trkpt lat="43.44394" lon="-0.6078">
        <ele>119.34</ele>
        <time>2020-02-09T09:50:00Z</time>
      </trkpt>
      <trkpt lat="43.44392" lon="-0.60786">
        <ele>119.34</ele>
        <time>2020-02-09T09:50:01Z</time>
      </trkpt>
      <trkpt lat="43.4439" lon="-0.60792">
        <ele>119.34</ele>
        <time>2020-02-09T09:50:02Z</time>
      </trkpt>
      <trkpt lat="43.44389" lon="-0.60798">
        <ele>119.34</ele>
        <time>2020-02-09T09:50:03Z</time>
      </trkpt>
      <trkpt lat="43.44389" lon="-0.60804">
        <ele>119.34</ele>
        <time>2020-02-09T09:50:04Z</time>
      </trkpt>
      <trkpt lat="43.44388" lon="-0.6081">
        <ele>119.34</ele>
        <time>2020-02-09T09:50:05Z</time>
      </trkpt>
      <trkpt lat="43.44389" lon="-0.60815">
        <ele>119.34</ele>
        <time>2020-02-09T09:50:06Z</time>
      </trkpt>
      <trkpt lat="43.4439" lon="-0.60826">
        <ele>118.86</ele>
        <time>2020-02-09T09:50:08Z</time>
      </trkpt>
      <trkpt lat="43.44393" lon="-0.60849">
        <ele>117.9</ele>
        <time>2020-02-09T09:50:12Z</time>
      </trkpt>
      <trkpt lat="43.44394" lon="-0.60854">
        <ele>117.42</ele>
        <time>2020-02-09T09:50:13Z</time>
      </trkpt>
      <trkpt lat="43.44394" lon="-0.60859">
        <ele>116.94</ele>
        <time>2020-02-09T09:50:14Z</time>
      </trkpt>
      <trkpt lat="43.44391" lon="-0.60892">
        <ele>116.46</ele>
        <time>2020-02-09T09:50:21Z</time>
      </trkpt>
      <trkpt lat="43.44387" lon="-0.60895">
        <ele>115.98</ele>
        <time>2020-02-09T09:50:22Z</time>
      </trkpt>
      <trkpt lat="43.44373" lon="-0.60914">
        <ele>116.46</ele>
        <time>2020-02-09T09:50:27Z</time>
      </trkpt>
      <trkpt lat="43.44371" lon="-0.60919">
        <ele>116.46</ele>
        <time>2020-02-09T09:50:28Z</time>
      </trkpt>
      <trkpt lat="43.44369" lon="-0.60925">
        <ele>116.94</ele>
        <time>2020-02-09T09:50:29Z</time>
      </trkpt>
      <trkpt lat="43.44369" lon="-0.6093">
        <ele>116.94</ele>
        <time>2020-02-09T09:50:30Z</time>
      </trkpt>
      <trkpt lat="43.44369" lon="-0.60936">
        <ele>117.42</ele>
        <time>2020-02-09T09:50:31Z</time>
      </trkpt>
      <trkpt lat="43.44369" lon="-0.60941">
        <ele>117.9</ele>
        <time>2020-02-09T09:50:32Z</time>
      </trkpt>
      <trkpt lat="43.4437" lon="-0.60946">
        <ele>118.38</ele>
        <time>2020-02-09T09:50:33Z</time>
      </trkpt>
      <trkpt lat="43.44371" lon="-0.6095">
        <ele>118.38</ele>
        <time>2020-02-09T09:50:34Z</time>
      </trkpt>
      <trkpt lat="43.4438" lon="-0.60988">
        <ele>118.38</ele>
        <time>2020-02-09T09:50:47Z</time>
      </trkpt>
      <trkpt lat="43.44396" lon="-0.61042">
        <ele>119.34</ele>
        <time>2020-02-09T09:50:59Z</time>
      </trkpt>
      <trkpt lat="43.44415" lon="-0.61108">
        <ele>119.34</ele>
        <time>2020-02-09T09:51:11Z</time>
      </trkpt>
      <trkpt lat="43.44417" lon="-0.61113">
        <ele>118.86</ele>
        <time>2020-02-09T09:51:12Z</time>
      </trkpt>
      <trkpt lat="43.44433" lon="-0.61158">
        <ele>117.42</ele>
        <time>2020-02-09T09:51:20Z</time>
      </trkpt>
      <trkpt lat="43.44442" lon="-0.61175">
        <ele>116.94</ele>
        <time>2020-02-09T09:51:23Z</time>
      </trkpt>
      <trkpt lat="43.44446" lon="-0.61179">
        <ele>116.94</ele>
        <time>2020-02-09T09:51:24Z</time>
      </trkpt>
      <trkpt lat="43.44449" lon="-0.61184">
        <ele>116.46</ele>
        <time>2020-02-09T09:51:25Z</time>
      </trkpt>
      <trkpt lat="43.44453" lon="-0.61187">
        <ele>116.46</ele>
        <time>2020-02-09T09:51:26Z</time>
      </trkpt>
      <trkpt lat="43.44457" lon="-0.6119">
        <ele>116.46</ele>
        <time>2020-02-09T09:51:27Z</time>
      </trkpt>
      <trkpt lat="43.44461" lon="-0.61192">
        <ele>115.98</ele>
        <time>2020-02-09T09:51:28Z</time>
      </trkpt>
      <trkpt lat="43.44502" lon="-0.61208">
        <ele>118.38</ele>
        <time>2020-02-09T09:51:39Z</time>
      </trkpt>
      <trkpt lat="43.44527" lon="-0.61218">
        <ele>119.82</ele>
        <time>2020-02-09T09:51:45Z</time>
      </trkpt>
      <trkpt lat="43.44559" lon="-0.61233">
        <ele>121.26</ele>
        <time>2020-02-09T09:51:52Z</time>
      </trkpt>
      <trkpt lat="43.44569" lon="-0.61238">
        <ele>121.74</ele>
        <time>2020-02-09T09:51:54Z</time>
      </trkpt>
      <trkpt lat="43.44626" lon="-0.61258">
        <ele>122.71</ele>
        <time>2020-02-09T09:52:07Z</time>
      </trkpt>
      <trkpt lat="43.44629" lon="-0.61262">
        <ele>122.22</ele>
        <time>2020-02-09T09:52:10Z</time>
      </trkpt>
      <trkpt lat="43.44629" lon="-0.61265">
        <ele>122.22</ele>
        <time>2020-02-09T09:52:11Z</time>
      </trkpt>
      <trkpt lat="43.44629" lon="-0.61267">
        <ele>122.22</ele>
        <time>2020-02-09T09:52:12Z</time>
      </trkpt>
      <trkpt lat="43.44629" lon="-0.61273">
        <ele>122.22</ele>
        <time>2020-02-09T09:52:22Z</time>
      </trkpt>
      <trkpt lat="43.44627" lon="-0.61274">
        <ele>121.26</ele>
        <time>2020-02-09T09:52:49Z</time>
      </trkpt>
      <trkpt lat="43.44629" lon="-0.61276">
        <ele>121.74</ele>
        <time>2020-02-09T09:53:05Z</time>
      </trkpt>
      <trkpt lat="43.44629" lon="-0.61278">
        <ele>121.26</ele>
        <time>2020-02-09T09:53:06Z</time>
      </trkpt>
      <trkpt lat="43.44629" lon="-0.6128">
        <ele>120.78</ele>
        <time>2020-02-09T09:53:07Z</time>
      </trkpt>
      <trkpt lat="43.4462" lon="-0.61308">
        <ele>120.78</ele>
        <time>2020-02-09T09:53:18Z</time>
      </trkpt>
      <trkpt lat="43.44583" lon="-0.61328">
        <ele>120.3</ele>
        <time>2020-02-09T09:53:32Z</time>
      </trkpt>
      <trkpt lat="43.44524" lon="-0.61361">
        <ele>118.38</ele>
        <time>2020-02-09T09:53:49Z</time>
      </trkpt>
      <trkpt lat="43.44482" lon="-0.61381">
        <ele>117.9</ele>
        <time>2020-02-09T09:54:00Z</time>
      </trkpt>
      <trkpt lat="43.44478" lon="-0.61381">
        <ele>117.42</ele>
        <time>2020-02-09T09:54:01Z</time>
      </trkpt>
      <trkpt lat="43.44473" lon="-0.61383">
        <ele>117.42</ele>
        <time>2020-02-09T09:54:02Z</time>
      </trkpt>
      <trkpt lat="43.44415" lon="-0.61414">
        <ele>116.46</ele>
        <time>2020-02-09T09:54:14Z</time>
      </trkpt>
      <trkpt lat="43.44375" lon="-0.61437">
        <ele>115.5</ele>
        <time>2020-02-09T09:54:22Z</time>
      </trkpt>
      <trkpt lat="43.44371" lon="-0.6144">
        <ele>115.5</ele>
        <time>2020-02-09T09:54:23Z</time>
      </trkpt>
      <trkpt lat="43.4436" lon="-0.61457">
        <ele>115.5</ele>
        <time>2020-02-09T09:54:28Z</time>
      </trkpt>
      <trkpt lat="43.44359" lon="-0.61523">
        <ele>115.01</ele>
        <time>2020-02-09T09:54:39Z</time>
      </trkpt>
      <trkpt lat="43.44358" lon="-0.61528">
        <ele>114.53</ele>
        <time>2020-02-09T09:54:40Z</time>
      </trkpt>
      <trkpt lat="43.44356" lon="-0.61531">
        <ele>114.53</ele>
        <time>2020-02-09T09:54:41Z</time>
      </trkpt>
      <trkpt lat="43.44354" lon="-0.61533">
        <ele>114.53</ele>
        <time>2020-02-09T09:54:42Z</time>
      </trkpt>
      <trkpt lat="43.44352" lon="-0.61534">
        <ele>114.53</ele>
        <time>2020-02-09T09:54:43Z</time>
      </trkpt>
      <trkpt lat="43.4435" lon="-0.61534">
        <ele>114.53</ele>
        <time>2020-02-09T09:54:44Z</time>
      </trkpt>
      <trkpt lat="43.44349" lon="-0.61533">
        <ele>114.53</ele>
        <time>2020-02-09T09:54:53Z</time>
      </trkpt>
      <trkpt lat="43.44348" lon="-0.61531">
        <ele>113.57</ele>
        <time>2020-02-09T09:55:21Z</time>
      </trkpt>
      <trkpt lat="43.44348" lon="-0.61532">
        <ele>111.17</ele>
        <time>2020-02-09T09:55:55Z</time>
      </trkpt>
      <trkpt lat="43.44348" lon="-0.61533">
        <ele>109.25</ele>
        <time>2020-02-09T09:56:21Z</time>
      </trkpt>
      <trkpt lat="43.44348" lon="-0.61533">
        <ele>107.81</ele>
        <time>2020-02-09T09:56:51Z</time>
      </trkpt>
      <trkpt lat="43.44348" lon="-0.61534">
        <ele>108.77</ele>
        <time>2020-02-09T09:57:16Z</time>
      </trkpt>
      <trkpt lat="43.44348" lon="-0.61533">
        <ele>110.21</ele>
        <time>2020-02-09T09:57:42Z</time>
      </trkpt>
      <trkpt lat="43.44348" lon="-0.61532">
        <ele>111.17</ele>
        <time>2020-02-09T09:58:12Z</time>
      </trkpt>
      <trkpt lat="43.4435" lon="-0.61533">
        <ele>112.13</ele>
        <time>2020-02-09T09:58:37Z</time>
      </trkpt>
      <trkpt lat="43.44349" lon="-0.61534">
        <ele>112.61</ele>
        <time>2020-02-09T09:59:01Z</time>
      </trkpt>
      <trkpt lat="43.4435" lon="-0.61535">
        <ele>115.01</ele>
        <time>2020-02-09T09:59:20Z</time>
      </trkpt>
      <trkpt lat="43.44349" lon="-0.61533">
        <ele>116.46</ele>
        <time>2020-02-09T09:59:46Z</time>
      </trkpt>
      <trkpt lat="43.44349" lon="-0.61533">
        <ele>114.53</ele>
        <time>2020-02-09T10:00:17Z</time>
      </trkpt>
      <trkpt lat="43.44349" lon="-0.61532">
        <ele>115.01</ele>
        <time>2020-02-09T10:00:45Z</time>
      </trkpt>
      <trkpt lat="43.44348" lon="-0.61533">
        <ele>114.05</ele>
        <time>2020-02-09T10:01:13Z</time>
      </trkpt>
      <trkpt lat="43.44348" lon="-0.61536">
        <ele>114.53</ele>
        <time>2020-02-09T10:01:27Z</time>
      </trkpt>
      <trkpt lat="43.44348" lon="-0.61538">
        <ele>114.05</ele>
        <time>2020-02-09T10:01:29Z</time>
      </trkpt>
      <trkpt lat="43.44332" lon="-0.61566">
        <ele>115.01</ele>
        <time>2020-02-09T10:01:40Z</time>
      </trkpt>
      <trkpt lat="43.44322" lon="-0.61587">
        <ele>115.5</ele>
        <time>2020-02-09T10:01:47Z</time>
      </trkpt>
      <trkpt lat="43.44301" lon="-0.61594">
        <ele>116.46</ele>
        <time>2020-02-09T10:01:55Z</time>
      </trkpt>
      <trkpt lat="43.44291" lon="-0.61596">
        <ele>116.46</ele>
        <time>2020-02-09T10:01:59Z</time>
      </trkpt>
      <trkpt lat="43.44287" lon="-0.61597">
        <ele>117.9</ele>
        <time>2020-02-09T10:02:14Z</time>
      </trkpt>
      <trkpt lat="43.44286" lon="-0.61599">
        <ele>118.38</ele>
        <time>2020-02-09T10:02:27Z</time>
      </trkpt>
      <trkpt lat="43.44284" lon="-0.61607">
        <ele>119.82</ele>
        <time>2020-02-09T10:02:31Z</time>
      </trkpt>
      <trkpt lat="43.44286" lon="-0.61638">
        <ele>119.82</ele>
        <time>2020-02-09T10:02:42Z</time>
      </trkpt>
      <trkpt lat="43.44287" lon="-0.61641">
        <ele>119.82</ele>
        <time>2020-02-09T10:02:53Z</time>
      </trkpt>
      <trkpt lat="43.44289" lon="-0.61644">
        <ele>122.71</ele>
        <time>2020-02-09T10:03:16Z</time>
      </trkpt>
      <trkpt lat="43.44291" lon="-0.61652">
        <ele>126.55</ele>
        <time>2020-02-09T10:03:30Z</time>
      </trkpt>
      <trkpt lat="43.44288" lon="-0.61662">
        <ele>125.11</ele>
        <time>2020-02-09T10:03:34Z</time>
      </trkpt>
      <trkpt lat="43.44289" lon="-0.61668">
        <ele>124.63</ele>
        <time>2020-02-09T10:03:37Z</time>
      </trkpt>
      <trkpt lat="43.44292" lon="-0.61671">
        <ele>124.63</ele>
        <time>2020-02-09T10:03:40Z</time>
      </trkpt>
      <trkpt lat="43.44285" lon="-0.61681">
        <ele>122.71</ele>
        <time>2020-02-09T10:03:48Z</time>
      </trkpt>
      <trkpt lat="43.44277" lon="-0.61697">
        <ele>125.59</ele>
        <time>2020-02-09T10:03:56Z</time>
      </trkpt>
      <trkpt lat="43.44272" lon="-0.61716">
        <ele>129.43</ele>
        <time>2020-02-09T10:04:05Z</time>
      </trkpt>
      <trkpt lat="43.44271" lon="-0.61718">
        <ele>129.43</ele>
        <time>2020-02-09T10:04:07Z</time>
      </trkpt>
      <trkpt lat="43.44273" lon="-0.61722">
        <ele>129.43</ele>
        <time>2020-02-09T10:04:10Z</time>
      </trkpt>
      <trkpt lat="43.44274" lon="-0.61726">
        <ele>128.47</ele>
        <time>2020-02-09T10:04:12Z</time>
      </trkpt>
      <trkpt lat="43.44289" lon="-0.61733">
        <ele>128.95</ele>
        <time>2020-02-09T10:04:24Z</time>
      </trkpt>
      <trkpt lat="43.4429" lon="-0.61733">
        <ele>129.43</ele>
        <time>2020-02-09T10:04:25Z</time>
      </trkpt>
      <trkpt lat="43.44309" lon="-0.61733">
        <ele>134.72</ele>
        <time>2020-02-09T10:04:36Z</time>
      </trkpt>
      <trkpt lat="43.44313" lon="-0.61732">
        <ele>135.2</ele>
        <time>2020-02-09T10:04:38Z</time>
      </trkpt>
      <trkpt lat="43.44317" lon="-0.61743">
        <ele>135.68</ele>
        <time>2020-02-09T10:04:44Z</time>
      </trkpt>
      <trkpt lat="43.44308" lon="-0.6176">
        <ele>135.2</ele>
        <time>2020-02-09T10:04:52Z</time>
      </trkpt>
      <trkpt lat="43.44314" lon="-0.61772">
        <ele>138.09</ele>
        <time>2020-02-09T10:04:59Z</time>
      </trkpt>
      <trkpt lat="43.44308" lon="-0.61787">
        <ele>135.68</ele>
        <time>2020-02-09T10:05:06Z</time>
      </trkpt>
      <trkpt lat="43.44313" lon="-0.61796">
        <ele>133.28</ele>
        <time>2020-02-09T10:05:12Z</time>
      </trkpt>
      <trkpt lat="43.44319" lon="-0.61789">
        <ele>132.8</ele>
        <time>2020-02-09T10:05:18Z</time>
      </trkpt>
      <trkpt lat="43.4433" lon="-0.61778">
        <ele>132.32</ele>
        <time>2020-02-09T10:05:27Z</time>
      </trkpt>
      <trkpt lat="43.44334" lon="-0.61769">
        <ele>131.84</ele>
        <time>2020-02-09T10:05:30Z</time>
      </trkpt>
      <trkpt lat="43.44343" lon="-0.61754">
        <ele>133.76</ele>
        <time>2020-02-09T10:05:40Z</time>
      </trkpt>
      <trkpt lat="43.44342" lon="-0.61753">
        <ele>133.76</ele>
        <time>2020-02-09T10:05:41Z</time>
      </trkpt>
      <trkpt lat="43.44348" lon="-0.61743">
        <ele>131.84</ele>
        <time>2020-02-09T10:05:45Z</time>
      </trkpt>
      <trkpt lat="43.44358" lon="-0.61744">
        <ele>129.92</ele>
        <time>2020-02-09T10:05:49Z</time>
      </trkpt>
      <trkpt lat="43.44376" lon="-0.61733">
        <ele>131.36</ele>
        <time>2020-02-09T10:05:56Z</time>
      </trkpt>
      <trkpt lat="43.44386" lon="-0.61731">
        <ele>133.28</ele>
        <time>2020-02-09T10:06:00Z</time>
      </trkpt>
      <trkpt lat="43.44396" lon="-0.61733">
        <ele>134.24</ele>
        <time>2020-02-09T10:06:04Z</time>
      </trkpt>
      <trkpt lat="43.44415" lon="-0.61735">
        <ele>136.16</ele>
        <time>2020-02-09T10:06:12Z</time>
      </trkpt>
      <trkpt lat="43.4442" lon="-0.61733">
        <ele>137.13</ele>
        <time>2020-02-09T10:06:14Z</time>
      </trkpt>
      <trkpt lat="43.44429" lon="-0.6173">
        <ele>136.64</ele>
        <time>2020-02-09T10:06:18Z</time>
      </trkpt>
      <trkpt lat="43.4443" lon="-0.61746">
        <ele>134.72</ele>
        <time>2020-02-09T10:06:26Z</time>
      </trkpt>
      <trkpt lat="43.44438" lon="-0.61748">
        <ele>134.72</ele>
        <time>2020-02-09T10:06:31Z</time>
      </trkpt>
      <trkpt lat="43.44458" lon="-0.61761">
        <ele>138.09</ele>
        <time>2020-02-09T10:06:39Z</time>
      </trkpt>
      <trkpt lat="43.44481" lon="-0.61775">
        <ele>142.89</ele>
        <time>2020-02-09T10:06:48Z</time>
      </trkpt>
      <trkpt lat="43.44486" lon="-0.61785">
        <ele>137.13</ele>
        <time>2020-02-09T10:06:59Z</time>
      </trkpt>
      <trkpt lat="43.44487" lon="-0.61789">
        <ele>133.76</ele>
        <time>2020-02-09T10:07:06Z</time>
      </trkpt>
      <trkpt lat="43.44488" lon="-0.61812">
        <ele>130.4</ele>
        <time>2020-02-09T10:07:16Z</time>
      </trkpt>
      <trkpt lat="43.44494" lon="-0.61825">
        <ele>129.92</ele>
        <time>2020-02-09T10:07:20Z</time>
      </trkpt>
      <trkpt lat="43.44489" lon="-0.61849">
        <ele>130.4</ele>
        <time>2020-02-09T10:07:29Z</time>
      </trkpt>
      <trkpt lat="43.44473" lon="-0.61856">
        <ele>128.95</ele>
        <time>2020-02-09T10:07:34Z</time>
      </trkpt>
      <trkpt lat="43.44452" lon="-0.61866">
        <ele>125.11</ele>
        <time>2020-02-09T10:07:43Z</time>
      </trkpt>
      <trkpt lat="43.44443" lon="-0.6187">
        <ele>122.71</ele>
        <time>2020-02-09T10:07:48Z</time>
      </trkpt>
      <trkpt lat="43.44432" lon="-0.61869">
        <ele>120.78</ele>
        <time>2020-02-09T10:07:52Z</time>
      </trkpt>
      <trkpt lat="43.44414" lon="-0.61877">
        <ele>117.42</ele>
        <time>2020-02-09T10:08:00Z</time>
      </trkpt>
      <trkpt lat="43.44391" lon="-0.61873">
        <ele>116.94</ele>
        <time>2020-02-09T10:08:09Z</time>
      </trkpt>
      <trkpt lat="43.44378" lon="-0.61883">
        <ele>115.01</ele>
        <time>2020-02-09T10:08:16Z</time>
      </trkpt>
      <trkpt lat="43.44366" lon="-0.61884">
        <ele>113.57</ele>
        <time>2020-02-09T10:08:21Z</time>
      </trkpt>
      <trkpt lat="43.44353" lon="-0.61885">
        <ele>112.61</ele>
        <time>2020-02-09T10:08:33Z</time>
      </trkpt>
      <trkpt lat="43.44349" lon="-0.61889">
        <ele>112.13</ele>
        <time>2020-02-09T10:08:39Z</time>
      </trkpt>
      <trkpt lat="43.44344" lon="-0.61892">
        <ele>113.57</ele>
        <time>2020-02-09T10:08:52Z</time>
      </trkpt>
      <trkpt lat="43.44343" lon="-0.61897">
        <ele>116.46</ele>
        <time>2020-02-09T10:09:05Z</time>
      </trkpt>
      <trkpt lat="43.44344" lon="-0.61899">
        <ele>115.98</ele>
        <time>2020-02-09T10:09:13Z</time>
      </trkpt>
      <trkpt lat="43.44347" lon="-0.61909">
        <ele>115.98</ele>
        <time>2020-02-09T10:09:18Z</time>
      </trkpt>
      <trkpt lat="43.44346" lon="-0.61916">
        <ele>115.5</ele>
        <time>2020-02-09T10:09:21Z</time>
      </trkpt>
      <trkpt lat="43.44345" lon="-0.6193">
        <ele>115.01</ele>
        <time>2020-02-09T10:09:26Z</time>
      </trkpt>
      <trkpt lat="43.44338" lon="-0.61944">
        <ele>116.46</ele>
        <time>2020-02-09T10:09:30Z</time>
      </trkpt>
      <trkpt lat="43.44332" lon="-0.61958">
        <ele>117.9</ele>
        <time>2020-02-09T10:09:35Z</time>
      </trkpt>
      <trkpt lat="43.44323" lon="-0.61962">
        <ele>117.9</ele>
        <time>2020-02-09T10:09:39Z</time>
      </trkpt>
      <trkpt lat="43.44315" lon="-0.61976">
        <ele>117.9</ele>
        <time>2020-02-09T10:09:47Z</time>
      </trkpt>
      <trkpt lat="43.44305" lon="-0.61984">
        <ele>116.46</ele>
        <time>2020-02-09T10:09:52Z</time>
      </trkpt>
      <trkpt lat="43.44289" lon="-0.61997">
        <ele>115.5</ele>
        <time>2020-02-09T10:10:00Z</time>
      </trkpt>
      <trkpt lat="43.44284" lon="-0.62007">
        <ele>115.98</ele>
        <time>2020-02-09T10:10:04Z</time>
      </trkpt>
      <trkpt lat="43.44282" lon="-0.62029">
        <ele>115.98</ele>
        <time>2020-02-09T10:10:09Z</time>
      </trkpt>
      <trkpt lat="43.44297" lon="-0.62046">
        <ele>117.42</ele>
        <time>2020-02-09T10:10:18Z</time>
      </trkpt>
      <trkpt lat="43.44311" lon="-0.62053">
        <ele>121.74</ele>
        <time>2020-02-09T10:10:24Z</time>
      </trkpt>
      <trkpt lat="43.44336" lon="-0.62059">
        <ele>126.07</ele>
        <time>2020-02-09T10:10:32Z</time>
      </trkpt>
      <trkpt lat="43.44357" lon="-0.62095">
        <ele>126.07</ele>
        <time>2020-02-09T10:10:42Z</time>
      </trkpt>
      <trkpt lat="43.44354" lon="-0.62112">
        <ele>120.3</ele>
        <time>2020-02-09T10:10:49Z</time>
      </trkpt>
      <trkpt lat="43.44349" lon="-0.62111">
        <ele>116.94</ele>
        <time>2020-02-09T10:11:03Z</time>
      </trkpt>
      <trkpt lat="43.44346" lon="-0.6211">
        <ele>117.9</ele>
        <time>2020-02-09T10:11:33Z</time>
      </trkpt>
      <trkpt lat="43.4434" lon="-0.62109">
        <ele>114.53</ele>
        <time>2020-02-09T10:11:58Z</time>
      </trkpt>
      <trkpt lat="43.44302" lon="-0.62082">
        <ele>112.61</ele>
        <time>2020-02-09T10:12:14Z</time>
      </trkpt>
      <trkpt lat="43.44248" lon="-0.62043">
        <ele>110.21</ele>
        <time>2020-02-09T10:12:30Z</time>
      </trkpt>
      <trkpt lat="43.44209" lon="-0.62026">
        <ele>108.77</ele>
        <time>2020-02-09T10:12:42Z</time>
      </trkpt>
      <trkpt lat="43.44167" lon="-0.62022">
        <ele>106.36</ele>
        <time>2020-02-09T10:12:53Z</time>
      </trkpt>
      <trkpt lat="43.44152" lon="-0.6202">
        <ele>105.88</ele>
        <time>2020-02-09T10:12:57Z</time>
      </trkpt>
      <trkpt lat="43.44134" lon="-0.6204">
        <ele>108.77</ele>
        <time>2020-02-09T10:13:05Z</time>
      </trkpt>
      <trkpt lat="43.44136" lon="-0.6205">
        <ele>109.25</ele>
        <time>2020-02-09T10:13:07Z</time>
      </trkpt>
      <trkpt lat="43.44139" lon="-0.62061">
        <ele>110.21</ele>
        <time>2020-02-09T10:13:09Z</time>
      </trkpt>
      <trkpt lat="43.44131" lon="-0.62105">
        <ele>110.21</ele>
        <time>2020-02-09T10:13:17Z</time>
      </trkpt>
      <trkpt lat="43.44126" lon="-0.62114">
        <ele>109.73</ele>
        <time>2020-02-09T10:13:19Z</time>
      </trkpt>
      <trkpt lat="43.44122" lon="-0.62135">
        <ele>109.25</ele>
        <time>2020-02-09T10:13:23Z</time>
      </trkpt>
      <trkpt lat="43.44123" lon="-0.62189">
        <ele>108.29</ele>
        <time>2020-02-09T10:13:35Z</time>
      </trkpt>
      <trkpt lat="43.44124" lon="-0.62206">
        <ele>108.29</ele>
        <time>2020-02-09T10:13:40Z</time>
      </trkpt>
      <trkpt lat="43.44116" lon="-0.62234">
        <ele>107.32</ele>
        <time>2020-02-09T10:13:48Z</time>
      </trkpt>
      <trkpt lat="43.44086" lon="-0.62291">
        <ele>106.84</ele>
        <time>2020-02-09T10:14:04Z</time>
      </trkpt>
      <trkpt lat="43.44052" lon="-0.62348">
        <ele>104.44</ele>
        <time>2020-02-09T10:14:18Z</time>
      </trkpt>
      <trkpt lat="43.44039" lon="-0.62399">
        <ele>102.04</ele>
        <time>2020-02-09T10:14:30Z</time>
      </trkpt>
      <trkpt lat="43.44029" lon="-0.62448">
        <ele>102.52</ele>
        <time>2020-02-09T10:14:42Z</time>
      </trkpt>
      <trkpt lat="43.44019" lon="-0.62497">
        <ele>102.04</ele>
        <time>2020-02-09T10:14:54Z</time>
      </trkpt>
      <trkpt lat="43.44012" lon="-0.62543">
        <ele>103.48</ele>
        <time>2020-02-09T10:15:08Z</time>
      </trkpt>
      <trkpt lat="43.44027" lon="-0.62584">
        <ele>105.4</ele>
        <time>2020-02-09T10:15:22Z</time>
      </trkpt>
      <trkpt lat="43.44055" lon="-0.62622">
        <ele>107.81</ele>
        <time>2020-02-09T10:15:37Z</time>
      </trkpt>
      <trkpt lat="43.44077" lon="-0.62652">
        <ele>111.17</ele>
        <time>2020-02-09T10:15:49Z</time>
      </trkpt>
      <trkpt lat="43.44105" lon="-0.62683">
        <ele>112.13</ele>
        <time>2020-02-09T10:16:04Z</time>
      </trkpt>
      <trkpt lat="43.44124" lon="-0.62718">
        <ele>110.21</ele>
        <time>2020-02-09T10:16:17Z</time>
      </trkpt>
      <trkpt lat="43.44139" lon="-0.62794">
        <ele>108.29</ele>
        <time>2020-02-09T10:16:34Z</time>
      </trkpt>
      <trkpt lat="43.44146" lon="-0.62857">
        <ele>105.88</ele>
        <time>2020-02-09T10:16:43Z</time>
      </trkpt>
      <trkpt lat="43.44146" lon="-0.62944">
        <ele>105.4</ele>
        <time>2020-02-09T10:16:59Z</time>
      </trkpt>
      <trkpt lat="43.44135" lon="-0.62991">
        <ele>105.88</ele>
        <time>2020-02-09T10:17:11Z</time>
      </trkpt>
      <trkpt lat="43.44073" lon="-0.63022">
        <ele>105.4</ele>
        <time>2020-02-09T10:17:24Z</time>
      </trkpt>
      <trkpt lat="43.44016" lon="-0.63043">
        <ele>103.96</ele>
        <time>2020-02-09T10:17:34Z</time>
      </trkpt>
      <trkpt lat="43.44012" lon="-0.63046">
        <ele>103.48</ele>
        <time>2020-02-09T10:17:35Z</time>
      </trkpt>
      <trkpt lat="43.4401" lon="-0.63048">
        <ele>103.48</ele>
        <time>2020-02-09T10:17:36Z</time>
      </trkpt>
      <trkpt lat="43.4401" lon="-0.63052">
        <ele>103</ele>
        <time>2020-02-09T10:17:37Z</time>
      </trkpt>
      <trkpt lat="43.4401" lon="-0.63105">
        <ele>101.08</ele>
        <time>2020-02-09T10:17:50Z</time>
      </trkpt>
      <trkpt lat="43.44011" lon="-0.63132">
        <ele>101.56</ele>
        <time>2020-02-09T10:17:59Z</time>
      </trkpt>
      <trkpt lat="43.44012" lon="-0.63135">
        <ele>101.56</ele>
        <time>2020-02-09T10:18:03Z</time>
      </trkpt>
      <trkpt lat="43.44018" lon="-0.63136">
        <ele>102.04</ele>
        <time>2020-02-09T10:18:10Z</time>
      </trkpt>
      <trkpt lat="43.44025" lon="-0.63125">
        <ele>104.44</ele>
        <time>2020-02-09T10:18:16Z</time>
      </trkpt>
      <trkpt lat="43.4403" lon="-0.63103">
        <ele>106.84</ele>
        <time>2020-02-09T10:18:25Z</time>
      </trkpt>
      <trkpt lat="43.44032" lon="-0.63074">
        <ele>108.77</ele>
        <time>2020-02-09T10:18:35Z</time>
      </trkpt>
      <trkpt lat="43.44045" lon="-0.63059">
        <ele>111.17</ele>
        <time>2020-02-09T10:18:44Z</time>
      </trkpt>
      <trkpt lat="43.44054" lon="-0.63055">
        <ele>115.5</ele>
        <time>2020-02-09T10:18:59Z</time>
      </trkpt>
      <trkpt lat="43.44057" lon="-0.63055">
        <ele>115.98</ele>
        <time>2020-02-09T10:19:13Z</time>
      </trkpt>
      <trkpt lat="43.44065" lon="-0.63058">
        <ele>119.82</ele>
        <time>2020-02-09T10:19:23Z</time>
      </trkpt>
      <trkpt lat="43.44065" lon="-0.63061">
        <ele>119.82</ele>
        <time>2020-02-09T10:19:25Z</time>
      </trkpt>
      <trkpt lat="43.44071" lon="-0.63077">
        <ele>123.19</ele>
        <time>2020-02-09T10:19:34Z</time>
      </trkpt>
      <trkpt lat="43.44072" lon="-0.63085">
        <ele>124.15</ele>
        <time>2020-02-09T10:19:37Z</time>
      </trkpt>
      <trkpt lat="43.44074" lon="-0.63094">
        <ele>125.59</ele>
        <time>2020-02-09T10:19:40Z</time>
      </trkpt>
      <trkpt lat="43.44082" lon="-0.63104">
        <ele>127.51</ele>
        <time>2020-02-09T10:19:45Z</time>
      </trkpt>
      <trkpt lat="43.44087" lon="-0.63104">
        <ele>127.99</ele>
        <time>2020-02-09T10:19:47Z</time>
      </trkpt>
      <trkpt lat="43.44092" lon="-0.63127">
        <ele>130.4</ele>
        <time>2020-02-09T10:19:56Z</time>
      </trkpt>
      <trkpt lat="43.44092" lon="-0.63138">
        <ele>130.88</ele>
        <time>2020-02-09T10:20:00Z</time>
      </trkpt>
      <trkpt lat="43.44074" lon="-0.63159">
        <ele>129.92</ele>
        <time>2020-02-09T10:20:09Z</time>
      </trkpt>
      <trkpt lat="43.44071" lon="-0.63182">
        <ele>128.95</ele>
        <time>2020-02-09T10:20:18Z</time>
      </trkpt>
      <trkpt lat="43.4408" lon="-0.63195">
        <ele>128.95</ele>
        <time>2020-02-09T10:20:22Z</time>
      </trkpt>
      <trkpt lat="43.44086" lon="-0.63203">
        <ele>128.95</ele>
        <time>2020-02-09T10:20:24Z</time>
      </trkpt>
      <trkpt lat="43.44083" lon="-0.63227">
        <ele>128.47</ele>
        <time>2020-02-09T10:20:32Z</time>
      </trkpt>
      <trkpt lat="43.44072" lon="-0.6324">
        <ele>128.47</ele>
        <time>2020-02-09T10:20:36Z</time>
      </trkpt>
      <trkpt lat="43.44057" lon="-0.6325">
        <ele>126.07</ele>
        <time>2020-02-09T10:20:40Z</time>
      </trkpt>
      <trkpt lat="43.44041" lon="-0.63265">
        <ele>125.59</ele>
        <time>2020-02-09T10:20:46Z</time>
      </trkpt>
      <trkpt lat="43.4403" lon="-0.63268">
        <ele>126.07</ele>
        <time>2020-02-09T10:20:50Z</time>
      </trkpt>
      <trkpt lat="43.44021" lon="-0.63276">
        <ele>127.03</ele>
        <time>2020-02-09T10:21:04Z</time>
      </trkpt>
      <trkpt lat="43.44019" lon="-0.63275">
        <ele>128.47</ele>
        <time>2020-02-09T10:21:31Z</time>
      </trkpt>
      <trkpt lat="43.44016" lon="-0.63286">
        <ele>127.51</ele>
        <time>2020-02-09T10:21:43Z</time>
      </trkpt>
      <trkpt lat="43.44008" lon="-0.63284">
        <ele>125.11</ele>
        <time>2020-02-09T10:21:54Z</time>
      </trkpt>
      <trkpt lat="43.44002" lon="-0.63286">
        <ele>123.67</ele>
        <time>2020-02-09T10:21:59Z</time>
      </trkpt>
      <trkpt lat="43.43995" lon="-0.63304">
        <ele>120.3</ele>
        <time>2020-02-09T10:22:08Z</time>
      </trkpt>
      <trkpt lat="43.43982" lon="-0.63321">
        <ele>116.46</ele>
        <time>2020-02-09T10:22:14Z</time>
      </trkpt>
      <trkpt lat="43.4398" lon="-0.63334">
        <ele>115.5</ele>
        <time>2020-02-09T10:22:18Z</time>
      </trkpt>
      <trkpt lat="43.43977" lon="-0.63359">
        <ele>116.46</ele>
        <time>2020-02-09T10:22:26Z</time>
      </trkpt>
      <trkpt lat="43.43978" lon="-0.63364">
        <ele>116.46</ele>
        <time>2020-02-09T10:22:30Z</time>
      </trkpt>
      <trkpt lat="43.43992" lon="-0.63392">
        <ele>117.9</ele>
        <time>2020-02-09T10:22:39Z</time>
      </trkpt>
      <trkpt lat="43.44006" lon="-0.63395">
        <ele>118.86</ele>
        <time>2020-02-09T10:22:44Z</time>
      </trkpt>
      <trkpt lat="43.44021" lon="-0.63397">
        <ele>119.34</ele>
        <time>2020-02-09T10:22:49Z</time>
      </trkpt>
      <trkpt lat="43.44033" lon="-0.63377">
        <ele>117.42</ele>
        <time>2020-02-09T10:22:57Z</time>
      </trkpt>
      <trkpt lat="43.44043" lon="-0.63355">
        <ele>117.9</ele>
        <time>2020-02-09T10:23:06Z</time>
      </trkpt>
      <trkpt lat="43.44043" lon="-0.63351">
        <ele>117.9</ele>
        <time>2020-02-09T10:23:08Z</time>
      </trkpt>
      <trkpt lat="43.44056" lon="-0.63338">
        <ele>119.34</ele>
        <time>2020-02-09T10:23:16Z</time>
      </trkpt>
      <trkpt lat="43.44063" lon="-0.63328">
        <ele>120.3</ele>
        <time>2020-02-09T10:23:27Z</time>
      </trkpt>
      <trkpt lat="43.44069" lon="-0.63312">
        <ele>124.15</ele>
        <time>2020-02-09T10:23:38Z</time>
      </trkpt>
      <trkpt lat="43.44082" lon="-0.63295">
        <ele>127.03</ele>
        <time>2020-02-09T10:23:49Z</time>
      </trkpt>
      <trkpt lat="43.44096" lon="-0.63284">
        <ele>127.99</ele>
        <time>2020-02-09T10:23:55Z</time>
      </trkpt>
      <trkpt lat="43.44102" lon="-0.63302">
        <ele>125.59</ele>
        <time>2020-02-09T10:24:03Z</time>
      </trkpt>
      <trkpt lat="43.44101" lon="-0.63311">
        <ele>124.15</ele>
        <time>2020-02-09T10:24:06Z</time>
      </trkpt>
      <trkpt lat="43.44105" lon="-0.63314">
        <ele>123.67</ele>
        <time>2020-02-09T10:24:08Z</time>
      </trkpt>
      <trkpt lat="43.44112" lon="-0.63319">
        <ele>122.22</ele>
        <time>2020-02-09T10:24:18Z</time>
      </trkpt>
      <trkpt lat="43.44119" lon="-0.63324">
        <ele>120.78</ele>
        <time>2020-02-09T10:24:24Z</time>
      </trkpt>
      <trkpt lat="43.44134" lon="-0.63323">
        <ele>120.78</ele>
        <time>2020-02-09T10:24:32Z</time>
      </trkpt>
      <trkpt lat="43.44141" lon="-0.63324">
        <ele>120.78</ele>
        <time>2020-02-09T10:24:35Z</time>
      </trkpt>
      <trkpt lat="43.44158" lon="-0.63333">
        <ele>125.11</ele>
        <time>2020-02-09T10:24:46Z</time>
      </trkpt>
      <trkpt lat="43.44162" lon="-0.63343">
        <ele>127.03</ele>
        <time>2020-02-09T10:24:51Z</time>
      </trkpt>
      <trkpt lat="43.44162" lon="-0.63349">
        <ele>127.99</ele>
        <time>2020-02-09T10:24:53Z</time>
      </trkpt>
      <trkpt lat="43.44159" lon="-0.63362">
        <ele>128.95</ele>
        <time>2020-02-09T10:24:58Z</time>
      </trkpt>
      <trkpt lat="43.4415" lon="-0.63383">
        <ele>121.26</ele>
        <time>2020-02-09T10:25:06Z</time>
      </trkpt>
      <trkpt lat="43.44145" lon="-0.63385">
        <ele>120.3</ele>
        <time>2020-02-09T10:25:08Z</time>
      </trkpt>
      <trkpt lat="43.44125" lon="-0.6338">
        <ele>115.5</ele>
        <time>2020-02-09T10:25:15Z</time>
      </trkpt>
      <trkpt lat="43.44114" lon="-0.63389">
        <ele>110.21</ele>
        <time>2020-02-09T10:25:24Z</time>
      </trkpt>
      <trkpt lat="43.44097" lon="-0.63384">
        <ele>107.32</ele>
        <time>2020-02-09T10:25:32Z</time>
      </trkpt>
      <trkpt lat="43.44093" lon="-0.63382">
        <ele>105.88</ele>
        <time>2020-02-09T10:25:34Z</time>
      </trkpt>
      <trkpt lat="43.44086" lon="-0.6339">
        <ele>103.96</ele>
        <time>2020-02-09T10:25:39Z</time>
      </trkpt>
      <trkpt lat="43.4409" lon="-0.63412">
        <ele>105.88</ele>
        <time>2020-02-09T10:25:49Z</time>
      </trkpt>
      <trkpt lat="43.44089" lon="-0.63416">
        <ele>106.36</ele>
        <time>2020-02-09T10:25:50Z</time>
      </trkpt>
      <trkpt lat="43.44087" lon="-0.63418">
        <ele>106.36</ele>
        <time>2020-02-09T10:25:51Z</time>
      </trkpt>
      <trkpt lat="43.44086" lon="-0.6342">
        <ele>106.36</ele>
        <time>2020-02-09T10:25:52Z</time>
      </trkpt>
      <trkpt lat="43.44085" lon="-0.63423">
        <ele>106.36</ele>
        <time>2020-02-09T10:25:53Z</time>
      </trkpt>
      <trkpt lat="43.44084" lon="-0.63426">
        <ele>106.84</ele>
        <time>2020-02-09T10:25:54Z</time>
      </trkpt>
      <trkpt lat="43.44079" lon="-0.63447">
        <ele>107.32</ele>
        <time>2020-02-09T10:26:00Z</time>
      </trkpt>
      <trkpt lat="43.4408" lon="-0.63449">
        <ele>107.81</ele>
        <time>2020-02-09T10:26:01Z</time>
      </trkpt>
      <trkpt lat="43.44081" lon="-0.63451">
        <ele>108.29</ele>
        <time>2020-02-09T10:26:02Z</time>
      </trkpt>
      <trkpt lat="43.44082" lon="-0.63452">
        <ele>108.29</ele>
        <time>2020-02-09T10:26:03Z</time>
      </trkpt>
      <trkpt lat="43.44083" lon="-0.63454">
        <ele>108.77</ele>
        <time>2020-02-09T10:26:04Z</time>
      </trkpt>
      <trkpt lat="43.44082" lon="-0.63456">
        <ele>108.77</ele>
        <time>2020-02-09T10:26:05Z</time>
      </trkpt>
      <trkpt lat="43.4408" lon="-0.63459">
        <ele>108.29</ele>
        <time>2020-02-09T10:26:07Z</time>
      </trkpt>
      <trkpt lat="43.44077" lon="-0.63464">
        <ele>108.77</ele>
        <time>2020-02-09T10:26:09Z</time>
      </trkpt>
      <trkpt lat="43.44075" lon="-0.63467">
        <ele>108.77</ele>
        <time>2020-02-09T10:26:10Z</time>
      </trkpt>
      <trkpt lat="43.44072" lon="-0.6347">
        <ele>108.77</ele>
        <time>2020-02-09T10:26:11Z</time>
      </trkpt>
      <trkpt lat="43.4407" lon="-0.63473">
        <ele>108.77</ele>
        <time>2020-02-09T10:26:12Z</time>
      </trkpt>
      <trkpt lat="43.44058" lon="-0.63478">
        <ele>109.25</ele>
        <time>2020-02-09T10:26:16Z</time>
      </trkpt>
      <trkpt lat="43.44051" lon="-0.63479">
        <ele>109.73</ele>
        <time>2020-02-09T10:26:18Z</time>
      </trkpt>
      <trkpt lat="43.44031" lon="-0.63477">
        <ele>110.21</ele>
        <time>2020-02-09T10:26:25Z</time>
      </trkpt>
      <trkpt lat="43.44017" lon="-0.63476">
        <ele>109.25</ele>
        <time>2020-02-09T10:26:32Z</time>
      </trkpt>
      <trkpt lat="43.44014" lon="-0.63477">
        <ele>108.77</ele>
        <time>2020-02-09T10:26:34Z</time>
      </trkpt>
      <trkpt lat="43.44014" lon="-0.6348">
        <ele>108.29</ele>
        <time>2020-02-09T10:26:36Z</time>
      </trkpt>
      <trkpt lat="43.44004" lon="-0.6349">
        <ele>109.25</ele>
        <time>2020-02-09T10:26:47Z</time>
      </trkpt>
      <trkpt lat="43.44002" lon="-0.63494">
        <ele>108.77</ele>
        <time>2020-02-09T10:27:01Z</time>
      </trkpt>
      <trkpt lat="43.44002" lon="-0.63502">
        <ele>106.84</ele>
        <time>2020-02-09T10:27:12Z</time>
      </trkpt>
      <trkpt lat="43.44001" lon="-0.63504">
        <ele>106.84</ele>
        <time>2020-02-09T10:27:17Z</time>
      </trkpt>
      <trkpt lat="43.44002" lon="-0.63514">
        <ele>107.81</ele>
        <time>2020-02-09T10:27:29Z</time>
      </trkpt>
      <trkpt lat="43.44001" lon="-0.63515">
        <ele>107.81</ele>
        <time>2020-02-09T10:27:32Z</time>
      </trkpt>
      <trkpt lat="43.43999" lon="-0.6352">
        <ele>107.81</ele>
        <time>2020-02-09T10:27:35Z</time>
      </trkpt>
      <trkpt lat="43.43998" lon="-0.63528">
        <ele>108.29</ele>
        <time>2020-02-09T10:27:39Z</time>
      </trkpt>
      <trkpt lat="43.44" lon="-0.63539">
        <ele>108.29</ele>
        <time>2020-02-09T10:27:44Z</time>
      </trkpt>
      <trkpt lat="43.43997" lon="-0.63552">
        <ele>106.84</ele>
        <time>2020-02-09T10:27:49Z</time>
      </trkpt>
      <trkpt lat="43.43993" lon="-0.63569">
        <ele>104.92</ele>
        <time>2020-02-09T10:27:55Z</time>
      </trkpt>
      <trkpt lat="43.43989" lon="-0.63589">
        <ele>104.44</ele>
        <time>2020-02-09T10:28:04Z</time>
      </trkpt>
      <trkpt lat="43.43988" lon="-0.63606">
        <ele>104.44</ele>
        <time>2020-02-09T10:28:10Z</time>
      </trkpt>
      <trkpt lat="43.4398" lon="-0.63645">
        <ele>107.32</ele>
        <time>2020-02-09T10:28:21Z</time>
      </trkpt>
      <trkpt lat="43.43974" lon="-0.63661">
        <ele>109.25</ele>
        <time>2020-02-09T10:28:40Z</time>
      </trkpt>
      <trkpt lat="43.43972" lon="-0.63664">
        <ele>109.73</ele>
        <time>2020-02-09T10:28:42Z</time>
      </trkpt>
      <trkpt lat="43.43969" lon="-0.63667">
        <ele>110.21</ele>
        <time>2020-02-09T10:28:45Z</time>
      </trkpt>
      <trkpt lat="43.43966" lon="-0.63676">
        <ele>109.25</ele>
        <time>2020-02-09T10:28:49Z</time>
      </trkpt>
      <trkpt lat="43.4397" lon="-0.63683">
        <ele>109.25</ele>
        <time>2020-02-09T10:28:53Z</time>
      </trkpt>
      <trkpt lat="43.43983" lon="-0.63682">
        <ele>110.21</ele>
        <time>2020-02-09T10:29:00Z</time>
      </trkpt>
      <trkpt lat="43.43991" lon="-0.63708">
        <ele>115.01</ele>
        <time>2020-02-09T10:29:11Z</time>
      </trkpt>
      <trkpt lat="43.43988" lon="-0.63717">
        <ele>115.5</ele>
        <time>2020-02-09T10:29:17Z</time>
      </trkpt>
      <trkpt lat="43.43983" lon="-0.63725">
        <ele>115.01</ele>
        <time>2020-02-09T10:29:21Z</time>
      </trkpt>
      <trkpt lat="43.43988" lon="-0.63752">
        <ele>115.5</ele>
        <time>2020-02-09T10:29:31Z</time>
      </trkpt>
      <trkpt lat="43.43989" lon="-0.63759">
        <ele>115.98</ele>
        <time>2020-02-09T10:29:33Z</time>
      </trkpt>
      <trkpt lat="43.43989" lon="-0.63767">
        <ele>115.98</ele>
        <time>2020-02-09T10:29:35Z</time>
      </trkpt>
      <trkpt lat="43.43996" lon="-0.638">
        <ele>114.53</ele>
        <time>2020-02-09T10:29:42Z</time>
      </trkpt>
      <trkpt lat="43.44009" lon="-0.63803">
        <ele>113.09</ele>
        <time>2020-02-09T10:29:48Z</time>
      </trkpt>
      <trkpt lat="43.44016" lon="-0.63804">
        <ele>110.69</ele>
        <time>2020-02-09T10:30:01Z</time>
      </trkpt>
      <trkpt lat="43.44015" lon="-0.63807">
        <ele>105.88</ele>
        <time>2020-02-09T10:30:22Z</time>
      </trkpt>
      <trkpt lat="43.44016" lon="-0.63808">
        <ele>105.4</ele>
        <time>2020-02-09T10:30:23Z</time>
      </trkpt>
      <trkpt lat="43.44019" lon="-0.63818">
        <ele>104.44</ele>
        <time>2020-02-09T10:30:27Z</time>
      </trkpt>
      <trkpt lat="43.44019" lon="-0.63822">
        <ele>103.96</ele>
        <time>2020-02-09T10:30:28Z</time>
      </trkpt>
      <trkpt lat="43.44018" lon="-0.63884">
        <ele>103</ele>
        <time>2020-02-09T10:30:44Z</time>
      </trkpt>
      <trkpt lat="43.44012" lon="-0.6396">
        <ele>101.08</ele>
        <time>2020-02-09T10:30:58Z</time>
      </trkpt>
      <trkpt lat="43.44017" lon="-0.64064">
        <ele>98.19</ele>
        <time>2020-02-09T10:31:15Z</time>
      </trkpt>
      <trkpt lat="43.44018" lon="-0.64093">
        <ele>97.23</ele>
        <time>2020-02-09T10:31:20Z</time>
      </trkpt>
      <trkpt lat="43.44007" lon="-0.64147">
        <ele>95.31</ele>
        <time>2020-02-09T10:31:29Z</time>
      </trkpt>
      <trkpt lat="43.44" lon="-0.64163">
        <ele>94.83</ele>
        <time>2020-02-09T10:31:32Z</time>
      </trkpt>
      <trkpt lat="43.43974" lon="-0.64184">
        <ele>95.79</ele>
        <time>2020-02-09T10:31:42Z</time>
      </trkpt>
      <trkpt lat="43.43953" lon="-0.64196">
        <ele>96.27</ele>
        <time>2020-02-09T10:31:49Z</time>
      </trkpt>
      <trkpt lat="43.43949" lon="-0.64195">
        <ele>96.27</ele>
        <time>2020-02-09T10:31:50Z</time>
      </trkpt>
      <trkpt lat="43.43935" lon="-0.64188">
        <ele>96.27</ele>
        <time>2020-02-09T10:31:55Z</time>
      </trkpt>
      <trkpt lat="43.43935" lon="-0.64185">
        <ele>96.27</ele>
        <time>2020-02-09T10:31:56Z</time>
      </trkpt>
      <trkpt lat="43.43935" lon="-0.64184">
        <ele>96.27</ele>
        <time>2020-02-09T10:31:57Z</time>
      </trkpt>
      <trkpt lat="43.43935" lon="-0.64182">
        <ele>95.79</ele>
        <time>2020-02-09T10:32:11Z</time>
      </trkpt>
      <trkpt lat="43.43937" lon="-0.64176">
        <ele>97.23</ele>
        <time>2020-02-09T10:32:43Z</time>
      </trkpt>
      <trkpt lat="43.43938" lon="-0.64173">
        <ele>96.75</ele>
        <time>2020-02-09T10:32:44Z</time>
      </trkpt>
      <trkpt lat="43.43958" lon="-0.64137">
        <ele>97.71</ele>
        <time>2020-02-09T10:32:55Z</time>
      </trkpt>
      <trkpt lat="43.43949" lon="-0.64107">
        <ele>96.75</ele>
        <time>2020-02-09T10:33:02Z</time>
      </trkpt>
      <trkpt lat="43.43926" lon="-0.64085">
        <ele>93.87</ele>
        <time>2020-02-09T10:33:09Z</time>
      </trkpt>
      <trkpt lat="43.43932" lon="-0.64062">
        <ele>93.87</ele>
        <time>2020-02-09T10:33:14Z</time>
      </trkpt>
      <trkpt lat="43.43941" lon="-0.64032">
        <ele>95.31</ele>
        <time>2020-02-09T10:33:19Z</time>
      </trkpt>
      <trkpt lat="43.43964" lon="-0.63998">
        <ele>95.79</ele>
        <time>2020-02-09T10:33:28Z</time>
      </trkpt>
      <trkpt lat="43.43969" lon="-0.63984">
        <ele>96.27</ele>
        <time>2020-02-09T10:33:31Z</time>
      </trkpt>
      <trkpt lat="43.43973" lon="-0.63957">
        <ele>97.71</ele>
        <time>2020-02-09T10:33:35Z</time>
      </trkpt>
      <trkpt lat="43.43972" lon="-0.63944">
        <ele>98.19</ele>
        <time>2020-02-09T10:33:37Z</time>
      </trkpt>
      <trkpt lat="43.43978" lon="-0.63886">
        <ele>100.6</ele>
        <time>2020-02-09T10:33:46Z</time>
      </trkpt>
      <trkpt lat="43.43972" lon="-0.63872">
        <ele>100.11</ele>
        <time>2020-02-09T10:33:50Z</time>
      </trkpt>
      <trkpt lat="43.43967" lon="-0.63861">
        <ele>99.63</ele>
        <time>2020-02-09T10:33:53Z</time>
      </trkpt>
      <trkpt lat="43.43964" lon="-0.63847">
        <ele>101.08</ele>
        <time>2020-02-09T10:33:57Z</time>
      </trkpt>
      <trkpt lat="43.43965" lon="-0.63837">
        <ele>103</ele>
        <time>2020-02-09T10:34:02Z</time>
      </trkpt>
      <trkpt lat="43.43964" lon="-0.63826">
        <ele>103.48</ele>
        <time>2020-02-09T10:34:06Z</time>
      </trkpt>
      <trkpt lat="43.43955" lon="-0.638">
        <ele>107.32</ele>
        <time>2020-02-09T10:34:17Z</time>
      </trkpt>
      <trkpt lat="43.43953" lon="-0.63781">
        <ele>106.84</ele>
        <time>2020-02-09T10:34:29Z</time>
      </trkpt>
      <trkpt lat="43.43953" lon="-0.6378">
        <ele>106.84</ele>
        <time>2020-02-09T10:34:30Z</time>
      </trkpt>
      <trkpt lat="43.4395" lon="-0.63774">
        <ele>105.88</ele>
        <time>2020-02-09T10:34:33Z</time>
      </trkpt>
      <trkpt lat="43.43942" lon="-0.63752">
        <ele>104.92</ele>
        <time>2020-02-09T10:34:43Z</time>
      </trkpt>
      <trkpt lat="43.43942" lon="-0.63746">
        <ele>104.44</ele>
        <time>2020-02-09T10:34:45Z</time>
      </trkpt>
      <trkpt lat="43.43942" lon="-0.63727">
        <ele>105.88</ele>
        <time>2020-02-09T10:34:51Z</time>
      </trkpt>
      <trkpt lat="43.43941" lon="-0.63721">
        <ele>105.88</ele>
        <time>2020-02-09T10:34:54Z</time>
      </trkpt>
      <trkpt lat="43.4393" lon="-0.63691">
        <ele>105.4</ele>
        <time>2020-02-09T10:35:04Z</time>
      </trkpt>
      <trkpt lat="43.43934" lon="-0.63666">
        <ele>104.92</ele>
        <time>2020-02-09T10:35:13Z</time>
      </trkpt>
      <trkpt lat="43.43934" lon="-0.63664">
        <ele>104.92</ele>
        <time>2020-02-09T10:35:14Z</time>
      </trkpt>
      <trkpt lat="43.43923" lon="-0.63645">
        <ele>103</ele>
        <time>2020-02-09T10:35:24Z</time>
      </trkpt>
      <trkpt lat="43.4392" lon="-0.63633">
        <ele>102.52</ele>
        <time>2020-02-09T10:35:28Z</time>
      </trkpt>
      <trkpt lat="43.43913" lon="-0.63616">
        <ele>107.81</ele>
        <time>2020-02-09T10:35:41Z</time>
      </trkpt>
      <trkpt lat="43.43912" lon="-0.63608">
        <ele>114.05</ele>
        <time>2020-02-09T10:35:53Z</time>
      </trkpt>
      <trkpt lat="43.43913" lon="-0.63596">
        <ele>117.9</ele>
        <time>2020-02-09T10:36:06Z</time>
      </trkpt>
      <trkpt lat="43.43914" lon="-0.63585">
        <ele>119.82</ele>
        <time>2020-02-09T10:36:21Z</time>
      </trkpt>
      <trkpt lat="43.43913" lon="-0.63582">
        <ele>121.74</ele>
        <time>2020-02-09T10:36:44Z</time>
      </trkpt>
      <trkpt lat="43.43911" lon="-0.6358">
        <ele>120.78</ele>
        <time>2020-02-09T10:37:05Z</time>
      </trkpt>
      <trkpt lat="43.43913" lon="-0.63578">
        <ele>117.9</ele>
        <time>2020-02-09T10:37:20Z</time>
      </trkpt>
      <trkpt lat="43.43913" lon="-0.63575">
        <ele>115.98</ele>
        <time>2020-02-09T10:37:36Z</time>
      </trkpt>
      <trkpt lat="43.4391" lon="-0.63574">
        <ele>116.94</ele>
        <time>2020-02-09T10:37:58Z</time>
      </trkpt>
      <trkpt lat="43.43907" lon="-0.63573">
        <ele>115.98</ele>
        <time>2020-02-09T10:38:26Z</time>
      </trkpt>
      <trkpt lat="43.4391" lon="-0.63567">
        <ele>107.81</ele>
        <time>2020-02-09T10:38:48Z</time>
      </trkpt>
      <trkpt lat="43.43912" lon="-0.63567">
        <ele>110.69</ele>
        <time>2020-02-09T10:39:05Z</time>
      </trkpt>
      <trkpt lat="43.43908" lon="-0.63571">
        <ele>112.13</ele>
        <time>2020-02-09T10:39:29Z</time>
      </trkpt>
      <trkpt lat="43.43903" lon="-0.63575">
        <ele>125.11</ele>
        <time>2020-02-09T10:40:08Z</time>
      </trkpt>
      <trkpt lat="43.43913" lon="-0.63576">
        <ele>131.84</ele>
        <time>2020-02-09T10:40:33Z</time>
      </trkpt>
      <trkpt lat="43.43927" lon="-0.6357">
        <ele>128.47</ele>
        <time>2020-02-09T10:41:00Z</time>
      </trkpt>
      <trkpt lat="43.43926" lon="-0.63571">
        <ele>131.84</ele>
        <time>2020-02-09T10:41:15Z</time>
      </trkpt>
      <trkpt lat="43.43913" lon="-0.63567">
        <ele>130.4</ele>
        <time>2020-02-09T10:41:29Z</time>
      </trkpt>
      <trkpt lat="43.4391" lon="-0.63566">
        <ele>130.4</ele>
        <time>2020-02-09T10:41:33Z</time>
      </trkpt>
      <trkpt lat="43.43903" lon="-0.63551">
        <ele>131.84</ele>
        <time>2020-02-09T10:41:45Z</time>
      </trkpt>
      <trkpt lat="43.439" lon="-0.63538">
        <ele>132.32</ele>
        <time>2020-02-09T10:41:55Z</time>
      </trkpt>
      <trkpt lat="43.43894" lon="-0.63529">
        <ele>132.32</ele>
        <time>2020-02-09T10:42:04Z</time>
      </trkpt>
      <trkpt lat="43.43896" lon="-0.63516">
        <ele>131.36</ele>
        <time>2020-02-09T10:42:10Z</time>
      </trkpt>
      <trkpt lat="43.43894" lon="-0.63497">
        <ele>131.36</ele>
        <time>2020-02-09T10:42:20Z</time>
      </trkpt>
      <trkpt lat="43.43894" lon="-0.63487">
        <ele>128.47</ele>
        <time>2020-02-09T10:42:34Z</time>
      </trkpt>
      <trkpt lat="43.43894" lon="-0.6348">
        <ele>126.07</ele>
        <time>2020-02-09T10:42:43Z</time>
      </trkpt>
      <trkpt lat="43.43888" lon="-0.63476">
        <ele>124.63</ele>
        <time>2020-02-09T10:42:47Z</time>
      </trkpt>
      <trkpt lat="43.4388" lon="-0.63463">
        <ele>118.86</ele>
        <time>2020-02-09T10:43:00Z</time>
      </trkpt>
      <trkpt lat="43.43878" lon="-0.63459">
        <ele>118.38</ele>
        <time>2020-02-09T10:43:03Z</time>
      </trkpt>
      <trkpt lat="43.43876" lon="-0.63456">
        <ele>117.9</ele>
        <time>2020-02-09T10:43:05Z</time>
      </trkpt>
      <trkpt lat="43.43868" lon="-0.63449">
        <ele>117.42</ele>
        <time>2020-02-09T10:43:15Z</time>
      </trkpt>
      <trkpt lat="43.43864" lon="-0.63445">
        <ele>117.9</ele>
        <time>2020-02-09T10:43:20Z</time>
      </trkpt>
      <trkpt lat="43.43853" lon="-0.63441">
        <ele>117.9</ele>
        <time>2020-02-09T10:43:31Z</time>
      </trkpt>
      <trkpt lat="43.43841" lon="-0.63447">
        <ele>119.34</ele>
        <time>2020-02-09T10:43:44Z</time>
      </trkpt>
      <trkpt lat="43.43837" lon="-0.63449">
        <ele>118.86</ele>
        <time>2020-02-09T10:43:51Z</time>
      </trkpt>
      <trkpt lat="43.4383" lon="-0.63453">
        <ele>118.38</ele>
        <time>2020-02-09T10:43:55Z</time>
      </trkpt>
      <trkpt lat="43.43794" lon="-0.63458">
        <ele>116.46</ele>
        <time>2020-02-09T10:44:12Z</time>
      </trkpt>
      <trkpt lat="43.43758" lon="-0.63472">
        <ele>115.01</ele>
        <time>2020-02-09T10:44:31Z</time>
      </trkpt>
      <trkpt lat="43.43733" lon="-0.63482">
        <ele>113.57</ele>
        <time>2020-02-09T10:44:44Z</time>
      </trkpt>
      <trkpt lat="43.43708" lon="-0.63511">
        <ele>113.09</ele>
        <time>2020-02-09T10:44:56Z</time>
      </trkpt>
      <trkpt lat="43.43697" lon="-0.63532">
        <ele>113.09</ele>
        <time>2020-02-09T10:45:04Z</time>
      </trkpt>
      <trkpt lat="43.43697" lon="-0.63534">
        <ele>113.09</ele>
        <time>2020-02-09T10:45:05Z</time>
      </trkpt>
      <trkpt lat="43.43696" lon="-0.63536">
        <ele>113.09</ele>
        <time>2020-02-09T10:45:06Z</time>
      </trkpt>
      <trkpt lat="43.43696" lon="-0.63538">
        <ele>113.09</ele>
        <time>2020-02-09T10:45:07Z</time>
      </trkpt>
      <trkpt lat="43.43694" lon="-0.63539">
        <ele>111.65</ele>
        <time>2020-02-09T10:45:21Z</time>
      </trkpt>
      <trkpt lat="43.43691" lon="-0.63536">
        <ele>110.21</ele>
        <time>2020-02-09T10:45:39Z</time>
      </trkpt>
      <trkpt lat="43.43692" lon="-0.63534">
        <ele>110.21</ele>
        <time>2020-02-09T10:45:40Z</time>
      </trkpt>
      <trkpt lat="43.43693" lon="-0.63533">
        <ele>110.69</ele>
        <time>2020-02-09T10:45:41Z</time>
      </trkpt>
      <trkpt lat="43.43693" lon="-0.63532">
        <ele>110.21</ele>
        <time>2020-02-09T10:45:42Z</time>
      </trkpt>
      <trkpt lat="43.43694" lon="-0.6353">
        <ele>110.21</ele>
        <time>2020-02-09T10:45:43Z</time>
      </trkpt>
      <trkpt lat="43.43694" lon="-0.63528">
        <ele>110.21</ele>
        <time>2020-02-09T10:45:44Z</time>
      </trkpt>
      <trkpt lat="43.43694" lon="-0.63527">
        <ele>110.69</ele>
        <time>2020-02-09T10:45:45Z</time>
      </trkpt>
      <trkpt lat="43.43695" lon="-0.63524">
        <ele>110.69</ele>
        <time>2020-02-09T10:45:46Z</time>
      </trkpt>
      <trkpt lat="43.43697" lon="-0.63522">
        <ele>110.69</ele>
        <time>2020-02-09T10:45:47Z</time>
      </trkpt>
      <trkpt lat="43.43706" lon="-0.63503">
        <ele>113.09</ele>
        <time>2020-02-09T10:46:01Z</time>
      </trkpt>
      <trkpt lat="43.43722" lon="-0.63466">
        <ele>114.05</ele>
        <time>2020-02-09T10:46:16Z</time>
      </trkpt>
      <trkpt lat="43.43734" lon="-0.63417">
        <ele>113.57</ele>
        <time>2020-02-09T10:46:28Z</time>
      </trkpt>
      <trkpt lat="43.43734" lon="-0.63412">
        <ele>113.57</ele>
        <time>2020-02-09T10:46:29Z</time>
      </trkpt>
      <trkpt lat="43.43719" lon="-0.63341">
        <ele>113.09</ele>
        <time>2020-02-09T10:46:43Z</time>
      </trkpt>
      <trkpt lat="43.43691" lon="-0.63271">
        <ele>113.09</ele>
        <time>2020-02-09T10:46:57Z</time>
      </trkpt>
      <trkpt lat="43.43649" lon="-0.63168">
        <ele>111.17</ele>
        <time>2020-02-09T10:47:17Z</time>
      </trkpt>
      <trkpt lat="43.43616" lon="-0.63143">
        <ele>111.17</ele>
        <time>2020-02-09T10:47:28Z</time>
      </trkpt>
      <trkpt lat="43.43612" lon="-0.63142">
        <ele>111.65</ele>
        <time>2020-02-09T10:47:29Z</time>
      </trkpt>
      <trkpt lat="43.43607" lon="-0.63139">
        <ele>111.65</ele>
        <time>2020-02-09T10:47:30Z</time>
      </trkpt>
      <trkpt lat="43.43603" lon="-0.63137">
        <ele>111.65</ele>
        <time>2020-02-09T10:47:31Z</time>
      </trkpt>
      <trkpt lat="43.4359" lon="-0.63132">
        <ele>112.13</ele>
        <time>2020-02-09T10:47:34Z</time>
      </trkpt>
      <trkpt lat="43.43585" lon="-0.63132">
        <ele>112.13</ele>
        <time>2020-02-09T10:47:35Z</time>
      </trkpt>
      <trkpt lat="43.4358" lon="-0.63131">
        <ele>112.13</ele>
        <time>2020-02-09T10:47:36Z</time>
      </trkpt>
      <trkpt lat="43.43575" lon="-0.6313">
        <ele>112.61</ele>
        <time>2020-02-09T10:47:37Z</time>
      </trkpt>
      <trkpt lat="43.43571" lon="-0.63128">
        <ele>112.61</ele>
        <time>2020-02-09T10:47:38Z</time>
      </trkpt>
      <trkpt lat="43.43566" lon="-0.63128">
        <ele>112.61</ele>
        <time>2020-02-09T10:47:39Z</time>
      </trkpt>
      <trkpt lat="43.43562" lon="-0.63127">
        <ele>113.09</ele>
        <time>2020-02-09T10:47:40Z</time>
      </trkpt>
      <trkpt lat="43.43558" lon="-0.63127">
        <ele>113.09</ele>
        <time>2020-02-09T10:47:41Z</time>
      </trkpt>
      <trkpt lat="43.43553" lon="-0.63127">
        <ele>113.09</ele>
        <time>2020-02-09T10:47:42Z</time>
      </trkpt>
      <trkpt lat="43.43504" lon="-0.63121">
        <ele>114.05</ele>
        <time>2020-02-09T10:47:53Z</time>
      </trkpt>
      <trkpt lat="43.43495" lon="-0.63117">
        <ele>113.57</ele>
        <time>2020-02-09T10:47:55Z</time>
      </trkpt>
      <trkpt lat="43.4349" lon="-0.63116">
        <ele>113.57</ele>
        <time>2020-02-09T10:47:56Z</time>
      </trkpt>
      <trkpt lat="43.43485" lon="-0.63115">
        <ele>113.57</ele>
        <time>2020-02-09T10:47:57Z</time>
      </trkpt>
      <trkpt lat="43.43434" lon="-0.63121">
        <ele>113.09</ele>
        <time>2020-02-09T10:48:06Z</time>
      </trkpt>
      <trkpt lat="43.43428" lon="-0.63123">
        <ele>113.09</ele>
        <time>2020-02-09T10:48:07Z</time>
      </trkpt>
      <trkpt lat="43.43423" lon="-0.63126">
        <ele>113.57</ele>
        <time>2020-02-09T10:48:08Z</time>
      </trkpt>
      <trkpt lat="43.43397" lon="-0.63135">
        <ele>115.01</ele>
        <time>2020-02-09T10:48:13Z</time>
      </trkpt>
      <trkpt lat="43.43392" lon="-0.63137">
        <ele>115.5</ele>
        <time>2020-02-09T10:48:14Z</time>
      </trkpt>
      <trkpt lat="43.43314" lon="-0.63158">
        <ele>114.53</ele>
        <time>2020-02-09T10:48:27Z</time>
      </trkpt>
      <trkpt lat="43.43298" lon="-0.63159">
        <ele>114.53</ele>
        <time>2020-02-09T10:48:30Z</time>
      </trkpt>
      <trkpt lat="43.43292" lon="-0.63159">
        <ele>115.01</ele>
        <time>2020-02-09T10:48:31Z</time>
      </trkpt>
      <trkpt lat="43.43286" lon="-0.63155">
        <ele>115.01</ele>
        <time>2020-02-09T10:48:32Z</time>
      </trkpt>
      <trkpt lat="43.43283" lon="-0.63152">
        <ele>115.01</ele>
        <time>2020-02-09T10:48:33Z</time>
      </trkpt>
      <trkpt lat="43.43279" lon="-0.63147">
        <ele>115.5</ele>
        <time>2020-02-09T10:48:34Z</time>
      </trkpt>
      <trkpt lat="43.43275" lon="-0.63141">
        <ele>115.5</ele>
        <time>2020-02-09T10:48:35Z</time>
      </trkpt>
      <trkpt lat="43.43271" lon="-0.63135">
        <ele>115.5</ele>
        <time>2020-02-09T10:48:36Z</time>
      </trkpt>
      <trkpt lat="43.43268" lon="-0.63129">
        <ele>115.5</ele>
        <time>2020-02-09T10:48:37Z</time>
      </trkpt>
      <trkpt lat="43.43203" lon="-0.63034">
        <ele>115.01</ele>
        <time>2020-02-09T10:48:52Z</time>
      </trkpt>
      <trkpt lat="43.43147" lon="-0.6295">
        <ele>113.57</ele>
        <time>2020-02-09T10:49:07Z</time>
      </trkpt>
      <trkpt lat="43.43074" lon="-0.62841">
        <ele>112.61</ele>
        <time>2020-02-09T10:49:25Z</time>
      </trkpt>
      <trkpt lat="43.43005" lon="-0.62733">
        <ele>112.13</ele>
        <time>2020-02-09T10:49:42Z</time>
      </trkpt>
      <trkpt lat="43.42976" lon="-0.62686">
        <ele>112.61</ele>
        <time>2020-02-09T10:49:50Z</time>
      </trkpt>
      <trkpt lat="43.42974" lon="-0.6268">
        <ele>113.09</ele>
        <time>2020-02-09T10:49:51Z</time>
      </trkpt>
      <trkpt lat="43.42975" lon="-0.62673">
        <ele>113.09</ele>
        <time>2020-02-09T10:49:52Z</time>
      </trkpt>
      <trkpt lat="43.42978" lon="-0.62666">
        <ele>113.09</ele>
        <time>2020-02-09T10:49:53Z</time>
      </trkpt>
      <trkpt lat="43.4298" lon="-0.6266">
        <ele>113.09</ele>
        <time>2020-02-09T10:49:54Z</time>
      </trkpt>
      <trkpt lat="43.43002" lon="-0.62616">
        <ele>113.09</ele>
        <time>2020-02-09T10:50:01Z</time>
      </trkpt>
      <trkpt lat="43.43004" lon="-0.62609">
        <ele>113.09</ele>
        <time>2020-02-09T10:50:02Z</time>
      </trkpt>
      <trkpt lat="43.43006" lon="-0.62601">
        <ele>113.09</ele>
        <time>2020-02-09T10:50:03Z</time>
      </trkpt>
      <trkpt lat="43.43013" lon="-0.62572">
        <ele>113.57</ele>
        <time>2020-02-09T10:50:07Z</time>
      </trkpt>
      <trkpt lat="43.43016" lon="-0.62565">
        <ele>113.57</ele>
        <time>2020-02-09T10:50:08Z</time>
      </trkpt>
      <trkpt lat="43.43019" lon="-0.62559">
        <ele>113.57</ele>
        <time>2020-02-09T10:50:09Z</time>
      </trkpt>
      <trkpt lat="43.43023" lon="-0.62554">
        <ele>113.57</ele>
        <time>2020-02-09T10:50:10Z</time>
      </trkpt>
      <trkpt lat="43.43028" lon="-0.62549">
        <ele>113.57</ele>
        <time>2020-02-09T10:50:11Z</time>
      </trkpt>
      <trkpt lat="43.43033" lon="-0.62545">
        <ele>113.57</ele>
        <time>2020-02-09T10:50:12Z</time>
      </trkpt>
      <trkpt lat="43.43037" lon="-0.62541">
        <ele>113.57</ele>
        <time>2020-02-09T10:50:13Z</time>
      </trkpt>
      <trkpt lat="43.43116" lon="-0.62499">
        <ele>115.01</ele>
        <time>2020-02-09T10:50:28Z</time>
      </trkpt>
      <trkpt lat="43.43126" lon="-0.62491">
        <ele>115.01</ele>
        <time>2020-02-09T10:50:30Z</time>
      </trkpt>
      <trkpt lat="43.43129" lon="-0.62486">
        <ele>115.01</ele>
        <time>2020-02-09T10:50:31Z</time>
      </trkpt>
      <trkpt lat="43.43131" lon="-0.62479">
        <ele>115.01</ele>
        <time>2020-02-09T10:50:32Z</time>
      </trkpt>
      <trkpt lat="43.4313" lon="-0.62472">
        <ele>115.01</ele>
        <time>2020-02-09T10:50:33Z</time>
      </trkpt>
      <trkpt lat="43.43128" lon="-0.62465">
        <ele>115.01</ele>
        <time>2020-02-09T10:50:34Z</time>
      </trkpt>
      <trkpt lat="43.43126" lon="-0.62458">
        <ele>114.53</ele>
        <time>2020-02-09T10:50:35Z</time>
      </trkpt>
      <trkpt lat="43.43123" lon="-0.62452">
        <ele>114.53</ele>
        <time>2020-02-09T10:50:36Z</time>
      </trkpt>
      <trkpt lat="43.43082" lon="-0.62323">
        <ele>115.01</ele>
        <time>2020-02-09T10:50:53Z</time>
      </trkpt>
      <trkpt lat="43.43068" lon="-0.62276">
        <ele>114.53</ele>
        <time>2020-02-09T10:50:59Z</time>
      </trkpt>
      <trkpt lat="43.43067" lon="-0.62268">
        <ele>114.53</ele>
        <time>2020-02-09T10:51:00Z</time>
      </trkpt>
      <trkpt lat="43.43068" lon="-0.6226">
        <ele>114.53</ele>
        <time>2020-02-09T10:51:01Z</time>
      </trkpt>
      <trkpt lat="43.43069" lon="-0.62252">
        <ele>114.53</ele>
        <time>2020-02-09T10:51:02Z</time>
      </trkpt>
      <trkpt lat="43.43072" lon="-0.62244">
        <ele>114.53</ele>
        <time>2020-02-09T10:51:03Z</time>
      </trkpt>
      <trkpt lat="43.43075" lon="-0.62236">
        <ele>114.05</ele>
        <time>2020-02-09T10:51:04Z</time>
      </trkpt>
      <trkpt lat="43.43111" lon="-0.6214">
        <ele>113.57</ele>
        <time>2020-02-09T10:51:17Z</time>
      </trkpt>
      <trkpt lat="43.4315" lon="-0.62002">
        <ele>115.5</ele>
        <time>2020-02-09T10:51:35Z</time>
      </trkpt>
      <trkpt lat="43.43164" lon="-0.61938">
        <ele>115.5</ele>
        <time>2020-02-09T10:51:46Z</time>
      </trkpt>
      <trkpt lat="43.43164" lon="-0.61935">
        <ele>115.5</ele>
        <time>2020-02-09T10:51:57Z</time>
      </trkpt>
      <trkpt lat="43.43166" lon="-0.61917">
        <ele>116.46</ele>
        <time>2020-02-09T10:52:11Z</time>
      </trkpt>
      <trkpt lat="43.43167" lon="-0.61886">
        <ele>116.46</ele>
        <time>2020-02-09T10:52:16Z</time>
      </trkpt>
      <trkpt lat="43.43165" lon="-0.6188">
        <ele>116.94</ele>
        <time>2020-02-09T10:52:17Z</time>
      </trkpt>
      <trkpt lat="43.43163" lon="-0.61873">
        <ele>116.94</ele>
        <time>2020-02-09T10:52:18Z</time>
      </trkpt>
      <trkpt lat="43.4316" lon="-0.61868">
        <ele>116.94</ele>
        <time>2020-02-09T10:52:19Z</time>
      </trkpt>
      <trkpt lat="43.43156" lon="-0.61862">
        <ele>116.94</ele>
        <time>2020-02-09T10:52:20Z</time>
      </trkpt>
      <trkpt lat="43.4315" lon="-0.6185">
        <ele>116.46</ele>
        <time>2020-02-09T10:52:22Z</time>
      </trkpt>
      <trkpt lat="43.43143" lon="-0.61835">
        <ele>116.94</ele>
        <time>2020-02-09T10:52:24Z</time>
      </trkpt>
      <trkpt lat="43.43141" lon="-0.61827">
        <ele>116.94</ele>
        <time>2020-02-09T10:52:25Z</time>
      </trkpt>
      <trkpt lat="43.43129" lon="-0.61791">
        <ele>116.46</ele>
        <time>2020-02-09T10:52:30Z</time>
      </trkpt>
      <trkpt lat="43.43127" lon="-0.61784">
        <ele>116.46</ele>
        <time>2020-02-09T10:52:31Z</time>
      </trkpt>
      <trkpt lat="43.43098" lon="-0.61688">
        <ele>115.98</ele>
        <time>2020-02-09T10:52:44Z</time>
      </trkpt>
      <trkpt lat="43.43097" lon="-0.6168">
        <ele>116.46</ele>
        <time>2020-02-09T10:52:45Z</time>
      </trkpt>
      <trkpt lat="43.43093" lon="-0.61643">
        <ele>116.94</ele>
        <time>2020-02-09T10:52:50Z</time>
      </trkpt>
      <trkpt lat="43.43093" lon="-0.61621">
        <ele>116.94</ele>
        <time>2020-02-09T10:52:53Z</time>
      </trkpt>
      <trkpt lat="43.43086" lon="-0.61472">
        <ele>117.9</ele>
        <time>2020-02-09T10:53:12Z</time>
      </trkpt>
      <trkpt lat="43.43082" lon="-0.61426">
        <ele>117.9</ele>
        <time>2020-02-09T10:53:20Z</time>
      </trkpt>
      <trkpt lat="43.43079" lon="-0.61423">
        <ele>117.9</ele>
        <time>2020-02-09T10:53:21Z</time>
      </trkpt>
      <trkpt lat="43.43076" lon="-0.61422">
        <ele>117.9</ele>
        <time>2020-02-09T10:53:22Z</time>
      </trkpt>
      <trkpt lat="43.43073" lon="-0.61423">
        <ele>118.38</ele>
        <time>2020-02-09T10:53:23Z</time>
      </trkpt>
      <trkpt lat="43.43071" lon="-0.61423">
        <ele>118.38</ele>
        <time>2020-02-09T10:53:24Z</time>
      </trkpt>
      <trkpt lat="43.4304" lon="-0.61417">
        <ele>118.86</ele>
        <time>2020-02-09T10:53:35Z</time>
      </trkpt>
      <trkpt lat="43.4302" lon="-0.61383">
        <ele>118.38</ele>
        <time>2020-02-09T10:53:44Z</time>
      </trkpt>
      <trkpt lat="43.42975" lon="-0.61305">
        <ele>119.34</ele>
        <time>2020-02-09T10:53:57Z</time>
      </trkpt>
      <trkpt lat="43.42921" lon="-0.6119">
        <ele>119.34</ele>
        <time>2020-02-09T10:54:13Z</time>
      </trkpt>
      <trkpt lat="43.42889" lon="-0.61111">
        <ele>118.86</ele>
        <time>2020-02-09T10:54:26Z</time>
      </trkpt>
      <trkpt lat="43.42883" lon="-0.61093">
        <ele>119.34</ele>
        <time>2020-02-09T10:54:31Z</time>
      </trkpt>
      <trkpt lat="43.42881" lon="-0.61091">
        <ele>118.86</ele>
        <time>2020-02-09T10:54:32Z</time>
      </trkpt>
      <trkpt lat="43.42878" lon="-0.61091">
        <ele>119.34</ele>
        <time>2020-02-09T10:54:33Z</time>
      </trkpt>
      <trkpt lat="43.42875" lon="-0.61091">
        <ele>119.34</ele>
        <time>2020-02-09T10:54:34Z</time>
      </trkpt>
      <trkpt lat="43.42872" lon="-0.61092">
        <ele>119.34</ele>
        <time>2020-02-09T10:54:35Z</time>
      </trkpt>
      <trkpt lat="43.42868" lon="-0.61093">
        <ele>119.34</ele>
        <time>2020-02-09T10:54:36Z</time>
      </trkpt>
      <trkpt lat="43.42864" lon="-0.61093">
        <ele>119.34</ele>
        <time>2020-02-09T10:54:37Z</time>
      </trkpt>
      <trkpt lat="43.4286" lon="-0.61094">
        <ele>119.34</ele>
        <time>2020-02-09T10:54:38Z</time>
      </trkpt>
      <trkpt lat="43.42836" lon="-0.61098">
        <ele>119.82</ele>
        <time>2020-02-09T10:54:43Z</time>
      </trkpt>
      <trkpt lat="43.42757" lon="-0.61122">
        <ele>120.3</ele>
        <time>2020-02-09T10:54:57Z</time>
      </trkpt>
      <trkpt lat="43.42698" lon="-0.61153">
        <ele>120.3</ele>
        <time>2020-02-09T10:55:12Z</time>
      </trkpt>
      <trkpt lat="43.42682" lon="-0.61168">
        <ele>121.26</ele>
        <time>2020-02-09T10:55:25Z</time>
      </trkpt>
      <trkpt lat="43.4268" lon="-0.61169">
        <ele>120.3</ele>
        <time>2020-02-09T10:55:55Z</time>
      </trkpt>
      <trkpt lat="43.42664" lon="-0.61182">
        <ele>120.78</ele>
        <time>2020-02-09T10:56:09Z</time>
      </trkpt>
      <trkpt lat="43.42618" lon="-0.61212">
        <ele>121.26</ele>
        <time>2020-02-09T10:56:20Z</time>
      </trkpt>
      <trkpt lat="43.42561" lon="-0.61248">
        <ele>120.78</ele>
        <time>2020-02-09T10:56:31Z</time>
      </trkpt>
      <trkpt lat="43.42556" lon="-0.61251">
        <ele>120.78</ele>
        <time>2020-02-09T10:56:32Z</time>
      </trkpt>
      <trkpt lat="43.42551" lon="-0.61255">
        <ele>121.26</ele>
        <time>2020-02-09T10:56:33Z</time>
      </trkpt>
      <trkpt lat="43.42546" lon="-0.61259">
        <ele>121.74</ele>
        <time>2020-02-09T10:56:34Z</time>
      </trkpt>
      <trkpt lat="43.42541" lon="-0.61262">
        <ele>121.74</ele>
        <time>2020-02-09T10:56:35Z</time>
      </trkpt>
      <trkpt lat="43.4253" lon="-0.61269">
        <ele>122.71</ele>
        <time>2020-02-09T10:56:37Z</time>
      </trkpt>
      <trkpt lat="43.42524" lon="-0.61272">
        <ele>123.19</ele>
        <time>2020-02-09T10:56:38Z</time>
      </trkpt>
      <trkpt lat="43.42519" lon="-0.61275">
        <ele>123.67</ele>
        <time>2020-02-09T10:56:39Z</time>
      </trkpt>
      <trkpt lat="43.42467" lon="-0.61306">
        <ele>127.03</ele>
        <time>2020-02-09T10:56:51Z</time>
      </trkpt>
      <trkpt lat="43.42401" lon="-0.61346">
        <ele>127.99</ele>
        <time>2020-02-09T10:57:07Z</time>
      </trkpt>
      <trkpt lat="43.42357" lon="-0.61375">
        <ele>127.51</ele>
        <time>2020-02-09T10:57:16Z</time>
      </trkpt>
      <trkpt lat="43.42302" lon="-0.61425">
        <ele>124.15</ele>
        <time>2020-02-09T10:57:26Z</time>
      </trkpt>
      <trkpt lat="43.42298" lon="-0.61428">
        <ele>123.67</ele>
        <time>2020-02-09T10:57:27Z</time>
      </trkpt>
      <trkpt lat="43.42294" lon="-0.61428">
        <ele>123.67</ele>
        <time>2020-02-09T10:57:28Z</time>
      </trkpt>
      <trkpt lat="43.4229" lon="-0.61422">
        <ele>122.22</ele>
        <time>2020-02-09T10:57:31Z</time>
      </trkpt>
      <trkpt lat="43.4229" lon="-0.61417">
        <ele>121.74</ele>
        <time>2020-02-09T10:57:32Z</time>
      </trkpt>
      <trkpt lat="43.42291" lon="-0.61412">
        <ele>121.26</ele>
        <time>2020-02-09T10:57:33Z</time>
      </trkpt>
      <trkpt lat="43.42294" lon="-0.61407">
        <ele>120.78</ele>
        <time>2020-02-09T10:57:34Z</time>
      </trkpt>
      <trkpt lat="43.42298" lon="-0.61402">
        <ele>120.3</ele>
        <time>2020-02-09T10:57:35Z</time>
      </trkpt>
      <trkpt lat="43.42315" lon="-0.61376">
        <ele>118.86</ele>
        <time>2020-02-09T10:57:40Z</time>
      </trkpt>
      <trkpt lat="43.42318" lon="-0.6137">
        <ele>118.38</ele>
        <time>2020-02-09T10:57:41Z</time>
      </trkpt>
      <trkpt lat="43.42319" lon="-0.61364">
        <ele>117.9</ele>
        <time>2020-02-09T10:57:42Z</time>
      </trkpt>
      <trkpt lat="43.42318" lon="-0.61357">
        <ele>117.42</ele>
        <time>2020-02-09T10:57:43Z</time>
      </trkpt>
      <trkpt lat="43.42316" lon="-0.6135">
        <ele>117.42</ele>
        <time>2020-02-09T10:57:44Z</time>
      </trkpt>
      <trkpt lat="43.42301" lon="-0.61285">
        <ele>116.46</ele>
        <time>2020-02-09T10:57:53Z</time>
      </trkpt>
      <trkpt lat="43.42274" lon="-0.61228">
        <ele>115.5</ele>
        <time>2020-02-09T10:58:02Z</time>
      </trkpt>
      <trkpt lat="43.42253" lon="-0.61138">
        <ele>115.98</ele>
        <time>2020-02-09T10:58:14Z</time>
      </trkpt>
      <trkpt lat="43.42253" lon="-0.61131">
        <ele>115.98</ele>
        <time>2020-02-09T10:58:15Z</time>
      </trkpt>
      <trkpt lat="43.42254" lon="-0.61123">
        <ele>115.98</ele>
        <time>2020-02-09T10:58:16Z</time>
      </trkpt>
      <trkpt lat="43.42255" lon="-0.61116">
        <ele>115.98</ele>
        <time>2020-02-09T10:58:17Z</time>
      </trkpt>
      <trkpt lat="43.42257" lon="-0.61108">
        <ele>115.98</ele>
        <time>2020-02-09T10:58:18Z</time>
      </trkpt>
      <trkpt lat="43.4226" lon="-0.61086">
        <ele>115.5</ele>
        <time>2020-02-09T10:58:21Z</time>
      </trkpt>
      <trkpt lat="43.4226" lon="-0.61078">
        <ele>115.5</ele>
        <time>2020-02-09T10:58:22Z</time>
      </trkpt>
      <trkpt lat="43.42259" lon="-0.6107">
        <ele>115.5</ele>
        <time>2020-02-09T10:58:23Z</time>
      </trkpt>
      <trkpt lat="43.42245" lon="-0.60986">
        <ele>115.01</ele>
        <time>2020-02-09T10:58:35Z</time>
      </trkpt>
      <trkpt lat="43.42242" lon="-0.60983">
        <ele>115.01</ele>
        <time>2020-02-09T10:58:36Z</time>
      </trkpt>
      <trkpt lat="43.42238" lon="-0.60981">
        <ele>115.01</ele>
        <time>2020-02-09T10:58:37Z</time>
      </trkpt>
      <trkpt lat="43.42234" lon="-0.60982">
        <ele>115.01</ele>
        <time>2020-02-09T10:58:38Z</time>
      </trkpt>
      <trkpt lat="43.42229" lon="-0.60983">
        <ele>115.5</ele>
        <time>2020-02-09T10:58:39Z</time>
      </trkpt>
      <trkpt lat="43.42181" lon="-0.60985">
        <ele>118.38</ele>
        <time>2020-02-09T10:58:50Z</time>
      </trkpt>
      <trkpt lat="43.42177" lon="-0.60985">
        <ele>118.38</ele>
        <time>2020-02-09T10:58:51Z</time>
      </trkpt>
      <trkpt lat="43.42173" lon="-0.60986">
        <ele>118.86</ele>
        <time>2020-02-09T10:58:52Z</time>
      </trkpt>
      <trkpt lat="43.42169" lon="-0.60986">
        <ele>118.86</ele>
        <time>2020-02-09T10:58:53Z</time>
      </trkpt>
      <trkpt lat="43.42164" lon="-0.60986">
        <ele>119.34</ele>
        <time>2020-02-09T10:58:54Z</time>
      </trkpt>
      <trkpt lat="43.4216" lon="-0.60985">
        <ele>119.34</ele>
        <time>2020-02-09T10:58:55Z</time>
      </trkpt>
      <trkpt lat="43.42156" lon="-0.60983">
        <ele>119.82</ele>
        <time>2020-02-09T10:58:56Z</time>
      </trkpt>
      <trkpt lat="43.42152" lon="-0.60982">
        <ele>119.82</ele>
        <time>2020-02-09T10:58:57Z</time>
      </trkpt>
      <trkpt lat="43.42148" lon="-0.6098">
        <ele>119.82</ele>
        <time>2020-02-09T10:58:58Z</time>
      </trkpt>
      <trkpt lat="43.42134" lon="-0.60973">
        <ele>120.3</ele>
        <time>2020-02-09T10:59:02Z</time>
      </trkpt>
      <trkpt lat="43.42132" lon="-0.60969">
        <ele>120.78</ele>
        <time>2020-02-09T10:59:03Z</time>
      </trkpt>
      <trkpt lat="43.42131" lon="-0.60966">
        <ele>120.78</ele>
        <time>2020-02-09T10:59:04Z</time>
      </trkpt>
      <trkpt lat="43.4213" lon="-0.60962">
        <ele>121.26</ele>
        <time>2020-02-09T10:59:05Z</time>
      </trkpt>
      <trkpt lat="43.42128" lon="-0.60959">
        <ele>121.26</ele>
        <time>2020-02-09T10:59:06Z</time>
      </trkpt>
      <trkpt lat="43.42115" lon="-0.60916">
        <ele>120.78</ele>
        <time>2020-02-09T10:59:16Z</time>
      </trkpt>
      <trkpt lat="43.42115" lon="-0.6091">
        <ele>119.34</ele>
        <time>2020-02-09T10:59:20Z</time>
      </trkpt>
      <trkpt lat="43.42117" lon="-0.60895">
        <ele>116.46</ele>
        <time>2020-02-09T10:59:25Z</time>
      </trkpt>
      <trkpt lat="43.42127" lon="-0.6083">
        <ele>115.98</ele>
        <time>2020-02-09T10:59:35Z</time>
      </trkpt>
      <trkpt lat="43.42131" lon="-0.60807">
        <ele>116.46</ele>
        <time>2020-02-09T10:59:39Z</time>
      </trkpt>
      <trkpt lat="43.42137" lon="-0.60789">
        <ele>117.42</ele>
        <time>2020-02-09T10:59:42Z</time>
      </trkpt>
      <trkpt lat="43.42135" lon="-0.60755">
        <ele>118.38</ele>
        <time>2020-02-09T10:59:48Z</time>
      </trkpt>
      <trkpt lat="43.42133" lon="-0.60725">
        <ele>119.34</ele>
        <time>2020-02-09T10:59:53Z</time>
      </trkpt>
      <trkpt lat="43.42133" lon="-0.60719">
        <ele>119.82</ele>
        <time>2020-02-09T10:59:54Z</time>
      </trkpt>
      <trkpt lat="43.42131" lon="-0.60628">
        <ele>120.78</ele>
        <time>2020-02-09T11:00:07Z</time>
      </trkpt>
      <trkpt lat="43.4213" lon="-0.60621">
        <ele>120.78</ele>
        <time>2020-02-09T11:00:08Z</time>
      </trkpt>
      <trkpt lat="43.42129" lon="-0.60614">
        <ele>120.3</ele>
        <time>2020-02-09T11:00:09Z</time>
      </trkpt>
      <trkpt lat="43.42107" lon="-0.60495">
        <ele>119.82</ele>
        <time>2020-02-09T11:00:26Z</time>
      </trkpt>
      <trkpt lat="43.42084" lon="-0.60389">
        <ele>119.82</ele>
        <time>2020-02-09T11:00:42Z</time>
      </trkpt>
      <trkpt lat="43.42062" lon="-0.60273">
        <ele>120.3</ele>
        <time>2020-02-09T11:00:59Z</time>
      </trkpt>
      <trkpt lat="43.42053" lon="-0.60162">
        <ele>119.82</ele>
        <time>2020-02-09T11:01:16Z</time>
      </trkpt>
      <trkpt lat="43.42062" lon="-0.60049">
        <ele>120.3</ele>
        <time>2020-02-09T11:01:33Z</time>
      </trkpt>
      <trkpt lat="43.42068" lon="-0.5994">
        <ele>120.3</ele>
        <time>2020-02-09T11:01:49Z</time>
      </trkpt>
      <trkpt lat="43.42068" lon="-0.59934">
        <ele>120.3</ele>
        <time>2020-02-09T11:01:50Z</time>
      </trkpt>
      <trkpt lat="43.42067" lon="-0.59927">
        <ele>120.3</ele>
        <time>2020-02-09T11:01:51Z</time>
      </trkpt>
      <trkpt lat="43.42066" lon="-0.59919">
        <ele>120.3</ele>
        <time>2020-02-09T11:01:52Z</time>
      </trkpt>
      <trkpt lat="43.42063" lon="-0.59905">
        <ele>120.3</ele>
        <time>2020-02-09T11:01:54Z</time>
      </trkpt>
      <trkpt lat="43.42043" lon="-0.59841">
        <ele>120.78</ele>
        <time>2020-02-09T11:02:04Z</time>
      </trkpt>
      <trkpt lat="43.42034" lon="-0.59817">
        <ele>120.78</ele>
        <time>2020-02-09T11:02:08Z</time>
      </trkpt>
      <trkpt lat="43.42002" lon="-0.59756">
        <ele>120.78</ele>
        <time>2020-02-09T11:02:19Z</time>
      </trkpt>
      <trkpt lat="43.4199" lon="-0.59733">
        <ele>121.26</ele>
        <time>2020-02-09T11:02:23Z</time>
      </trkpt>
      <trkpt lat="43.41983" lon="-0.59724">
        <ele>121.26</ele>
        <time>2020-02-09T11:02:25Z</time>
      </trkpt>
      <trkpt lat="43.41979" lon="-0.5972">
        <ele>121.26</ele>
        <time>2020-02-09T11:02:26Z</time>
      </trkpt>
      <trkpt lat="43.41974" lon="-0.59718">
        <ele>121.74</ele>
        <time>2020-02-09T11:02:27Z</time>
      </trkpt>
      <trkpt lat="43.4197" lon="-0.59717">
        <ele>121.74</ele>
        <time>2020-02-09T11:02:28Z</time>
      </trkpt>
      <trkpt lat="43.41965" lon="-0.59716">
        <ele>121.74</ele>
        <time>2020-02-09T11:02:29Z</time>
      </trkpt>
      <trkpt lat="43.4196" lon="-0.59717">
        <ele>121.26</ele>
        <time>2020-02-09T11:02:30Z</time>
      </trkpt>
      <trkpt lat="43.41955" lon="-0.59718">
        <ele>121.26</ele>
        <time>2020-02-09T11:02:31Z</time>
      </trkpt>
      <trkpt lat="43.41934" lon="-0.59721">
        <ele>121.74</ele>
        <time>2020-02-09T11:02:35Z</time>
      </trkpt>
      <trkpt lat="43.41928" lon="-0.59718">
        <ele>121.74</ele>
        <time>2020-02-09T11:02:36Z</time>
      </trkpt>
      <trkpt lat="43.41924" lon="-0.59713">
        <ele>121.74</ele>
        <time>2020-02-09T11:02:37Z</time>
      </trkpt>
      <trkpt lat="43.41921" lon="-0.59707">
        <ele>121.74</ele>
        <time>2020-02-09T11:02:38Z</time>
      </trkpt>
      <trkpt lat="43.41917" lon="-0.597">
        <ele>121.74</ele>
        <time>2020-02-09T11:02:39Z</time>
      </trkpt>
      <trkpt lat="43.41887" lon="-0.59625">
        <ele>122.22</ele>
        <time>2020-02-09T11:02:48Z</time>
      </trkpt>
      <trkpt lat="43.41886" lon="-0.59616">
        <ele>122.71</ele>
        <time>2020-02-09T11:02:49Z</time>
      </trkpt>
      <trkpt lat="43.41884" lon="-0.59599">
        <ele>122.22</ele>
        <time>2020-02-09T11:02:51Z</time>
      </trkpt>
      <trkpt lat="43.4188" lon="-0.59553">
        <ele>123.19</ele>
        <time>2020-02-09T11:03:00Z</time>
      </trkpt>
      <trkpt lat="43.41879" lon="-0.59544">
        <ele>122.71</ele>
        <time>2020-02-09T11:03:14Z</time>
      </trkpt>
      <trkpt lat="43.41879" lon="-0.59545">
        <ele>123.19</ele>
        <time>2020-02-09T11:03:44Z</time>
      </trkpt>
      <trkpt lat="43.41874" lon="-0.59516">
        <ele>123.67</ele>
        <time>2020-02-09T11:03:53Z</time>
      </trkpt>
      <trkpt lat="43.41867" lon="-0.59473">
        <ele>124.63</ele>
        <time>2020-02-09T11:04:07Z</time>
      </trkpt>
      <trkpt lat="43.41867" lon="-0.59472">
        <ele>123.67</ele>
        <time>2020-02-09T11:04:28Z</time>
      </trkpt>
      <trkpt lat="43.41867" lon="-0.59472">
        <ele>124.63</ele>
        <time>2020-02-09T11:04:54Z</time>
      </trkpt>
      <trkpt lat="43.41865" lon="-0.59463">
        <ele>124.15</ele>
        <time>2020-02-09T11:05:20Z</time>
      </trkpt>
      <trkpt lat="43.41855" lon="-0.59405">
        <ele>124.15</ele>
        <time>2020-02-09T11:05:31Z</time>
      </trkpt>
      <trkpt lat="43.41856" lon="-0.5936">
        <ele>123.67</ele>
        <time>2020-02-09T11:05:40Z</time>
      </trkpt>
      <trkpt lat="43.41832" lon="-0.59264">
        <ele>124.15</ele>
        <time>2020-02-09T11:05:55Z</time>
      </trkpt>
      <trkpt lat="43.41818" lon="-0.59215">
        <ele>124.63</ele>
        <time>2020-02-09T11:06:02Z</time>
      </trkpt>
      <trkpt lat="43.41816" lon="-0.59208">
        <ele>124.63</ele>
        <time>2020-02-09T11:06:03Z</time>
      </trkpt>
      <trkpt lat="43.41771" lon="-0.59081">
        <ele>125.59</ele>
        <time>2020-02-09T11:06:21Z</time>
      </trkpt>
      <trkpt lat="43.41731" lon="-0.5897">
        <ele>125.11</ele>
        <time>2020-02-09T11:06:36Z</time>
      </trkpt>
      <trkpt lat="43.41711" lon="-0.58884">
        <ele>125.59</ele>
        <time>2020-02-09T11:06:47Z</time>
      </trkpt>
      <trkpt lat="43.4171" lon="-0.58876">
        <ele>125.59</ele>
        <time>2020-02-09T11:06:48Z</time>
      </trkpt>
      <trkpt lat="43.4171" lon="-0.58867">
        <ele>125.59</ele>
        <time>2020-02-09T11:06:49Z</time>
      </trkpt>
      <trkpt lat="43.41711" lon="-0.58859">
        <ele>126.07</ele>
        <time>2020-02-09T11:06:50Z</time>
      </trkpt>
      <trkpt lat="43.41713" lon="-0.58851">
        <ele>125.59</ele>
        <time>2020-02-09T11:06:51Z</time>
      </trkpt>
      <trkpt lat="43.41715" lon="-0.58835">
        <ele>125.59</ele>
        <time>2020-02-09T11:06:53Z</time>
      </trkpt>
      <trkpt lat="43.41715" lon="-0.58827">
        <ele>125.59</ele>
        <time>2020-02-09T11:06:54Z</time>
      </trkpt>
      <trkpt lat="43.41714" lon="-0.58819">
        <ele>125.59</ele>
        <time>2020-02-09T11:06:55Z</time>
      </trkpt>
      <trkpt lat="43.41712" lon="-0.58811">
        <ele>125.11</ele>
        <time>2020-02-09T11:06:56Z</time>
      </trkpt>
      <trkpt lat="43.41709" lon="-0.58804">
        <ele>125.11</ele>
        <time>2020-02-09T11:06:57Z</time>
      </trkpt>
      <trkpt lat="43.41706" lon="-0.58798">
        <ele>125.11</ele>
        <time>2020-02-09T11:06:58Z</time>
      </trkpt>
      <trkpt lat="43.41702" lon="-0.58791">
        <ele>125.11</ele>
        <time>2020-02-09T11:06:59Z</time>
      </trkpt>
      <trkpt lat="43.41699" lon="-0.58785">
        <ele>125.11</ele>
        <time>2020-02-09T11:07:00Z</time>
      </trkpt>
      <trkpt lat="43.41696" lon="-0.58778">
        <ele>125.11</ele>
        <time>2020-02-09T11:07:01Z</time>
      </trkpt>
      <trkpt lat="43.41671" lon="-0.5872">
        <ele>126.07</ele>
        <time>2020-02-09T11:07:10Z</time>
      </trkpt>
      <trkpt lat="43.4167" lon="-0.58713">
        <ele>126.07</ele>
        <time>2020-02-09T11:07:11Z</time>
      </trkpt>
      <trkpt lat="43.41658" lon="-0.58605">
        <ele>127.03</ele>
        <time>2020-02-09T11:07:25Z</time>
      </trkpt>
      <trkpt lat="43.41651" lon="-0.58564">
        <ele>127.51</ele>
        <time>2020-02-09T11:07:30Z</time>
      </trkpt>
      <trkpt lat="43.41643" lon="-0.58541">
        <ele>127.51</ele>
        <time>2020-02-09T11:07:33Z</time>
      </trkpt>
      <trkpt lat="43.41604" lon="-0.5843">
        <ele>127.99</ele>
        <time>2020-02-09T11:07:47Z</time>
      </trkpt>
      <trkpt lat="43.41601" lon="-0.58422">
        <ele>127.99</ele>
        <time>2020-02-09T11:07:48Z</time>
      </trkpt>
      <trkpt lat="43.41598" lon="-0.58413">
        <ele>128.47</ele>
        <time>2020-02-09T11:07:49Z</time>
      </trkpt>
      <trkpt lat="43.41596" lon="-0.58404">
        <ele>127.99</ele>
        <time>2020-02-09T11:07:50Z</time>
      </trkpt>
      <trkpt lat="43.41579" lon="-0.58352">
        <ele>128.47</ele>
        <time>2020-02-09T11:07:56Z</time>
      </trkpt>
      <trkpt lat="43.41546" lon="-0.58259">
        <ele>128.47</ele>
        <time>2020-02-09T11:08:08Z</time>
      </trkpt>
      <trkpt lat="43.41543" lon="-0.58238">
        <ele>128.47</ele>
        <time>2020-02-09T11:08:11Z</time>
      </trkpt>
      <trkpt lat="43.41538" lon="-0.58203">
        <ele>128.47</ele>
        <time>2020-02-09T11:08:16Z</time>
      </trkpt>
      <trkpt lat="43.41536" lon="-0.58197">
        <ele>128.47</ele>
        <time>2020-02-09T11:08:17Z</time>
      </trkpt>
      <trkpt lat="43.41534" lon="-0.58191">
        <ele>128.47</ele>
        <time>2020-02-09T11:08:18Z</time>
      </trkpt>
      <trkpt lat="43.41531" lon="-0.58185">
        <ele>128.47</ele>
        <time>2020-02-09T11:08:19Z</time>
      </trkpt>
      <trkpt lat="43.41529" lon="-0.58179">
        <ele>128.47</ele>
        <time>2020-02-09T11:08:20Z</time>
      </trkpt>
      <trkpt lat="43.41527" lon="-0.58172">
        <ele>128.47</ele>
        <time>2020-02-09T11:08:21Z</time>
      </trkpt>
      <trkpt lat="43.41494" lon="-0.58081">
        <ele>127.99</ele>
        <time>2020-02-09T11:08:36Z</time>
      </trkpt>
      <trkpt lat="43.41489" lon="-0.58068">
        <ele>127.99</ele>
        <time>2020-02-09T11:08:38Z</time>
      </trkpt>
      <trkpt lat="43.41456" lon="-0.57967">
        <ele>128.47</ele>
        <time>2020-02-09T11:08:53Z</time>
      </trkpt>
      <trkpt lat="43.41428" lon="-0.5788">
        <ele>128.95</ele>
        <time>2020-02-09T11:09:06Z</time>
      </trkpt>
      <trkpt lat="43.41426" lon="-0.57874">
        <ele>128.95</ele>
        <time>2020-02-09T11:09:07Z</time>
      </trkpt>
      <trkpt lat="43.41406" lon="-0.57811">
        <ele>129.43</ele>
        <time>2020-02-09T11:09:18Z</time>
      </trkpt>
      <trkpt lat="43.41403" lon="-0.57806">
        <ele>129.43</ele>
        <time>2020-02-09T11:09:19Z</time>
      </trkpt>
      <trkpt lat="43.41397" lon="-0.57797">
        <ele>129.43</ele>
        <time>2020-02-09T11:09:21Z</time>
      </trkpt>
      <trkpt lat="43.41382" lon="-0.5778">
        <ele>129.43</ele>
        <time>2020-02-09T11:09:25Z</time>
      </trkpt>
      <trkpt lat="43.41378" lon="-0.57776">
        <ele>129.43</ele>
        <time>2020-02-09T11:09:26Z</time>
      </trkpt>
      <trkpt lat="43.41374" lon="-0.57772">
        <ele>129.43</ele>
        <time>2020-02-09T11:09:27Z</time>
      </trkpt>
      <trkpt lat="43.41341" lon="-0.57721">
        <ele>128.95</ele>
        <time>2020-02-09T11:09:37Z</time>
      </trkpt>
      <trkpt lat="43.41291" lon="-0.57639">
        <ele>128.95</ele>
        <time>2020-02-09T11:09:53Z</time>
      </trkpt>
      <trkpt lat="43.41284" lon="-0.57624">
        <ele>128.95</ele>
        <time>2020-02-09T11:09:56Z</time>
      </trkpt>
      <trkpt lat="43.41282" lon="-0.57618">
        <ele>128.95</ele>
        <time>2020-02-09T11:09:57Z</time>
      </trkpt>
      <trkpt lat="43.41281" lon="-0.57612">
        <ele>128.95</ele>
        <time>2020-02-09T11:09:58Z</time>
      </trkpt>
      <trkpt lat="43.41281" lon="-0.57606">
        <ele>129.43</ele>
        <time>2020-02-09T11:09:59Z</time>
      </trkpt>
      <trkpt lat="43.4128" lon="-0.576">
        <ele>129.43</ele>
        <time>2020-02-09T11:10:00Z</time>
      </trkpt>
      <trkpt lat="43.41275" lon="-0.57533">
        <ele>129.92</ele>
        <time>2020-02-09T11:10:10Z</time>
      </trkpt>
      <trkpt lat="43.41275" lon="-0.57527">
        <ele>130.4</ele>
        <time>2020-02-09T11:10:11Z</time>
      </trkpt>
      <trkpt lat="43.41272" lon="-0.57505">
        <ele>130.4</ele>
        <time>2020-02-09T11:10:15Z</time>
      </trkpt>
      <trkpt lat="43.4127" lon="-0.57479">
        <ele>130.4</ele>
        <time>2020-02-09T11:10:20Z</time>
      </trkpt>
      <trkpt lat="43.41267" lon="-0.57476">
        <ele>130.4</ele>
        <time>2020-02-09T11:10:21Z</time>
      </trkpt>
      <trkpt lat="43.41263" lon="-0.57475">
        <ele>130.4</ele>
        <time>2020-02-09T11:10:22Z</time>
      </trkpt>
      <trkpt lat="43.4126" lon="-0.57474">
        <ele>130.4</ele>
        <time>2020-02-09T11:10:23Z</time>
      </trkpt>
      <trkpt lat="43.41256" lon="-0.57474">
        <ele>130.4</ele>
        <time>2020-02-09T11:10:24Z</time>
      </trkpt>
      <trkpt lat="43.41242" lon="-0.57474">
        <ele>129.92</ele>
        <time>2020-02-09T11:10:27Z</time>
      </trkpt>
      <trkpt lat="43.41237" lon="-0.57475">
        <ele>129.92</ele>
        <time>2020-02-09T11:10:28Z</time>
      </trkpt>
      <trkpt lat="43.4115" lon="-0.57497">
        <ele>130.4</ele>
        <time>2020-02-09T11:10:43Z</time>
      </trkpt>
      <trkpt lat="43.41116" lon="-0.57501">
        <ele>130.4</ele>
        <time>2020-02-09T11:10:50Z</time>
      </trkpt>
      <trkpt lat="43.41111" lon="-0.57499">
        <ele>130.4</ele>
        <time>2020-02-09T11:10:51Z</time>
      </trkpt>
      <trkpt lat="43.41104" lon="-0.57495">
        <ele>129.92</ele>
        <time>2020-02-09T11:10:52Z</time>
      </trkpt>
      <trkpt lat="43.41101" lon="-0.57492">
        <ele>129.43</ele>
        <time>2020-02-09T11:10:53Z</time>
      </trkpt>
      <trkpt lat="43.41097" lon="-0.57488">
        <ele>128.95</ele>
        <time>2020-02-09T11:10:54Z</time>
      </trkpt>
      <trkpt lat="43.41093" lon="-0.57482">
        <ele>128.47</ele>
        <time>2020-02-09T11:10:55Z</time>
      </trkpt>
      <trkpt lat="43.41089" lon="-0.57477">
        <ele>128.47</ele>
        <time>2020-02-09T11:10:56Z</time>
      </trkpt>
      <trkpt lat="43.41086" lon="-0.5747">
        <ele>127.99</ele>
        <time>2020-02-09T11:10:57Z</time>
      </trkpt>
      <trkpt lat="43.41083" lon="-0.57464">
        <ele>127.99</ele>
        <time>2020-02-09T11:10:58Z</time>
      </trkpt>
      <trkpt lat="43.41079" lon="-0.57449">
        <ele>127.51</ele>
        <time>2020-02-09T11:11:00Z</time>
      </trkpt>
      <trkpt lat="43.41077" lon="-0.57442">
        <ele>127.51</ele>
        <time>2020-02-09T11:11:01Z</time>
      </trkpt>
      <trkpt lat="43.41073" lon="-0.57411">
        <ele>126.07</ele>
        <time>2020-02-09T11:11:05Z</time>
      </trkpt>
      <trkpt lat="43.41072" lon="-0.57403">
        <ele>126.07</ele>
        <time>2020-02-09T11:11:06Z</time>
      </trkpt>
      <trkpt lat="43.41063" lon="-0.57329">
        <ele>126.55</ele>
        <time>2020-02-09T11:11:16Z</time>
      </trkpt>
      <trkpt lat="43.41061" lon="-0.57322">
        <ele>127.03</ele>
        <time>2020-02-09T11:11:17Z</time>
      </trkpt>
      <trkpt lat="43.41059" lon="-0.57315">
        <ele>127.51</ele>
        <time>2020-02-09T11:11:18Z</time>
      </trkpt>
      <trkpt lat="43.41053" lon="-0.573">
        <ele>127.99</ele>
        <time>2020-02-09T11:11:20Z</time>
      </trkpt>
      <trkpt lat="43.41049" lon="-0.57293">
        <ele>127.99</ele>
        <time>2020-02-09T11:11:21Z</time>
      </trkpt>
      <trkpt lat="43.41045" lon="-0.57286">
        <ele>128.47</ele>
        <time>2020-02-09T11:11:22Z</time>
      </trkpt>
      <trkpt lat="43.41041" lon="-0.57281">
        <ele>128.47</ele>
        <time>2020-02-09T11:11:23Z</time>
      </trkpt>
      <trkpt lat="43.41036" lon="-0.57276">
        <ele>128.95</ele>
        <time>2020-02-09T11:11:24Z</time>
      </trkpt>
      <trkpt lat="43.41031" lon="-0.57271">
        <ele>128.95</ele>
        <time>2020-02-09T11:11:25Z</time>
      </trkpt>
      <trkpt lat="43.41027" lon="-0.57265">
        <ele>129.43</ele>
        <time>2020-02-09T11:11:26Z</time>
      </trkpt>
      <trkpt lat="43.41023" lon="-0.57259">
        <ele>129.43</ele>
        <time>2020-02-09T11:11:27Z</time>
      </trkpt>
      <trkpt lat="43.41019" lon="-0.57253">
        <ele>129.43</ele>
        <time>2020-02-09T11:11:28Z</time>
      </trkpt>
      <trkpt lat="43.41008" lon="-0.57236">
        <ele>129.43</ele>
        <time>2020-02-09T11:11:31Z</time>
      </trkpt>
      <trkpt lat="43.40996" lon="-0.5722">
        <ele>128.95</ele>
        <time>2020-02-09T11:11:34Z</time>
      </trkpt>
      <trkpt lat="43.40993" lon="-0.57214">
        <ele>128.95</ele>
        <time>2020-02-09T11:11:35Z</time>
      </trkpt>
      <trkpt lat="43.4099" lon="-0.57208">
        <ele>128.95</ele>
        <time>2020-02-09T11:11:36Z</time>
      </trkpt>
      <trkpt lat="43.40988" lon="-0.57201">
        <ele>128.95</ele>
        <time>2020-02-09T11:11:37Z</time>
      </trkpt>
      <trkpt lat="43.40985" lon="-0.57194">
        <ele>128.95</ele>
        <time>2020-02-09T11:11:38Z</time>
      </trkpt>
      <trkpt lat="43.40983" lon="-0.57187">
        <ele>128.95</ele>
        <time>2020-02-09T11:11:39Z</time>
      </trkpt>
      <trkpt lat="43.40954" lon="-0.57091">
        <ele>128.95</ele>
        <time>2020-02-09T11:11:52Z</time>
      </trkpt>
      <trkpt lat="43.40951" lon="-0.57076">
        <ele>128.95</ele>
        <time>2020-02-09T11:11:54Z</time>
      </trkpt>
      <trkpt lat="43.40949" lon="-0.57068">
        <ele>128.95</ele>
        <time>2020-02-09T11:11:55Z</time>
      </trkpt>
      <trkpt lat="43.40936" lon="-0.57012">
        <ele>129.43</ele>
        <time>2020-02-09T11:12:02Z</time>
      </trkpt>
      <trkpt lat="43.40934" lon="-0.57004">
        <ele>129.43</ele>
        <time>2020-02-09T11:12:03Z</time>
      </trkpt>
      <trkpt lat="43.40905" lon="-0.56888">
        <ele>129.92</ele>
        <time>2020-02-09T11:12:19Z</time>
      </trkpt>
      <trkpt lat="43.40889" lon="-0.56822">
        <ele>130.4</ele>
        <time>2020-02-09T11:12:28Z</time>
      </trkpt>
      <trkpt lat="43.40867" lon="-0.56735">
        <ele>131.36</ele>
        <time>2020-02-09T11:12:43Z</time>
      </trkpt>
      <trkpt lat="43.40864" lon="-0.56734">
        <ele>131.36</ele>
        <time>2020-02-09T11:12:44Z</time>
      </trkpt>
      <trkpt lat="43.4086" lon="-0.56733">
        <ele>131.36</ele>
        <time>2020-02-09T11:12:45Z</time>
      </trkpt>
      <trkpt lat="43.40856" lon="-0.56734">
        <ele>131.36</ele>
        <time>2020-02-09T11:12:46Z</time>
      </trkpt>
      <trkpt lat="43.40851" lon="-0.56735">
        <ele>131.36</ele>
        <time>2020-02-09T11:12:47Z</time>
      </trkpt>
      <trkpt lat="43.40772" lon="-0.56746">
        <ele>132.8</ele>
        <time>2020-02-09T11:13:03Z</time>
      </trkpt>
      <trkpt lat="43.40746" lon="-0.56745">
        <ele>132.32</ele>
        <time>2020-02-09T11:13:08Z</time>
      </trkpt>
      <trkpt lat="43.40741" lon="-0.56746">
        <ele>132.8</ele>
        <time>2020-02-09T11:13:09Z</time>
      </trkpt>
      <trkpt lat="43.40708" lon="-0.56757">
        <ele>132.8</ele>
        <time>2020-02-09T11:13:16Z</time>
      </trkpt>
      <trkpt lat="43.40704" lon="-0.56758">
        <ele>132.8</ele>
        <time>2020-02-09T11:13:17Z</time>
      </trkpt>
      <trkpt lat="43.40699" lon="-0.56757">
        <ele>132.8</ele>
        <time>2020-02-09T11:13:18Z</time>
      </trkpt>
      <trkpt lat="43.40695" lon="-0.56755">
        <ele>132.8</ele>
        <time>2020-02-09T11:13:19Z</time>
      </trkpt>
      <trkpt lat="43.40691" lon="-0.5675">
        <ele>132.8</ele>
        <time>2020-02-09T11:13:20Z</time>
      </trkpt>
      <trkpt lat="43.40688" lon="-0.56745">
        <ele>132.8</ele>
        <time>2020-02-09T11:13:21Z</time>
      </trkpt>
      <trkpt lat="43.40687" lon="-0.56741">
        <ele>132.8</ele>
        <time>2020-02-09T11:13:22Z</time>
      </trkpt>
      <trkpt lat="43.40685" lon="-0.56736">
        <ele>132.8</ele>
        <time>2020-02-09T11:13:23Z</time>
      </trkpt>
      <trkpt lat="43.40678" lon="-0.56714">
        <ele>132.8</ele>
        <time>2020-02-09T11:13:27Z</time>
      </trkpt>
      <trkpt lat="43.40673" lon="-0.56698">
        <ele>132.32</ele>
        <time>2020-02-09T11:13:30Z</time>
      </trkpt>
      <trkpt lat="43.4067" lon="-0.56693">
        <ele>131.84</ele>
        <time>2020-02-09T11:13:31Z</time>
      </trkpt>
      <trkpt lat="43.40667" lon="-0.56687">
        <ele>131.84</ele>
        <time>2020-02-09T11:13:32Z</time>
      </trkpt>
      <trkpt lat="43.40663" lon="-0.56682">
        <ele>131.84</ele>
        <time>2020-02-09T11:13:33Z</time>
      </trkpt>
      <trkpt lat="43.4066" lon="-0.56678">
        <ele>131.84</ele>
        <time>2020-02-09T11:13:34Z</time>
      </trkpt>
      <trkpt lat="43.40656" lon="-0.56673">
        <ele>131.84</ele>
        <time>2020-02-09T11:13:35Z</time>
      </trkpt>
      <trkpt lat="43.40652" lon="-0.5667">
        <ele>131.84</ele>
        <time>2020-02-09T11:13:36Z</time>
      </trkpt>
      <trkpt lat="43.40605" lon="-0.5664">
        <ele>132.8</ele>
        <time>2020-02-09T11:13:47Z</time>
      </trkpt>
      <trkpt lat="43.40589" lon="-0.56636">
        <ele>132.8</ele>
        <time>2020-02-09T11:13:51Z</time>
      </trkpt>
      <trkpt lat="43.40585" lon="-0.56638">
        <ele>132.8</ele>
        <time>2020-02-09T11:13:52Z</time>
      </trkpt>
      <trkpt lat="43.40582" lon="-0.5664">
        <ele>132.8</ele>
        <time>2020-02-09T11:13:53Z</time>
      </trkpt>
      <trkpt lat="43.40579" lon="-0.56643">
        <ele>132.8</ele>
        <time>2020-02-09T11:13:54Z</time>
      </trkpt>
      <trkpt lat="43.40575" lon="-0.56647">
        <ele>132.8</ele>
        <time>2020-02-09T11:13:55Z</time>
      </trkpt>
      <trkpt lat="43.40571" lon="-0.5665">
        <ele>132.8</ele>
        <time>2020-02-09T11:13:56Z</time>
      </trkpt>
      <trkpt lat="43.40567" lon="-0.56653">
        <ele>132.8</ele>
        <time>2020-02-09T11:13:57Z</time>
      </trkpt>
      <trkpt lat="43.40563" lon="-0.56655">
        <ele>132.8</ele>
        <time>2020-02-09T11:13:58Z</time>
      </trkpt>
      <trkpt lat="43.40559" lon="-0.56657">
        <ele>132.8</ele>
        <time>2020-02-09T11:13:59Z</time>
      </trkpt>
      <trkpt lat="43.40555" lon="-0.56659">
        <ele>132.32</ele>
        <time>2020-02-09T11:14:00Z</time>
      </trkpt>
      <trkpt lat="43.40506" lon="-0.56671">
        <ele>133.28</ele>
        <time>2020-02-09T11:14:13Z</time>
      </trkpt>
      <trkpt lat="43.40484" lon="-0.56681">
        <ele>133.76</ele>
        <time>2020-02-09T11:14:24Z</time>
      </trkpt>
      <trkpt lat="43.40484" lon="-0.56682">
        <ele>134.24</ele>
        <time>2020-02-09T11:14:26Z</time>
      </trkpt>
      <trkpt lat="43.40484" lon="-0.56685">
        <ele>134.72</ele>
        <time>2020-02-09T11:14:36Z</time>
      </trkpt>
      <trkpt lat="43.40484" lon="-0.56686">
        <ele>134.24</ele>
        <time>2020-02-09T11:14:40Z</time>
      </trkpt>
    </trkseg>
  </trk>
</gpx>